[[{"header":{"parameterUnit":"m.s-1","parameterCategory":1,"la1":30.6,"la2":29.2853,"lo1":-89.7004,"lo2":-87.6739,"dy":0.0162,"dx":0.0183,"nx":112,"ny":82,"refTime":"2026-05-15T00:00:00:Z","depth":0,"parameterNumber":2,"parameterNumberName":"U-component_of_WINDS"},"data":[0.0,0.0,0.0,0.0,0.0,0.0,0.0,0.0,0.0,0.0,0.0,0.0,0.0,0.0,0.0,0.0,0.0,0.0,0.0,0.0,0.0,0.0,0.0,0.0,0.0,0.0,0.0,0.0,0.0,0.0,0.0,0.0,0.0,0.0,0.0,0.0,0.0,0.0,0.0,0.0,0.0,0.0,0.0,0.0,0.0,0.0,0.0,0.0,0.0,0.0,0.0,0.0,0.0,0.0,0.0,0.0,0.0,0.0,0.0,0.0,0.0,0.0,0.0,0.0,0.0,0.0,0.0,0.0,0.0,0.0,0.0,0.0,0.0,0.0,0.0,0.0,0.0,0.0,0.0,0.0,0.0,0.0,0.0,0.0,0.0,0.0,0.0,0.0,0.0,0.0,-4.2825,-4.5394,-4.9627,-5.2345,-5.2644,-5.078,-4.7379,-4.2195,0.0,0.0,0.0,0.0,0.0,0.0,0.0,0.0,0.0,0.0,0.0,0.0,0.0,0.0,0.0,0.0,0.0,0.0,0.0,0.0,0.0,0.0,0.0,0.0,0.0,0.0,0.0,0.0,0.0,0.0,0.0,0.0,0.0,0.0,0.0,0.0,0.0,0.0,0.0,0.0,0.0,0.0,0.0,0.0,0.0,0.0,0.0,0.0,0.0,0.0,0.0,0.0,0.0,0.0,0.0,0.0,0.0,0.0,0.0,0.0,0.0,0.0,0.0,0.0,0.0,0.0,0.0,0.0,0.0,0.0,0.0,0.0,0.0,0.0,0.0,0.0,0.0,0.0,0.0,0.0,0.0,0.0,0.0,0.0,0.0,0.0,0.0,0.0,0.0,0.0,0.0,0.0,0.0,0.0,0.0,0.0,0.0,0.0,0.0,0.0,0.0,0.0,0.0,0.0,-4.3593,-4.9949,-5.1407,-5.1982,-5.2006,-4.9064,-4.5537,-4.1588,0.0,0.0,0.0,0.0,0.0,0.0,0.0,0.0,0.0,0.0,0.0,0.0,0.0,0.0,0.0,0.0,0.0,0.0,0.0,0.0,0.0,0.0,0.0,0.0,0.0,0.0,0.0,0.0,0.0,0.0,0.0,0.0,0.0,0.0,0.0,0.0,0.0,0.0,0.0,0.0,0.0,0.0,0.0,0.0,0.0,0.0,0.0,0.0,0.0,0.0,0.0,0.0,0.0,0.0,0.0,0.0,0.0,0.0,0.0,0.0,0.0,0.0,0.0,0.0,0.0,0.0,0.0,0.0,0.0,0.0,0.0,0.0,0.0,0.0,0.0,0.0,0.0,0.0,0.0,0.0,0.0,0.0,0.0,0.0,0.0,0.0,0.0,0.0,0.0,0.0,0.0,0.0,0.0,0.0,0.0,0.0,0.0,0.0,0.0,0.0,0.0,0.0,0.0,-4.1108,-4.4448,-5.0347,-5.1052,-5.098,-5.0718,-4.7989,-4.4706,-4.0988,-3.8138,0.0,0.0,0.0,0.0,0.0,0.0,0.0,0.0,0.0,0.0,0.0,0.0,0.0,0.0,0.0,0.0,0.0,0.0,0.0,0.0,0.0,0.0,0.0,0.0,0.0,0.0,0.0,0.0,0.0,0.0,0.0,0.0,0.0,0.0,0.0,0.0,0.0,0.0,0.0,0.0,0.0,0.0,0.0,0.0,0.0,0.0,0.0,0.0,0.0,0.0,0.0,0.0,0.0,0.0,0.0,0.0,0.0,0.0,0.0,0.0,0.0,0.0,0.0,0.0,0.0,0.0,0.0,0.0,0.0,0.0,0.0,0.0,0.0,0.0,0.0,0.0,0.0,0.0,0.0,0.0,0.0,0.0,0.0,0.0,0.0,0.0,0.0,0.0,0.0,0.0,0.0,0.0,0.0,0.0,0.0,0.0,0.0,0.0,0.0,0.0,0.0,0.0,-4.3621,-4.5425,-4.984,-5.032,-5.0022,-4.9299,-4.6795,-4.375,-4.0215,-3.6023,0.0,0.0,0.0,0.0,0.0,0.0,0.0,0.0,0.0,0.0,0.0,0.0,0.0,0.0,0.0,0.0,0.0,0.0,0.0,0.0,0.0,0.0,0.0,0.0,0.0,0.0,0.0,0.0,0.0,0.0,0.0,0.0,0.0,0.0,0.0,0.0,0.0,0.0,0.0,0.0,0.0,0.0,0.0,0.0,0.0,0.0,0.0,0.0,0.0,0.0,0.0,0.0,0.0,0.0,0.0,0.0,0.0,0.0,0.0,0.0,0.0,0.0,0.0,0.0,0.0,0.0,0.0,0.0,0.0,0.0,0.0,0.0,0.0,0.0,0.0,0.0,0.0,0.0,0.0,0.0,0.0,0.0,0.0,0.0,0.0,0.0,0.0,0.0,0.0,0.0,0.0,0.0,0.0,0.0,0.0,0.0,0.0,0.0,0.0,0.0,0.0,0.0,-4.3561,-4.6493,-4.9694,-5.004,-4.9418,-4.7962,-4.5096,-4.2058,-3.8915,-3.4495,0.0,0.0,0.0,0.0,0.0,0.0,0.0,0.0,0.0,0.0,0.0,0.0,0.0,0.0,0.0,0.0,0.0,0.0,0.0,0.0,0.0,0.0,0.0,0.0,0.0,0.0,0.0,0.0,0.0,0.0,0.0,0.0,0.0,0.0,0.0,0.0,0.0,0.0,0.0,0.0,0.0,0.0,0.0,0.0,0.0,0.0,0.0,0.0,0.0,0.0,0.0,0.0,0.0,0.0,0.0,0.0,0.0,0.0,0.0,0.0,0.0,0.0,0.0,0.0,0.0,0.0,0.0,0.0,0.0,0.0,0.0,0.0,0.0,0.0,0.0,0.0,0.0,0.0,0.0,0.0,0.0,0.0,0.0,0.0,0.0,0.0,0.0,0.0,0.0,0.0,0.0,0.0,0.0,0.0,0.0,0.0,0.0,0.0,0.0,0.0,0.0,0.0,-4.1562,-4.45,0.0,-4.8092,-4.7838,-4.7734,-4.4906,-4.1688,-3.8134,0.0,0.0,0.0,0.0,0.0,0.0,0.0,0.0,0.0,0.0,0.0,0.0,0.0,0.0,0.0,0.0,0.0,0.0,0.0,0.0,0.0,0.0,0.0,0.0,0.0,0.0,0.0,0.0,0.0,0.0,0.0,0.0,0.0,0.0,0.0,0.0,0.0,0.0,0.0,0.0,0.0,0.0,0.0,0.0,0.0,0.0,0.0,0.0,0.0,0.0,0.0,0.0,0.0,0.0,0.0,0.0,0.0,0.0,0.0,0.0,0.0,0.0,0.0,0.0,0.0,0.0,0.0,0.0,0.0,0.0,0.0,0.0,0.0,0.0,0.0,0.0,0.0,0.0,0.0,0.0,0.0,0.0,0.0,0.0,0.0,0.0,0.0,0.0,0.0,0.0,0.0,0.0,0.0,0.0,0.0,0.0,0.0,0.0,0.0,0.0,0.0,0.0,-3.7464,-4.0269,-4.2925,0.0,-4.5936,-4.5747,-4.558,-4.3061,-3.9988,-3.6524,0.0,0.0,0.0,0.0,0.0,0.0,0.0,0.0,0.0,0.0,0.0,0.0,0.0,0.0,0.0,0.0,0.0,0.0,0.0,0.0,0.0,0.0,0.0,0.0,0.0,0.0,0.0,0.0,0.0,0.0,0.0,0.0,0.0,0.0,0.0,0.0,0.0,0.0,0.0,0.0,0.0,0.0,0.0,0.0,0.0,0.0,0.0,0.0,0.0,0.0,0.0,0.0,0.0,0.0,0.0,0.0,0.0,0.0,0.0,0.0,0.0,0.0,0.0,0.0,0.0,0.0,0.0,0.0,0.0,0.0,0.0,0.0,0.0,0.0,0.0,0.0,0.0,0.0,0.0,0.0,0.0,0.0,0.0,0.0,0.0,0.0,0.0,0.0,0.0,0.0,0.0,0.0,0.0,0.0,0.0,0.0,0.0,0.0,0.0,0.0,0.0,0.0,-3.6926,-4.0005,-4.2183,-4.3086,-4.3694,-4.3213,-4.1185,-3.8964,-3.6551,0.0,0.0,0.0,0.0,0.0,0.0,0.0,0.0,0.0,0.0,0.0,0.0,0.0,0.0,0.0,0.0,0.0,0.0,0.0,0.0,0.0,0.0,0.0,0.0,0.0,0.0,0.0,0.0,0.0,0.0,0.0,0.0,0.0,0.0,0.0,0.0,0.0,0.0,0.0,0.0,0.0,0.0,0.0,0.0,0.0,0.0,0.0,0.0,0.0,0.0,0.0,0.0,0.0,0.0,0.0,0.0,0.0,0.0,0.0,0.0,0.0,0.0,0.0,0.0,0.0,0.0,0.0,0.0,0.0,0.0,0.0,0.0,0.0,0.0,0.0,0.0,0.0,0.0,0.0,0.0,0.0,0.0,0.0,0.0,0.0,0.0,0.0,0.0,0.0,0.0,0.0,0.0,0.0,0.0,0.0,0.0,0.0,0.0,0.0,0.0,0.0,0.0,0.0,-3.475,-3.8083,-4.0602,-4.1439,-4.1247,-4.1069,-4.1025,-3.8964,-3.627,-3.2876,0.0,0.0,0.0,0.0,0.0,0.0,0.0,0.0,0.0,0.0,0.0,0.0,0.0,0.0,0.0,0.0,0.0,0.0,0.0,0.0,0.0,0.0,0.0,0.0,0.0,0.0,0.0,0.0,0.0,0.0,0.0,0.0,0.0,0.0,0.0,0.0,0.0,0.0,0.0,0.0,0.0,0.0,0.0,0.0,0.0,0.0,0.0,0.0,0.0,0.0,0.0,0.0,0.0,0.0,0.0,0.0,0.0,0.0,0.0,0.0,0.0,0.0,0.0,0.0,0.0,0.0,0.0,0.0,0.0,0.0,0.0,0.0,0.0,0.0,0.0,0.0,0.0,0.0,0.0,0.0,0.0,0.0,0.0,0.0,0.0,0.0,0.0,0.0,0.0,0.0,0.0,0.0,0.0,0.0,0.0,0.0,0.0,0.0,0.0,0.0,0.0,0.0,-3.3438,-3.6612,-3.8827,-3.907,-3.8921,-3.894,-3.9186,-3.7491,-3.515,-3.2192,0.0,0.0,0.0,0.0,0.0,0.0,0.0,0.0,0.0,0.0,0.0,0.0,0.0,0.0,0.0,0.0,0.0,0.0,0.0,0.0,0.0,0.0,0.0,0.0,0.0,0.0,0.0,0.0,0.0,0.0,0.0,0.0,0.0,0.0,0.0,0.0,0.0,0.0,0.0,0.0,0.0,0.0,0.0,0.0,0.0,0.0,0.0,0.0,0.0,0.0,0.0,0.0,0.0,0.0,0.0,0.0,0.0,0.0,0.0,0.0,0.0,0.0,0.0,0.0,0.0,0.0,0.0,0.0,0.0,0.0,0.0,0.0,0.0,0.0,0.0,0.0,0.0,0.0,0.0,0.0,0.0,0.0,0.0,0.0,0.0,0.0,0.0,0.0,0.0,0.0,0.0,0.0,0.0,0.0,0.0,0.0,0.0,0.0,0.0,0.0,0.0,0.0,-3.2792,-3.5446,-3.6995,-3.6507,-3.6937,-3.7058,-3.6538,-3.5275,-3.3728,-3.188,0.0,0.0,0.0,0.0,0.0,0.0,0.0,0.0,0.0,0.0,0.0,0.0,0.0,0.0,0.0,0.0,0.0,0.0,0.0,0.0,0.0,0.0,0.0,0.0,0.0,0.0,0.0,0.0,0.0,0.0,0.0,0.0,0.0,0.0,0.0,0.0,0.0,0.0,0.0,0.0,0.0,0.0,0.0,0.0,0.0,0.0,0.0,0.0,0.0,0.0,0.0,0.0,0.0,0.0,0.0,0.0,0.0,0.0,0.0,0.0,-3.2381,0.0,0.0,0.0,0.0,0.0,0.0,0.0,0.0,0.0,0.0,0.0,0.0,0.0,0.0,0.0,0.0,0.0,0.0,0.0,0.0,0.0,0.0,0.0,0.0,0.0,0.0,0.0,0.0,0.0,0.0,0.0,0.0,0.0,0.0,0.0,0.0,0.0,0.0,0.0,0.0,0.0,-3.2143,-3.4204,-3.5707,-3.6228,-3.6383,-3.6445,-3.6507,-3.5275,-3.3858,-3.2372,-2.9645,0.0,0.0,0.0,0.0,0.0,0.0,0.0,0.0,0.0,0.0,0.0,0.0,0.0,0.0,0.0,0.0,0.0,0.0,0.0,0.0,0.0,0.0,0.0,0.0,0.0,0.0,0.0,0.0,0.0,0.0,0.0,0.0,0.0,0.0,0.0,0.0,0.0,0.0,0.0,0.0,0.0,0.0,0.0,0.0,0.0,0.0,0.0,0.0,0.0,0.0,0.0,0.0,0.0,0.0,0.0,0.0,0.0,0.0,0.0,0.0,-3.2234,0.0,0.0,0.0,0.0,0.0,0.0,0.0,0.0,0.0,0.0,0.0,0.0,0.0,0.0,0.0,0.0,0.0,0.0,0.0,0.0,0.0,0.0,0.0,0.0,0.0,0.0,0.0,0.0,0.0,0.0,0.0,0.0,0.0,0.0,0.0,0.0,0.0,0.0,0.0,0.0,-3.1838,-3.3817,-3.5307,-3.6009,-3.5827,-3.5675,-3.5768,-3.4544,-3.332,-3.228,-2.9684,0.0,0.0,0.0,0.0,0.0,0.0,0.0,0.0,0.0,0.0,0.0,0.0,0.0,0.0,0.0,0.0,0.0,0.0,0.0,0.0,0.0,0.0,0.0,0.0,0.0,0.0,0.0,0.0,0.0,0.0,0.0,0.0,0.0,0.0,0.0,0.0,0.0,0.0,0.0,0.0,0.0,0.0,0.0,0.0,0.0,0.0,0.0,0.0,0.0,0.0,0.0,0.0,0.0,-3.6463,-3.6692,-3.6692,-3.6565,-3.6539,-3.6437,-3.4507,-3.3828,-3.3879,0.0,0.0,0.0,0.0,0.0,0.0,0.0,0.0,0.0,0.0,0.0,0.0,0.0,0.0,0.0,0.0,0.0,0.0,0.0,0.0,0.0,0.0,0.0,0.0,0.0,-2.988,-2.981,0.0,0.0,0.0,0.0,0.0,0.0,0.0,0.0,0.0,0.0,0.0,0.0,-3.1847,-3.3546,-3.4849,-3.5669,-3.5183,-3.482,-3.482,-3.3696,-3.2755,-3.2209,-2.9871,-2.8207,0.0,0.0,0.0,0.0,0.0,0.0,0.0,0.0,0.0,0.0,0.0,0.0,0.0,0.0,0.0,0.0,0.0,0.0,0.0,0.0,0.0,0.0,0.0,0.0,0.0,0.0,0.0,0.0,0.0,0.0,0.0,0.0,-3.5237,-3.5833,0.0,0.0,0.0,0.0,0.0,0.0,0.0,0.0,0.0,0.0,0.0,0.0,0.0,0.0,-3.7343,-3.8151,-3.8637,-3.8713,-3.8591,-3.8541,-3.8516,-3.8013,-3.7786,-3.7761,-3.7459,0.0,-3.504,-3.3392,0.0,0.0,0.0,0.0,0.0,0.0,0.0,0.0,0.0,0.0,0.0,0.0,0.0,0.0,0.0,0.0,0.0,0.0,0.0,0.0,0.0,0.0,-3.0217,-2.9574,-2.9548,-2.943,0.0,-2.7744,-2.7191,-2.6944,0.0,0.0,0.0,0.0,0.0,0.0,0.0,0.0,-3.2282,-3.2735,-3.3366,-3.4724,-3.4332,-3.4031,-3.4121,-3.3423,-3.2938,-3.2846,-3.145,-3.0296,-2.9629,-2.7631,0.0,0.0,0.0,0.0,0.0,0.0,0.0,0.0,0.0,0.0,0.0,0.0,0.0,0.0,0.0,0.0,0.0,0.0,0.0,0.0,0.0,0.0,0.0,0.0,0.0,0.0,0.0,0.0,0.0,-3.5072,-3.6376,-3.6467,-3.6177,-3.55,0.0,0.0,0.0,0.0,0.0,0.0,0.0,0.0,0.0,-3.6409,-3.7475,-3.8336,-3.8892,-3.96,-3.9927,-3.9952,-4.0151,-4.0099,-3.9798,-3.9546,-3.9245,-3.8944,-3.8642,-3.7862,-3.6716,-3.5206,-3.3522,-3.1843,0.0,0.0,0.0,0.0,0.0,-3.0522,-3.1018,0.0,0.0,0.0,0.0,0.0,0.0,0.0,0.0,0.0,0.0,0.0,0.0,0.0,0.0,-3.0203,-3.005,-2.9782,-2.9639,-2.9073,-2.8286,0.0,-2.6589,-2.5905,-2.5146,0.0,0.0,0.0,0.0,-2.8855,-3.1161,-3.1388,-3.1785,-3.2809,-3.2658,-3.2369,-3.2061,-3.175,-3.1427,-3.1067,-3.0133,-2.9464,-2.9174,-2.7341,-2.5887,0.0,0.0,0.0,0.0,0.0,0.0,0.0,0.0,0.0,0.0,0.0,0.0,0.0,0.0,0.0,0.0,0.0,0.0,0.0,0.0,0.0,0.0,0.0,0.0,0.0,0.0,0.0,0.0,-3.6197,-3.7413,-3.7071,-3.7365,-3.69,0.0,0.0,0.0,0.0,0.0,0.0,-3.5152,-3.6625,-3.7633,-3.8015,-3.912,-3.9975,-4.0325,-4.0877,-4.1153,-4.1153,-4.143,-4.1254,-4.0727,-4.0576,-4.0224,-3.9672,-3.927,-3.8768,-3.809,-3.6647,-3.485,-3.303,-3.2641,-3.1884,-3.1055,-3.1527,-3.1782,-3.197,-3.2465,-3.2651,-3.2525,-3.1665,0.0,-3.0124,-2.8907,0.0,0.0,0.0,0.0,-2.878,-3.0036,0.0,-2.9783,-3.0643,-3.0416,-3.0049,-3.0216,-2.982,-2.9046,0.0,-2.7591,-2.7305,-2.6133,0.0,0.0,0.0,0.0,-2.847,-3.0264,-3.0355,-3.0495,-3.1176,-3.1082,-3.0805,-3.0274,-3.0252,-3.0056,-2.9535,-2.9021,-2.8769,-2.8769,-2.7369,-2.6188,-2.5375,0.0,0.0,0.0,0.0,0.0,0.0,0.0,0.0,0.0,0.0,0.0,0.0,0.0,0.0,0.0,0.0,0.0,0.0,0.0,0.0,0.0,0.0,0.0,0.0,0.0,0.0,0.0,0.0,0.0,-3.799,-3.8466,0.0,0.0,0.0,0.0,-3.6204,-3.6732,-3.7536,-3.8617,-3.9195,-3.9772,-4.0325,-4.143,-4.2062,-4.2087,-4.264,-4.2861,-4.2861,-4.2414,-4.1831,-4.1225,-4.0752,-4.0224,-3.9697,-3.9672,-3.9346,-3.8743,-3.7059,-3.5676,-3.455,-3.3997,-3.3463,-3.296,-3.2986,-3.3338,-3.3715,-3.3237,-3.3086,-3.3061,-3.3011,-3.2256,-3.121,-3.0633,-3.0055,0.0,0.0,-3.0457,-3.0583,-3.1201,-3.0909,-3.0532,-3.0608,-3.0206,-2.9818,-2.9818,-2.9517,-2.9249,0.0,-2.8908,-2.835,-2.7743,0.0,-2.8044,-2.8246,-2.8372,-2.8968,-3.0302,-2.9929,-2.9816,-3.0467,-2.9989,-2.9591,-2.956,-2.9563,-2.9535,-2.9504,-2.9476,-2.9448,-2.9448,-2.8741,-2.7786,-2.6638,-2.4761,0.0,0.0,0.0,0.0,0.0,0.0,0.0,0.0,0.0,0.0,0.0,0.0,0.0,0.0,0.0,0.0,0.0,0.0,0.0,0.0,0.0,0.0,0.0,0.0,0.0,0.0,0.0,0.0,-3.8592,-3.9697,0.0,-3.704,-3.7841,-3.7689,-3.5679,-3.7905,-3.9111,-3.8725,-4.038,-4.1433,-4.158,-4.2283,-4.274,-4.274,-4.2886,-4.2986,-4.2986,-4.2841,-4.2208,-4.1275,-4.1075,-4.0551,-3.9697,-3.9697,-3.9371,-3.8844,-3.7814,-3.6759,-3.573,-3.5177,-3.4625,-3.4148,-3.4148,-3.4248,-3.4349,-3.3796,-3.3596,-3.3495,-3.2767,-3.224,-3.1813,-3.1286,-3.0984,-3.0859,-3.106,-3.111,-3.1235,-3.1788,-3.1512,-3.111,-3.111,-3.0708,-3.0231,-2.9854,-2.9705,-2.9593,-2.9669,-2.9096,-2.8399,-2.778,-2.7818,-2.7974,-2.8102,-2.7759,-2.7839,-2.8763,-2.8296,-2.7974,-2.8219,-2.84,-2.8357,-2.7927,-2.839,-2.8356,-2.7557,-2.7251,-2.7095,-2.7001,-2.6066,-2.5471,-2.5299,-2.3889,-2.2565,0.0,0.0,0.0,0.0,0.0,0.0,0.0,0.0,0.0,0.0,0.0,0.0,0.0,0.0,0.0,0.0,0.0,0.0,0.0,0.0,0.0,0.0,0.0,0.0,0.0,0.0,-3.8723,-3.8425,-4.004,-4.0117,-3.7399,-3.8377,-3.8383,-3.6374,-3.8428,-3.9509,-3.8824,-4.0298,-4.1216,-4.1216,-4.1557,-4.1728,-4.1728,-4.215,-4.2375,-4.2375,-4.2375,-4.1997,-4.1275,-4.0873,-4.0116,-3.9154,-3.9517,-3.9059,-3.7995,-3.7991,-3.7367,-3.6354,-3.5965,-3.5347,-3.4792,-3.514,-3.5278,-3.5203,-3.465,-3.4198,-3.3771,-3.3018,-3.2667,-3.2441,-3.2064,-3.1964,-3.1964,-3.1964,-3.1964,-3.2039,-3.2416,-3.2089,-3.1612,-3.1436,-3.0984,-3.0457,-2.9905,-2.9804,-2.9804,-2.9804,-2.9366,-2.8737,-2.7937,-2.7892,-2.7876,-2.7632,-2.7229,-2.718,-2.7597,-2.7255,-2.6977,-2.6977,-2.7423,-2.7464,-2.7045,-2.7157,-2.7006,-2.6388,-2.5553,-2.5221,-2.5484,-2.4606,-2.421,-2.4479,-2.3167,-2.2067,-2.1197,0.0,0.0,0.0,0.0,0.0,0.0,0.0,0.0,0.0,0.0,0.0,0.0,0.0,0.0,0.0,0.0,0.0,0.0,0.0,0.0,0.0,0.0,0.0,-3.6768,-3.8011,-3.8468,-3.7565,-3.9531,-4.0053,-3.7634,-3.7919,-3.8273,-3.8308,-3.8366,-3.8653,-3.9134,-3.9157,-3.9216,-3.9216,-3.9216,-3.9216,-3.9216,-4.0384,-4.1043,-4.1043,-4.1019,-4.1055,-4.1114,-3.9874,-3.8803,-3.7897,-3.9102,-3.8319,-3.6279,-3.7409,-3.7244,-3.6216,-3.6352,-3.5763,-3.4921,-3.5953,-3.631,-3.621,-3.5637,-3.4735,-3.3853,-3.3897,-3.352,-3.3111,-3.3111,-3.3111,-3.3111,-3.3111,-3.3111,-3.3111,-3.3111,-3.2667,-3.2089,-3.1512,-3.1009,-3.0482,-2.9905,-2.9804,-2.9804,-2.9804,-2.9804,-2.9428,-2.8298,-2.8268,-2.7997,-2.6857,-2.6875,0.0,-2.6977,-2.6977,-2.6977,-2.6977,-2.6977,-2.6977,-2.6977,-2.5953,-2.555,-2.6089,-2.4612,-2.415,-2.5166,-2.471,-2.4428,-2.4428,-2.2754,-2.1599,-2.1012,0.0,0.0,0.0,0.0,0.0,0.0,0.0,0.0,0.0,0.0,0.0,0.0,0.0,0.0,0.0,0.0,0.0,0.0,0.0,0.0,0.0,-3.3678,-3.489,-3.657,-3.7683,-3.8458,-3.8641,-3.9841,-3.9945,-3.8027,-3.8814,-3.853,-3.6392,-3.7948,-3.8667,-3.7828,-3.8684,-3.9216,-3.9216,-3.9216,-3.9216,-3.9216,-3.9334,-3.937,-3.937,-3.8826,-3.8355,-3.7937,-3.7534,-3.6948,-3.6348,-3.6888,-3.678,-3.6171,-3.5765,-3.493,-3.4132,-3.5795,-3.5763,-3.4824,-3.5114,-3.4486,-3.3598,-3.4196,-3.3679,-3.2893,-3.3676,-3.352,-3.3111,-3.3111,-3.3111,-3.3111,-3.3111,-3.3111,-3.3111,-3.3111,-3.3011,-3.2591,-3.1612,-3.1286,-3.0934,-3.0005,-2.9804,-2.9804,-2.9804,-2.9804,-2.9428,-2.8298,-2.8158,-2.7817,-2.6719,0.0,0.0,-2.6636,-2.6636,-2.6636,-2.6636,-2.6636,-2.6636,-2.6636,-2.6079,-2.5434,-2.4798,-2.4055,-2.3547,-2.3352,-2.2792,-2.2607,-2.2896,-2.2147,-2.164,0.0,0.0,0.0,0.0,0.0,0.0,0.0,0.0,0.0,0.0,0.0,0.0,0.0,0.0,0.0,0.0,0.0,0.0,0.0,0.0,0.0,0.0,-3.3904,-3.4891,-3.587,-3.689,-3.7629,-3.7894,-3.9042,-3.9139,-3.7443,-3.8109,-3.7703,-3.5583,-3.6664,-3.7127,-3.6542,-3.6946,-3.7248,-3.7369,-3.7248,-3.7188,-3.7188,-3.7528,-3.7597,-3.7458,-3.6993,-3.6661,-3.6431,-3.588,-3.5312,0.0,-3.5508,-3.5256,-3.436,-3.4448,-3.3832,0.0,0.0,0.0,0.0,0.0,-3.356,-3.2814,-3.3449,-3.296,-3.2134,-3.2801,-3.2475,-3.1889,-3.1889,-3.2176,-3.2481,-3.2481,-3.2766,-3.3111,-3.3111,-3.3111,-3.2792,-3.1662,-3.1386,-3.111,-3.003,-2.9804,-2.9804,-2.9804,0.0,0.0,-2.8599,-2.8273,-2.7821,-2.6977,-2.665,-2.6499,0.0,-2.6499,-2.6499,-2.6499,-2.6499,-2.6499,-2.6499,-2.5668,0.0,0.0,0.0,-2.2553,-2.2166,-2.2012,0.0,0.0,0.0,0.0,0.0,0.0,0.0,0.0,-2.0445,-2.0318,0.0,0.0,0.0,0.0,0.0,0.0,0.0,0.0,0.0,0.0,0.0,0.0,0.0,0.0,0.0,0.0,-3.4004,-3.4897,-3.509,-3.5869,-3.6356,-3.6257,-3.7551,-3.7868,-3.6336,-3.6465,-3.6306,-3.5356,-3.4984,-3.4984,-3.5294,0.0,0.0,0.0,0.0,-3.4423,-3.4423,-3.5479,-3.5839,-3.5456,-3.5332,-3.5435,-3.5521,-3.4397,-3.3627,-3.3283,-3.4403,-3.3719,-3.1879,-3.3215,-3.3131,-3.218,-3.2785,-3.2448,-3.1688,-3.2499,-3.2801,0.0,0.0,0.0,0.0,-3.159,-3.1042,-3.0239,-3.0238,-3.0756,-3.1448,-3.1448,-3.2064,-3.281,-3.2896,-3.2939,-3.2664,-3.1662,-3.1386,-3.111,-3.003,-2.9804,-2.9804,-2.9804,-2.9804,-2.9628,-2.9088,-2.8574,-2.7996,-2.7369,-2.6901,0.0,-2.6499,-2.6499,-2.6499,-2.6499,0.0,0.0,-2.6399,-2.4958,-2.4255,-2.4575,-2.2723,-2.1568,-2.1568,-2.2046,-2.2322,-2.2322,-2.2322,-2.2543,-2.3095,-2.3045,-2.2794,-2.2343,-2.0815,-2.084,0.0,0.0,0.0,0.0,0.0,0.0,0.0,0.0,0.0,0.0,0.0,0.0,0.0,0.0,0.0,-3.3337,-3.4082,-3.4647,-3.5027,-3.5242,-3.5495,-3.5697,-3.6364,-3.6511,-3.5758,-3.5802,-3.5513,-3.4651,-3.4548,-3.4548,-3.461,-3.4485,0.0,-3.4485,-3.4423,-3.4423,-3.4423,-3.4403,-3.4182,-3.3759,0.0,0.0,-3.2352,-3.1991,-3.179,-3.1767,-3.2285,-3.2227,-3.1785,-3.1359,-3.0614,-2.9884,-3.1343,-3.1637,-3.1227,-3.0785,-3.0474,-3.0422,-3.1278,-3.1142,-3.0646,-3.1154,-3.0991,-3.0629,-3.0285,-3.0351,0.0,-3.0486,-3.0621,-3.0935,-3.1669,-3.1889,-3.1796,-3.1472,-3.1386,-3.111,-3.003,-2.9804,-2.9804,-2.9804,-2.9804,-2.9754,-2.9654,-2.9151,-2.8423,-2.7444,-2.7228,-2.7002,-2.6549,-2.6499,-2.6499,-2.6499,-2.6499,-2.6298,-2.5812,-2.5084,-2.4299,-2.3471,-2.2619,-2.2146,-2.2146,-2.2246,-2.2322,-2.2322,-2.2322,-2.2543,-2.3095,-2.2669,-2.2619,-2.292,-2.2196,-2.1769,0.0,0.0,0.0,0.0,0.0,0.0,0.0,0.0,0.0,0.0,0.0,-3.0569,-3.1268,0.0,-3.2975,-3.3951,-3.4688,-3.5107,-3.4893,-3.4893,-3.4943,-3.5063,-3.5416,-3.5521,-3.5107,-3.5214,-3.5096,-3.4463,-3.4235,-3.4235,-3.436,-3.411,-3.3985,-3.4173,-3.3985,-3.3922,-3.3922,-3.3733,-3.3355,-3.2726,-3.2387,-3.1836,-3.1191,-3.1152,-3.1112,-3.1112,-3.1286,-3.1344,-3.1265,-3.0561,-2.9739,-2.8973,-2.9953,-3.0245,-3.0109,-2.9711,-2.9448,-2.9448,-2.9953,-2.9652,-2.9078,-2.9423,-2.9112,-2.8584,-2.8395,-2.868,-2.9096,-2.9189,-2.9601,-3.0147,-3.0756,-3.1158,-3.1316,-3.0807,-3.0976,-3.0988,-3.003,-2.9804,-2.9804,-2.9804,-2.9804,-2.9804,-2.9804,-2.9553,-2.8976,-2.7871,-2.7444,-2.7128,-2.6575,-2.6499,-2.6499,-2.6499,-2.6499,-2.6273,-2.5636,-2.4858,-2.4023,-2.317,-2.2844,-2.2569,-2.2322,-2.2322,-2.2322,-2.2322,-2.2322,-2.2514,-2.3,-2.2815,-2.2785,-2.2909,-2.276,-2.2543,0.0,0.0,0.0,0.0,0.0,0.0,0.0,-3.0423,-3.0792,-3.1257,-3.1498,-3.1837,-3.2575,-3.3374,-3.4067,-3.4606,-3.5317,-3.5567,-3.4831,-3.4707,-3.4642,-3.4389,-3.4648,-3.4776,-3.4521,-3.4712,-3.4679,-3.4255,-3.3985,-3.3922,-3.4173,-3.367,-3.3544,-3.3796,-3.3544,-3.3418,-3.3418,-3.334,-3.293,-3.2229,-3.209,-3.1641,-3.0898,-3.0898,-3.0898,-3.0879,-3.0801,-3.0703,-3.0566,-3.001,-2.9332,-2.8621,-2.8867,-2.892,-2.8973,-2.9079,-2.9079,-2.9026,-2.9026,-2.8565,-2.7943,-2.7763,-2.7292,-2.6718,-2.6557,-2.703,-2.7652,-2.7908,-2.8541,-2.928,-2.9647,-3.0192,-3.0498,-2.9981,-3.0313,-3.054,-2.9835,-2.9663,-2.9663,-2.9702,-2.9702,-2.9663,-2.9702,-2.9702,-2.9326,-2.8273,-2.7684,-2.7157,-2.6506,-2.6396,-2.6396,-2.6396,-2.643,-2.6154,-2.5477,-2.4392,-2.3535,-2.3055,-2.303,-2.286,-2.2439,-2.2385,-2.2385,-2.2414,-2.2385,-2.2551,-2.2848,-2.2969,-2.2909,-2.272,-2.2909,-2.306,-3.0118,-2.9702,-2.968,-3.0318,-3.0434,-3.0714,0.0,-3.2394,-3.2395,-3.2586,-3.323,-3.3799,-3.3897,-3.4289,-3.4714,-3.5223,-3.5399,-3.5301,-3.4766,-3.4707,-3.4394,-3.3657,-3.3812,-3.4001,-3.4001,-3.4001,-3.3918,-3.3544,-3.3481,-3.3481,-3.3481,-3.3418,-3.3418,-3.3418,-3.3418,-3.3418,-3.3418,-3.3047,-3.2637,-3.2168,-3.1777,-3.1348,-3.0898,-3.0898,-3.0898,-3.0859,-3.0449,-3.0059,-2.9744,-2.9199,-2.8765,-2.8354,-2.8408,-2.8388,-2.8461,-2.892,-2.892,-2.8727,-2.8727,-2.8668,-2.845,-2.7708,-2.7542,-2.7522,-2.6738,-2.6592,-2.6668,-2.6688,-2.6764,-2.7098,-2.7934,-2.8193,-2.8464,-2.921,-2.9447,-2.9457,-2.9233,-2.917,-2.9248,-2.9419,-2.9326,-2.9248,-2.9419,-2.9287,-2.8917,-2.8199,-2.79,-2.7368,-2.6372,-2.6084,-2.598,-2.598,-2.6119,-2.5825,-2.478,-2.356,-2.2825,-2.2751,-2.2751,-2.2763,-2.2809,-2.2713,-2.2713,-2.2809,-2.2713,-2.2677,-2.272,-2.2751,-2.2751,-2.272,-2.2751,-2.2787,-3.1388,-3.0959,-3.0654,-3.1137,-3.1716,-3.2197,-3.257,-3.2828,-3.3085,-3.3461,-3.3613,-3.3769,-3.4023,-3.4414,-3.4766,-3.4961,-3.543,-3.5508,-3.4805,-3.4707,-3.4375,-3.3516,-3.3544,-3.3607,-3.3607,-3.3607,-3.3544,-3.3418,-3.3418,-3.3418,-3.3418,-3.3418,-3.3418,-3.3418,-3.3418,-3.3418,-3.3418,-3.3008,-3.2578,-3.2168,-3.1719,-3.1289,-3.0898,-3.0898,-3.0898,-3.0879,-3.0684,-3.0215,-2.9551,-2.9375,-2.8906,-2.8301,-2.8301,-2.8301,-2.8354,-2.8548,-2.8548,-2.8461,-2.8461,-2.8304,-2.799,-2.7361,-2.7089,-2.6873,-2.6211,-2.6014,-2.6062,-2.6207,-2.6255,-2.638,-2.6935,-2.7389,-2.7764,-2.7941,-2.8557,-2.8981,-2.875,-2.8891,-2.9131,-2.9209,-2.917,-2.9131,-2.9209,-2.8899,-2.8431,-2.7854,-2.7693,-2.7224,-2.6163,-2.5945,-2.591,-2.591,-2.5413,-2.4904,-2.4468,-2.3367,-2.272,-2.272,-2.272,-2.2751,-2.2757,-2.2751,-2.2751,-2.2757,-2.2751,-2.2659,-2.2512,-2.2659,-2.2598,-2.2414,-2.2629,-2.2665,-3.1983,-3.1629,-3.1404,-3.1957,-3.2733,-3.3282,-3.3085,-3.3302,-3.3635,-3.4009,-3.3828,-3.373,-3.416,-3.459,-3.4883,-3.4883,-3.5527,-3.5703,-3.4824,-3.4707,-3.4375,-3.3516,-3.3418,-3.3418,-3.3418,-3.3418,-3.3418,-3.3418,-3.3418,-3.3418,-3.3418,-3.3418,-3.3418,-3.3418,-3.3418,-3.3418,-3.3418,-3.3008,-3.2578,-3.2168,-3.1719,-3.1289,-3.0898,-3.0898,-3.0898,-3.0879,-3.0762,-3.0273,-2.9607,-2.9434,-2.8965,-2.8301,-2.8301,-2.8301,-2.8301,-2.8301,-2.8301,-2.8301,-2.8301,-2.8086,-2.7754,-2.7187,-2.6816,-2.6465,-2.5849,-2.5693,-2.5742,-2.5965,-2.6014,-2.6014,-2.6207,-2.6668,-2.7028,-2.6777,-2.7412,-2.8042,-2.8078,-2.8336,-2.8633,-2.8973,-2.8973,-2.8934,-2.9013,-2.8655,-2.8128,-2.7445,-2.7347,-2.6993,-2.5928,-2.577,-2.577,-2.5805,-2.4826,-2.4157,-2.4222,-2.321,-2.2567,-2.2567,-2.2567,-2.2598,-2.2629,-2.2598,-2.2598,-2.2629,-2.2598,-2.2506,-2.2359,-2.2506,-2.2445,-2.2197,-2.2445,-2.2482,-3.1236,-3.1237,-3.1525,-3.2544,-3.3066,-3.3516,-3.3926,-3.4088,-3.4107,-3.4062,-3.4062,-3.418,-3.4609,-3.5059,-3.5371,-3.5371,-3.5742,-3.5703,-3.4824,-3.4707,-3.4375,-3.3516,-3.3418,-3.3418,0.0,-3.3418,-3.3418,-3.3418,-3.3418,-3.3418,-3.3418,-3.3418,-3.3418,-3.3418,-3.3418,-3.3418,-3.3418,-3.3008,-3.2578,-3.2168,-3.1719,-3.1289,-3.0898,-3.0898,-3.0898,-3.0859,-3.041,-2.9961,-2.9531,-2.9121,-2.8691,-2.8301,-2.8301,-2.8301,-2.8301,-2.8301,-2.8301,-2.8301,-2.8301,-2.8281,-2.8144,-2.7285,-2.7012,-2.6836,-2.5947,-2.5693,-2.5693,-2.5693,-2.5693,-2.5693,-2.5742,-2.5742,-2.5748,-2.5829,-2.5854,-2.614,-2.7043,-2.7226,-2.7592,-2.8593,-2.8657,-2.8578,-2.8776,-2.8633,-2.8138,-2.7079,-2.6935,-2.6624,-2.5716,-2.543,-2.5394,-2.5571,-2.4522,-2.386,-2.4025,-2.2926,-2.2228,-2.2228,-2.2228,-2.229,-2.2389,-2.2266,-2.229,-2.242,-2.2266,-2.2228,-2.2228,-2.2228,-2.2228,-2.2197,-2.2228,-2.2228,-3.1828,-3.1919,-3.2015,-3.2679,-3.3105,-3.3457,-3.3613,-3.3633,-3.373,-3.4023,-3.3613,-3.3359,-3.3769,-3.3984,-3.418,-3.4473,-3.5137,-3.5508,-3.5195,-3.5156,-3.4824,-3.3965,-3.3848,-3.375,0.0,0.0,0.0,-3.3418,-3.3418,-3.3418,-3.3418,-3.3418,-3.3418,-3.3418,-3.3418,-3.3418,-3.3418,-3.2734,-3.2305,-3.2168,-3.1445,-3.1035,-3.0898,-3.0898,-3.0898,-3.0879,-3.0723,-3.0234,-2.9607,-2.9414,-2.8926,-2.8301,-2.8301,-2.8301,-2.8301,-2.8301,-2.8301,-2.8301,-2.8301,-2.8301,-2.8203,-2.7637,-2.7246,-2.6914,-2.6348,-2.5977,-2.5693,-2.5693,-2.5693,-2.5693,-2.5693,-2.5693,-2.5712,-2.5734,-2.5756,-2.5906,-2.6191,-2.6765,-2.7307,-2.7672,-2.8139,-2.8498,-2.8578,-2.8249,-2.7633,-2.655,-2.6069,-2.5733,-2.5443,-2.5335,-2.518,-2.4888,-2.4203,-2.3649,-2.3377,-2.2638,-2.2197,-2.2197,-2.2197,-2.2228,-2.229,-2.2228,-2.2228,-2.229,-2.2228,-2.2197,-2.2197,-2.2197,-2.2197,-2.2197,-2.2197,-2.2197,-3.2455,-3.2474,-3.2344,-3.3066,-3.3457,-3.3652,-3.3652,-3.3652,-3.3652,-3.3613,-3.3066,-3.2656,-3.293,-3.2851,-3.3027,-3.3926,-3.4551,-3.5039,-3.5351,-3.5254,-3.4883,-3.416,-3.3945,-3.373,-3.3457,-3.3281,0.0,-3.3418,-3.3418,-3.3418,-3.3418,-3.3418,-3.3418,-3.3418,-3.3418,-3.334,-3.3203,-3.2656,-3.2246,-3.1934,-3.123,-3.0898,-3.0898,-3.0898,-3.0898,-3.0898,-3.0898,-3.0469,-2.9785,-2.9629,-2.916,-2.8496,-2.8359,-2.8301,-2.8301,-2.8301,-2.8301,-2.8301,-2.8301,-2.8301,-2.8203,-2.7617,-2.7246,-2.6914,-2.6328,-2.5957,-2.5693,-2.5693,-2.5693,-2.5693,-2.5693,-2.5693,-2.5654,-2.5527,-2.5411,-2.5361,-2.5513,-2.5916,-2.6423,-2.7062,-2.7389,-2.7753,-2.8379,-2.8065,-2.7378,-2.6526,-2.5925,-2.5516,-2.5324,-2.53,-2.5107,-2.4578,-2.4073,-2.3577,-2.3071,-2.251,-2.2197,-2.2197,-2.2197,-2.2197,-2.2197,-2.2197,-2.2197,-2.2197,-2.2197,-2.2197,-2.2197,-2.2197,-2.2197,-2.2197,-2.2197,-2.2197,-3.2991,-3.2826,-3.2581,-3.3794,-3.4107,-3.4107,-3.4068,-3.4068,-3.3769,-3.2972,-3.2444,-3.2111,-3.2051,-3.1738,-3.2031,-3.3711,-3.4043,-3.4414,-3.5293,-3.5039,-3.4609,-3.416,-3.375,-3.3476,-3.3418,-3.3066,0.0,-3.3398,0.0,-3.3398,-3.3418,-3.3418,-3.3418,-3.3418,-3.3398,-3.3203,-3.2793,-3.2754,-3.2305,-3.1484,-3.1074,-3.0898,-3.0898,-3.0898,-3.0898,-3.0898,-3.0898,-3.0605,-3.0137,-2.9726,-2.9297,-2.8848,-2.8437,-2.8301,-2.8301,-2.8301,-2.8301,-2.8301,-2.8301,-2.8301,-2.8144,-2.7324,-2.7031,-2.6855,-2.5966,-2.5713,-2.5693,-2.5693,-2.5693,-2.5693,-2.5693,-2.5693,-2.5577,-2.5195,-2.4766,-2.4546,-2.4985,-2.4797,-2.502,-2.6734,-2.6381,-2.634,-2.8059,-2.7908,-2.7382,-2.6894,-2.638,-2.5865,-2.5372,-2.53,-2.5107,-2.4578,-2.4073,-2.3577,-2.3071,-2.251,-2.2197,-2.2197,-2.2197,-2.2197,-2.2197,-2.2197,-2.2197,-2.2197,-2.2197,-2.2197,-2.2197,-2.2197,-2.2197,-2.2197,-2.2197,-2.2197,-3.3376,-3.3384,-3.3246,-3.3812,-3.3784,-3.3623,-3.3808,-3.35,-3.2933,-3.2314,-3.1407,-3.0605,-3.0293,-3.0684,-3.1406,-3.248,-3.3711,-3.4844,-3.5742,-3.5762,-3.5391,-3.4629,-3.4434,-3.4121,-3.3476,-3.332,-3.3301,0.0,-3.3125,-3.3086,-3.3398,-3.3418,-3.3418,-3.3418,-3.3125,-3.291,-3.2793,-3.2168,-3.1582,-3.1055,-3.0937,-3.0898,-3.0898,-3.0898,-3.0898,-3.0898,-3.0898,-3.0449,-2.9726,-2.9609,-2.9121,-2.8437,-2.834,-2.8301,-2.8301,-2.8301,-2.8301,-2.8301,-2.8301,-2.8301,-2.8203,-2.7676,-2.7285,-2.6914,-2.6387,-2.5996,-2.5693,-2.5693,-2.5693,-2.5693,-2.5693,-2.5693,-2.5654,-2.5586,-2.5234,-2.4879,-2.4611,-2.4784,-2.4968,-2.5147,-2.5526,-2.5944,-2.64,-2.6039,-2.5769,-2.5916,-2.546,-2.5148,-2.5301,-2.53,-2.5107,-2.4578,-2.4073,-2.3577,-2.3071,-2.251,-2.2197,-2.2197,-2.2197,-2.2197,-2.2197,-2.2197,-2.2197,-2.2197,-2.2197,-2.2197,-2.2197,-2.2197,-2.2197,-2.2197,-2.2197,-2.2197,-3.4161,-3.4147,-3.3965,-3.4156,-3.367,-3.3113,-3.2851,-3.247,-3.1935,-3.0991,-3.015,-2.9509,-2.9011,-2.9352,-3.0156,-3.1406,-3.2871,-3.4297,-3.5566,-3.5742,-3.5488,-3.4785,-3.4531,-3.416,-3.3496,-3.3262,-3.3223,0.0,-3.3203,-3.3164,-3.3418,-3.3418,-3.3418,-3.3418,-3.3008,-3.2617,-3.2246,-3.1582,-3.1133,-3.0898,-3.0898,-3.0898,-3.0898,-3.0898,-3.0898,-3.0898,0.0,-3.0488,-2.9824,-2.9648,-2.918,-2.8555,-2.8359,-2.8301,-2.8301,-2.8301,-2.8301,-2.8301,-2.8301,-2.8301,-2.8223,-2.7865,-2.7363,-2.6934,-2.6523,-2.6074,-2.5693,-2.5693,-2.5693,-2.5693,-2.5693,-2.5693,-2.5693,-2.5693,-2.5391,-2.4941,-2.4512,-2.447,-2.4388,-2.3988,-2.4893,-2.5694,-2.5295,-2.5642,-2.5963,-2.5965,-2.5516,-2.52,-2.5107,-2.492,-2.4696,-2.451,-2.3994,-2.3546,-2.3376,-2.3095,-2.2775,-2.2558,-2.2534,-2.2438,-2.2197,-2.2197,-2.2294,-2.2566,-2.2318,-2.2318,-2.2534,-2.2294,-2.2197,-2.2197,-2.2197,-2.2197,-3.511,-3.4956,-3.464,-3.464,-3.3733,-3.262,-3.176,-3.1446,-3.0918,-2.9505,-2.8873,-2.8472,-2.7949,-2.8088,-2.8848,-3.0527,-3.1914,-3.3398,-3.5156,-3.5391,-3.5215,-3.4766,-3.4375,-3.3965,-3.3476,-3.3086,-3.3027,-3.3398,-3.3418,-3.3418,-3.3418,-3.3418,-3.3379,-3.3262,-3.2851,-3.2246,-3.1445,-3.1074,-3.0898,-3.0898,-3.0898,-3.0898,-3.0898,-3.0898,-3.0898,-3.0898,0.0,0.0,-3.0078,-2.9726,-2.9277,-2.8809,-2.8437,-2.8301,-2.8301,-2.8301,-2.8301,-2.8301,-2.8301,-2.8301,-2.8203,-2.7734,-2.7324,-2.6914,-2.6445,-2.6035,-2.5693,-2.5693,-2.5693,-2.5693,-2.5693,-2.5693,-2.5693,-2.5693,-2.5449,-2.5019,-2.4531,-2.4043,-2.3594,-2.3159,-2.436,-2.5189,-2.4445,-2.5631,-2.6513,-2.6097,-2.5639,-2.5195,-2.4785,-2.4283,-2.4055,-2.4409,-2.3723,-2.3421,-2.3872,-2.3618,-2.3346,-2.3015,-2.2903,-2.2631,-2.2221,-2.2152,-2.2416,-2.2999,-2.2511,-2.2535,-2.3119,-2.263,-2.2414,-2.2414,-2.2414,-2.2366,-3.5878,-3.5561,-3.5023,-3.5023,-3.411,-3.297,-3.1956,-3.1031,-3.0111,-2.886,-2.7962,-2.7239,-2.7032,-2.7727,-2.873,-3.0098,-3.1719,-3.3398,-3.5156,-3.5391,-3.5215,-3.4766,-3.4629,-3.4277,-3.3496,-3.3359,-3.334,0.0,-3.3418,-3.3418,-3.3418,-3.3418,-3.3105,-3.2402,-3.1973,-3.1504,-3.0996,-3.0918,-3.0898,-3.0898,-3.0898,-3.0898,-3.0898,-3.0898,-3.0898,-3.0898,0.0,0.0,-2.9668,-2.9646,-2.9101,-2.8398,-2.832,-2.8301,-2.8301,-2.8301,-2.8301,-2.8301,-2.8301,-2.8301,-2.8164,-2.7383,-2.707,-2.6875,-2.6044,-2.5752,-2.5693,-2.5693,-2.5693,-2.5693,-2.5693,-2.5693,-2.5693,-2.5693,-2.5635,-2.541,-2.459,-2.3809,-2.3179,-2.3101,-2.3343,-2.3517,-2.3343,-2.3604,-2.3874,-2.4137,-2.3799,-2.3615,-2.3782,-2.3451,-2.343,-2.4101,-2.3127,-2.2963,-2.4249,-2.28,-2.2162,-2.2951,-2.2362,-2.2063,-2.219,-2.1978,-2.2236,-2.2991,-2.269,-2.2901,-2.3673,-2.3577,-2.3529,-2.3529,-2.3529,-2.3288,-3.6424,-3.6126,-3.5706,-3.5706,-3.4423,-3.2835,-3.1466,-3.0247,-2.903,-2.7622,-2.6694,-2.6044,-2.5657,-2.6616,-2.7715,-2.8398,-3.0,-3.1797,-3.3769,-3.4238,-3.4453,-3.4668,-3.4707,-3.4453,-3.3828,-3.3555,-3.3418,-3.3418,-3.3418,-3.3418,-3.3418,-3.3223,-3.2812,-3.2248,-3.1738,-3.1328,-3.0898,-3.0898,-3.0898,-3.0898,-3.0898,-3.0898,-3.0898,-3.0898,-3.0898,-3.0898,0.0,0.0,-2.9626,-2.9626,-2.9062,-2.8301,-2.8301,-2.8301,-2.8301,-2.8301,-2.8301,-2.8301,-2.8301,-2.8301,-2.8144,-2.7285,-2.7012,-2.6894,-2.6269,-2.5869,-2.5693,-2.5693,-2.5693,-2.5693,-2.5693,-2.5693,-2.5693,-2.5693,-2.5343,-2.4894,-2.4512,-2.3705,-2.3101,-2.3101,-2.3101,-2.3101,-2.3101,-2.3517,-2.3869,-2.4071,-2.3743,-2.3451,-2.339,-2.2613,-2.2446,-2.3423,-2.2592,-2.2461,-2.3621,-2.2786,-2.2488,-2.3172,-2.2567,-2.2329,-2.263,-2.2092,-2.2118,-2.2794,-2.2659,-2.2913,-2.3602,-2.3738,-2.3794,-2.3794,-2.3394,-2.3252,-3.6804,-3.6612,-3.6357,-3.6044,-3.4593,-3.2731,-3.0817,-2.9527,-2.8253,-2.6561,-2.5752,-2.5192,-2.4741,-2.5637,-2.6537,-2.6965,-2.8301,-3.0078,-3.2344,-3.3027,-3.3594,-3.4473,-3.457,-3.4394,-3.3984,-3.3633,-3.3418,-3.3418,-3.3418,0.0,-3.3301,-3.2891,-3.2461,-3.2051,-3.1601,-3.123,-3.0898,-3.0898,-3.0898,-3.0898,-3.0898,-3.0898,-3.0898,-3.0898,-3.0898,-3.0898,0.0,0.0,0.0,-2.9626,-2.9062,-2.8301,-2.8301,-2.8301,-2.8301,-2.8301,-2.8301,-2.8301,-2.8301,-2.8301,-2.8144,-2.7285,-2.7012,-2.6914,-2.6406,-2.6016,-2.5693,-2.5693,-2.5693,-2.5693,-2.5693,-2.5693,-2.5693,-2.5693,-2.5011,-2.4414,-2.4414,-2.3705,-2.3101,-2.3101,-2.3101,-2.3101,-2.3101,-2.3691,-2.4188,-2.4188,-2.382,-2.337,-2.2961,-2.205,-2.1707,-2.2402,-2.1907,-2.1945,-2.292,-2.2697,-2.2665,-2.3137,-2.2752,-2.2638,-2.29,-2.2256,-2.215,-2.2765,-2.2707,-2.297,-2.3557,-2.3949,-2.4131,-2.4097,-2.3327,-2.3223,-3.6804,-3.6804,-3.647,-3.5311,-3.4309,-3.2885,-3.0414,-2.9172,-2.8076,-2.65,-2.5649,-2.5143,-2.5128,-2.5338,-2.5827,-2.6816,-2.7793,-2.9297,-3.1875,-3.2598,-3.3164,-3.4023,-3.4141,-3.3965,-3.3516,-3.3437,-3.3418,-3.3418,0.0,0.0,-3.2871,-3.2461,-3.2031,-3.1582,-3.1172,-3.0937,-3.0898,-3.0898,-3.0898,-3.0898,-3.0898,-3.0898,-3.0898,-3.0898,-3.0898,-3.0898,0.0,0.0,0.0,-2.9626,-2.9062,-2.8301,-2.8301,-2.8301,-2.8301,-2.8301,-2.8301,-2.8301,-2.8301,-2.8301,-2.8144,-2.7285,-2.7012,-2.6855,-2.6005,-2.5713,-2.5693,-2.5693,-2.5693,-2.5693,-2.5693,-2.5693,-2.5693,-2.5693,-2.5011,-2.4414,-2.4414,-2.3705,-2.3101,-2.3101,-2.3101,-2.3101,-2.3101,-2.3169,-2.3232,-2.3232,-2.2859,-2.249,-2.2058,-2.2171,-2.1903,-2.0916,-2.076,-2.1318,-2.2883,-2.1642,-2.1229,-2.2244,-2.2265,-2.2342,-2.2627,-2.2345,-2.2519,-2.3328,-2.3081,-2.3326,-2.4039,-2.4791,-2.518,-2.512,-2.4352,-2.3777,-3.6246,-3.639,-3.6162,-3.5397,-3.4346,-3.2946,-3.0806,-2.9125,-2.7557,-2.6145,-2.5002,-2.4319,-2.4339,-2.4501,-2.4954,-2.5858,-2.6231,-2.7168,-2.9512,-3.043,-3.1367,-3.2754,-3.3379,-3.3711,-3.3809,-3.3574,-3.3418,-3.3418,0.0,0.0,-3.2461,-3.2266,-3.1973,-3.1523,-3.1113,-3.0898,-3.0898,-3.0898,-3.0898,-3.0898,-3.0898,-3.0898,-3.0898,-3.0898,-3.0898,-3.0898,0.0,0.0,0.0,-2.9626,-2.9062,-2.8301,-2.8301,-2.8301,-2.8301,-2.8301,-2.8301,-2.8301,-2.8301,-2.8301,-2.8144,-2.7285,-2.7012,-2.6855,-2.5947,-2.5693,-2.5693,-2.5693,-2.5693,-2.5693,-2.5693,-2.5693,-2.5693,-2.5693,-2.5011,-2.4414,-2.4414,-2.3705,-2.3101,-2.3101,-2.3101,-2.3101,-2.3101,-2.3101,-2.3101,-2.3101,-2.2945,-2.2734,-2.2324,-2.2164,-2.1809,-2.1055,-2.1171,-2.1395,-2.1527,-2.0972,-2.0989,-2.1919,-2.1681,-2.1718,-2.2329,-2.2257,-2.2129,-2.1948,-2.2644,-2.3143,-2.3415,-2.4204,-2.4838,-2.5264,-2.4022,-2.3582,-3.5458,-3.5604,-3.5604,-3.5128,-3.4093,-3.2706,-3.0905,-2.9167,-2.7516,-2.609,-2.499,-2.4247,-2.3931,-2.4118,-2.4479,-2.4999,-2.5192,-2.5977,-2.8008,-2.8926,-2.998,-3.1601,-3.2422,-3.3027,-3.3457,-3.3457,-3.3418,-3.3418,0.0,0.0,0.0,-3.2051,-3.1777,-3.1348,-3.1055,-3.0898,-3.0898,-3.0898,-3.0898,-3.0898,-3.0898,-3.0898,-3.0898,-3.0898,-3.0898,-3.0879,0.0,0.0,0.0,-2.9434,-2.8945,-2.8301,-2.8301,-2.8301,-2.8301,-2.8301,-2.8301,-2.8301,-2.8301,-2.8301,-2.8144,-2.7285,-2.7012,-2.6855,-2.5947,-2.5693,-2.5693,-2.5693,-2.5693,-2.5693,-2.5693,-2.5693,-2.5693,-2.5693,-2.5156,-2.457,-2.4453,-2.3803,-2.3257,-2.312,-2.3101,-2.3101,-2.3101,-2.3101,-2.3101,-2.3101,-2.3101,-2.2945,-2.2559,-2.2456,-2.2144,-2.1289,-2.1685,-2.1614,-2.0683,-2.0605,-2.0818,-2.1433,-2.1316,-2.1502,-2.2054,-2.231,-2.2054,-2.1242,-2.2413,-2.2883,-2.266,-2.3599,-2.4384,-2.4921,-2.3841,-2.3511,-3.4428,-3.4484,-3.4733,-3.4256,-3.341,-3.225,-3.0429,-2.927,-2.8115,-2.6539,-2.5793,-2.5209,-2.4252,-2.4485,-2.471,-2.448,-2.5109,-2.6278,-2.8047,-2.8652,-2.9414,-3.0742,-3.1269,-3.1699,-3.2148,-3.293,-3.3418,0.0,0.0,0.0,0.0,-3.1758,-3.1328,-3.0918,-3.0898,-3.0898,-3.0898,-3.0898,-3.0898,-3.0898,-3.0898,-3.0898,-3.0898,-3.0898,-3.0898,0.0,0.0,0.0,0.0,-2.9101,-2.8672,-2.8301,-2.8301,-2.8301,-2.8301,-2.8301,-2.8301,-2.8301,-2.8301,-2.8301,-2.8144,-2.7285,-2.7012,-2.6855,-2.5947,-2.5693,-2.5693,-2.5693,-2.5693,-2.5693,-2.5693,-2.5693,-2.5693,-2.5693,-2.5391,-2.4988,-2.4512,-2.4082,-2.3652,-2.3179,-2.3101,-2.3101,-2.3101,-2.3101,-2.3101,-2.3101,-2.3101,-2.2945,-2.2559,-2.3199,-2.3021,-2.1368,-2.1928,-2.1922,-2.0722,-2.0605,-2.0605,-2.0605,-2.1357,-2.1794,-2.1794,-2.2563,-2.2601,-2.1794,-2.2585,-2.2622,-2.1832,-2.3342,-2.4108,-2.4108,-2.4108,-2.3708,-3.3639,-3.357,-3.3182,-3.2416,-3.2023,-3.1402,-2.987,-2.8814,-2.7695,-2.6222,-2.5583,-2.5048,-2.4272,-2.4132,-2.4415,-2.5393,-2.5643,-2.623,-2.7656,-2.8984,-2.9941,-3.0371,-3.1836,-3.2871,-3.3008,0.0,-3.3301,0.0,0.0,0.0,0.0,-3.1601,-3.1328,-3.0898,-3.0898,-3.0898,-3.0898,-3.0898,-3.0898,-3.0898,-3.0898,-3.0898,-3.0898,-3.0898,0.0,0.0,0.0,0.0,0.0,-2.8984,-2.8672,-2.8301,-2.8301,-2.8301,-2.8301,-2.8301,-2.8301,-2.8301,-2.8301,-2.8301,-2.8144,-2.7285,-2.7012,-2.6855,-2.5947,-2.5693,-2.5693,-2.5693,-2.5693,-2.5693,-2.5693,-2.5693,-2.5693,-2.5693,-2.5391,-2.5086,-2.4883,-2.4297,-2.375,-2.3613,-2.334,-2.3101,-2.3101,-2.3101,-2.3101,-2.3101,-2.3101,-2.3042,-2.2906,-2.289,-2.2698,-2.2148,-2.1786,-2.1313,-2.0644,-2.0605,-2.0605,-2.0605,-2.0818,-2.0972,-2.0972,-2.1756,-2.1794,-2.1011,-2.1756,-2.2059,-2.1794,-2.2824,-2.3599,-2.4072,-2.3562,-2.2936,-3.2778,-3.2645,-3.2126,-3.1733,-3.1236,-3.0594,-2.9539,-2.8537,-2.7475,-2.633,-2.5759,-2.5259,-2.4349,-2.4251,-2.4565,-2.5307,-2.5604,-2.6191,-2.748,-2.8711,-2.9726,-3.0391,-3.1934,-3.3008,0.0,-3.332,0.0,0.0,0.0,0.0,0.0,-3.1367,-3.1152,-3.0898,-3.0898,-3.0898,-3.0898,-3.0898,-3.0898,-3.0898,-3.0898,-3.0801,-3.0625,-3.0625,0.0,0.0,0.0,0.0,0.0,-2.875,-2.8535,-2.8301,-2.8301,-2.8301,-2.8301,-2.8301,-2.8301,-2.8301,-2.8301,-2.8184,-2.7949,-2.7246,-2.6797,-2.6426,-2.5849,-2.5693,-2.5693,-2.5693,-2.5693,-2.5693,-2.5693,-2.5693,-2.5693,-2.5693,-2.5527,-2.5273,-2.5145,-2.4648,-2.418,-2.3848,-2.3574,-2.3296,-2.312,-2.3101,-2.3101,-2.3101,-2.3101,-2.3101,-2.3101,-2.2867,-2.2695,-2.2539,-2.1894,-2.1309,-2.0859,-2.0703,-2.0605,-2.0605,-2.0605,-2.0605,-2.0605,-2.1395,-2.1433,-2.0605,-2.1395,-2.1642,-2.1357,-2.2472,-2.3379,-2.4072,-2.3342,-2.2734,0.0,-3.1583,-3.1278,-3.1595,-3.0822,-2.9766,-2.9311,-2.8346,0.0,-2.6585,-2.6264,-2.5737,-2.4656,-2.4805,-2.4961,-2.4648,-2.5245,-2.6289,-2.7578,-2.8203,-2.9141,-3.082,-3.1758,-3.2422,-3.2793,-3.3184,0.0,0.0,0.0,0.0,0.0,-3.1094,-3.0898,-3.0898,-3.0898,-3.0898,-3.0898,-3.0898,-3.0898,-3.0898,-3.0898,-3.0644,-3.0195,-3.0195,0.0,0.0,0.0,0.0,0.0,-2.8457,-2.8301,-2.8301,-2.8301,-2.8301,-2.8301,-2.8301,-2.8301,-2.8281,-2.8262,-2.7988,-2.765,-2.7129,-2.6406,-2.5693,-2.5693,-2.5693,-2.5693,-2.5693,-2.5693,-2.5693,-2.5693,-2.5693,-2.5693,-2.5693,-2.5693,-2.5577,-2.5215,-2.5145,-2.4871,-2.4004,-2.3809,-2.3652,-2.3179,-2.3101,-2.3101,-2.3101,-2.3101,-2.3101,-2.3101,-2.3101,-2.2945,-2.2598,-2.2187,-2.1758,-2.1327,-2.0859,-2.0605,-2.0605,-2.0605,-2.0605,-2.0605,-2.1318,-2.1377,-2.0644,-2.1359,-2.1377,-2.0683,-2.2247,-2.3379,-2.4072,-2.3342,-2.2995,-3.0185,0.0,-2.9208,-2.8959,-2.8918,-2.8814,0.0,-2.7893,-2.726,-2.6202,-2.6064,-2.5884,-2.5067,-2.5047,-2.5352,-2.6269,-2.6582,-2.7168,-2.8437,-2.9863,-3.1152,-3.2226,-3.2812,-3.3164,-3.3262,-3.3359,0.0,0.0,0.0,0.0,0.0,-3.0937,-3.0898,-3.0898,-3.0898,-3.0898,-3.0898,-3.0898,-3.0898,-3.0898,-3.0898,-3.0644,-3.0195,-3.0195,0.0,0.0,0.0,0.0,0.0,-2.834,-2.8301,-2.8301,-2.8301,-2.8301,-2.8301,-2.8301,-2.8301,-2.8242,-2.793,-2.7806,-2.7591,-2.6777,-2.6172,-2.5693,-2.5693,-2.5693,-2.5693,-2.5693,-2.5693,-2.5693,-2.5693,-2.5693,-2.5693,-2.5693,-2.5693,-2.5654,-2.5605,-2.5312,-2.4902,-2.4375,-2.4004,-2.3652,-2.3179,-2.3101,-2.3101,-2.3101,-2.3101,-2.3101,-2.3101,-2.3101,-2.3062,-2.2964,-2.2617,-2.2324,-2.2227,-2.1191,-2.0605,-2.0605,-2.0605,-2.0605,-2.0605,-2.0799,-2.0957,-2.1074,-2.1233,-2.141,-2.151,-2.251,-2.3379,-2.4072,-2.3342,-2.2995,-2.9066,-2.887,-2.8876,-2.8628,-2.8587,-2.8433,-2.7881,-2.7275,-2.6479,-2.5531,-2.5496,-2.5464,-2.4891,-2.5098,-2.5605,-2.6309,-2.6934,-2.7832,-2.9297,-3.084,-3.1992,-3.2461,-3.3047,-3.3418,0.0,0.0,0.0,0.0,0.0,0.0,0.0,0.0,-3.0898,-3.0898,-3.0898,-3.0898,-3.0898,-3.0898,-3.0898,-3.0898,-3.0684,-3.0332,-2.9902,-2.9707,0.0,0.0,0.0,0.0,-2.8301,-2.8301,-2.8301,-2.8301,-2.8301,-2.8301,-2.8301,-2.8301,-2.8301,-2.8223,-2.7812,-2.7454,-2.6973,-2.6309,-2.5937,-2.5693,-2.5693,-2.5693,-2.5693,-2.5693,-2.5693,-2.5693,-2.5693,-2.5693,-2.5693,-2.5693,-2.5693,-2.5693,-2.5693,-2.5547,-2.5234,-2.4805,-2.4531,-2.4238,-2.3809,-2.3686,-2.3608,-2.3477,-2.3437,-2.3315,-2.312,-2.3101,-2.3101,-2.3101,-2.2711,-2.2519,-2.2519,-2.168,-2.1094,-2.0879,-2.0879,-2.0781,-2.0625,-2.0762,-2.1074,-2.1523,-2.1523,-2.151,-2.1526,-2.2318,-2.3026,-2.3585,-2.2988,-2.2929,-2.8291,-2.8513,-2.9095,-2.8888,-2.8661,-2.8301,-2.7582,-2.66,-2.5651,-2.5046,-2.5051,-2.5078,-2.4766,-2.5391,-2.5927,-2.6064,-2.7148,-2.8476,-2.998,-3.1328,-3.2229,-3.2229,-3.291,0.0,0.0,0.0,0.0,0.0,0.0,0.0,0.0,0.0,0.0,-3.0898,-3.0898,-3.0898,-3.0898,-3.0898,-3.0859,-3.0781,-3.0391,-2.9941,-2.9453,-2.9082,0.0,0.0,0.0,0.0,-2.8301,-2.8301,-2.8301,-2.8301,-2.8301,-2.8301,-2.8301,-2.8301,-2.8301,-2.8223,-2.7734,-2.7012,-2.623,-2.581,-2.5693,-2.5693,-2.5693,-2.5693,-2.5693,-2.5693,-2.5693,-2.5693,-2.5693,-2.5693,-2.5693,-2.5693,-2.5693,-2.5693,-2.5693,-2.5693,-2.5605,-2.5156,-2.5106,-2.4922,-2.4492,-2.4414,-2.4277,-2.3848,-2.3789,-2.3633,-2.314,-2.3101,-2.3101,-2.3101,-2.2812,-2.2617,-2.2617,-2.2285,-2.1894,-2.1424,-2.1327,-2.1152,-2.082,-2.1191,-2.1582,-2.1875,-2.1953,-2.1758,-2.1288,-2.2048,-2.2604,-2.301,-2.2587,-2.2814,-2.7785,-2.7875,-2.8114,-2.6969,-2.7242,-2.7562,-2.6843,-2.6332,-2.592,-2.5503,-2.5523,-2.5723,-2.6035,-2.6484,-2.7051,-2.7773,-2.8672,-2.9492,-3.0117,-3.1328,-3.2229,-3.2229,0.0,0.0,0.0,0.0,0.0,0.0,0.0,0.0,0.0,0.0,0.0,-3.0898,-3.0898,-3.0898,-3.0898,-3.0898,-3.0703,-3.0293,-3.0234,-2.9785,-2.9023,-2.8945,-2.8691,0.0,0.0,0.0,-2.8301,-2.8301,-2.8301,-2.8301,-2.8301,-2.8301,-2.8301,-2.8301,-2.8301,-2.8184,-2.7383,-2.6562,-2.5771,-2.5713,-2.5693,-2.5693,-2.5693,-2.5693,-2.5693,-2.5693,-2.5693,-2.5693,-2.5693,-2.5693,-2.5693,-2.5693,-2.5693,-2.5693,-2.5693,-2.5693,-2.5605,-2.5156,-2.5106,-2.4922,-2.4492,-2.4414,-2.4277,-2.3848,-2.3789,-2.3633,-2.314,-2.3101,-2.3101,-2.3101,-2.3042,-2.3003,-2.3003,-2.2945,-2.273,-2.2344,-2.1992,-2.1758,-2.168,-2.209,-2.2187,-2.1894,-2.2227,-2.2207,-2.1777,-2.219,-2.2625,-2.3056,-2.2604,-2.2687,-2.6689,-2.6825,-2.7321,-2.6526,-2.753,-2.843,-2.7252,-2.6904,-2.6557,-2.5759,-2.5879,-2.6152,-2.6348,-2.7109,-2.8066,-2.9141,-2.9648,-3.0059,-3.0508,-3.1484,-3.2229,0.0,0.0,0.0,0.0,0.0,0.0,0.0,0.0,0.0,0.0,0.0,0.0,0.0,-3.0898,-3.0898,-3.0898,-3.0644,-3.041,-3.0195,-2.9961,-2.9531,-2.8906,-2.8691,-2.8476,0.0,0.0,-2.8301,-2.8301,-2.8301,-2.8301,-2.8301,-2.8301,-2.8301,-2.8301,-2.8301,-2.8008,-2.7539,-2.7148,-2.6445,-2.5693,-2.5693,-2.5693,-2.5693,-2.5693,-2.5693,-2.5693,-2.5693,-2.5693,-2.5693,-2.5693,-2.5693,-2.5693,-2.5693,-2.5693,-2.5693,-2.5693,-2.5693,-2.5635,-2.5469,-2.543,-2.5371,-2.5109,-2.5089,-2.4902,-2.4238,-2.4121,-2.3887,-2.3179,-2.3101,-2.3101,-2.3101,-2.3101,-2.3101,-2.3101,-2.3101,-2.2925,-2.2539,-2.2109,-2.1992,-2.2227,-2.2402,-2.2539,-2.2559,-2.2711,-2.2637,-2.2227,-2.2385,-2.2676,-2.3082,-2.2676,-2.2797,-2.603,-2.6115,-2.6688,-2.6428,-2.7592,-2.864,-2.7784,-2.7357,-2.699,-2.6456,-2.6602,-2.6836,-2.6836,-2.7793,-2.8945,-3.0019,-3.0293,-3.0488,-3.084,-3.1543,-3.2012,-3.2012,0.0,0.0,0.0,0.0,0.0,0.0,0.0,0.0,0.0,0.0,0.0,0.0,-3.0898,-3.0898,-3.0898,-3.043,-3.0137,-3.0039,-2.9629,-2.9199,-2.8769,-2.8437,-2.8301,-2.8301,-2.8301,-2.8301,-2.8301,-2.8301,-2.8301,-2.8301,-2.8301,-2.8301,-2.8301,-2.8301,-2.7754,-2.7012,-2.7012,-2.6445,-2.5693,-2.5693,-2.5693,-2.5693,-2.5693,-2.5693,-2.5693,-2.5693,-2.5693,-2.5693,-2.5693,-2.5693,-2.5693,-2.5693,-2.5693,-2.5693,-2.5693,-2.5693,-2.5693,-2.5693,-2.5693,-2.5693,-2.5693,-2.5693,-2.5421,-2.4687,-2.4473,-2.4095,-2.3354,-2.3159,-2.3101,-2.3101,-2.3101,-2.3101,-2.3101,-2.3101,-2.2964,-2.2676,-2.2266,-2.2227,-2.2594,-2.2656,-2.2812,-2.3081,-2.3101,-2.2945,-2.2656,-2.2559,-2.272,-2.3063,-2.2698,-2.2899,-2.6606,-2.6263,-2.638,-2.6187,-2.6258,-2.6675,-2.7957,-2.7337,-2.6789,-2.7871,-2.8144,-2.8144,-2.8144,-2.8887,-2.9629,-3.0117,-3.0566,-3.0859,-3.0879,0.0,-3.1562,0.0,0.0,0.0,0.0,0.0,0.0,0.0,0.0,0.0,0.0,0.0,0.0,0.0,0.0,-3.0898,-3.0898,-3.043,-3.0,-2.9665,-2.918,-2.875,-2.834,-2.8301,-2.8301,-2.8301,-2.8301,-2.8301,-2.8301,-2.8301,-2.8301,-2.8301,-2.8301,-2.8301,-2.8301,-2.8301,-2.7754,-2.7012,-2.7012,-2.6445,-2.5693,-2.5693,-2.5693,-2.5693,-2.5693,-2.5693,-2.5693,-2.5693,-2.5693,-2.5693,-2.5693,-2.5693,-2.5693,-2.5693,-2.5693,-2.5693,-2.5693,-2.5693,-2.5693,-2.5693,-2.5693,-2.5693,-2.5693,-2.5693,-2.5518,-2.5145,-2.4668,-2.4258,-2.3809,-2.3379,-2.3101,-2.3101,-2.3101,-2.3101,-2.3101,-2.3101,-2.3081,-2.3042,-2.2695,-2.2656,-2.3042,-2.3042,-2.3062,-2.3101,-2.3101,-2.3081,-2.3042,-2.2695,-2.2695,-2.3071,-2.2676,-2.2715,-2.5936,-2.5716,-2.6119,-2.6388,-2.6379,-2.6595,-2.7689,-2.8198,-2.8516,-2.8984,-2.9082,-2.9082,-2.9082,-2.957,-3.0019,-3.0176,-3.0586,-3.0898,-3.0898,-3.125,0.0,0.0,0.0,0.0,0.0,0.0,0.0,0.0,0.0,0.0,0.0,0.0,0.0,0.0,0.0,-3.0078,-3.0078,-2.9629,-2.9316,-2.916,-2.9004,-2.8691,-2.8301,-2.8301,-2.8301,-2.8301,-2.8301,-2.8301,-2.8301,-2.8301,-2.8301,-2.8301,-2.8301,-2.8301,-2.8301,-2.8301,-2.7754,-2.7012,-2.7012,-2.6445,-2.5693,-2.5693,-2.5693,-2.5693,-2.5693,-2.5693,-2.5693,-2.5693,-2.5693,-2.5693,-2.5693,-2.5693,-2.5693,-2.5693,-2.5693,-2.5693,-2.5693,-2.5693,-2.5693,-2.5693,-2.5693,-2.5693,-2.5693,-2.5693,-2.5538,-2.5184,-2.4969,-2.457,-2.3887,-2.3652,-2.3437,-2.312,-2.3101,-2.3101,-2.3101,-2.3101,-2.3101,-2.3101,-2.2945,-2.2925,-2.3081,-2.3101,-2.3101,-2.3101,-2.3101,-2.3101,-2.3101,-2.2945,-2.2945,-2.3081,-2.2925,-2.2945,-2.5505,-2.5315,-2.5784,-2.6112,-2.6536,-2.6973,-2.7695,-2.8535,-2.9316,-2.9883,-2.9766,-2.9665,-2.9746,-2.9902,-3.0039,-3.0176,-3.0586,-3.0898,-3.0898,0.0,0.0,0.0,0.0,0.0,0.0,0.0,0.0,0.0,0.0,0.0,0.0,0.0,0.0,0.0,0.0,0.0,-2.9626,-2.9141,-2.8926,-2.8926,-2.8789,-2.8574,-2.8301,-2.8301,-2.8301,-2.8301,-2.8301,-2.8301,-2.8301,-2.8301,-2.8301,-2.8281,-2.8144,-2.8184,-2.8281,-2.8144,-2.7637,-2.7012,-2.7012,-2.6445,-2.5693,-2.5693,-2.5693,-2.5693,-2.5693,-2.5693,-2.5693,-2.5693,-2.5693,-2.5693,-2.5693,-2.5693,-2.5693,-2.5693,-2.5693,-2.5693,-2.5693,-2.5693,-2.5693,-2.5693,-2.5693,-2.5693,-2.5693,-2.5693,-2.5625,-2.5332,-2.5156,-2.4863,-2.4277,-2.4082,-2.3828,-2.3354,-2.3296,-2.3237,-2.3101,-2.3101,-2.3101,-2.3101,-2.3101,-2.3101,-2.3101,-2.3101,-2.3101,-2.3101,-2.3101,-2.3101,-2.3101,-2.3101,-2.3101,-2.3101,-2.3101,-2.3101,-2.5635,-2.5305,-2.5342,-2.5173,-2.6436,-2.7845,-2.8223,-2.832,-2.8809,-3.0527,-3.0195,-2.9707,-3.0117,-2.9863,-2.9726,-3.0137,-3.0586,-3.0898,-3.0898,0.0,0.0,0.0,0.0,0.0,0.0,0.0,0.0,0.0,0.0,0.0,0.0,0.0,0.0,0.0,0.0,0.0,-2.9607,-2.9121,-2.8906,-2.8906,-2.8496,-2.8301,-2.8301,-2.8301,-2.8301,-2.8301,-2.8301,-2.8301,-2.8301,-2.8301,-2.8301,-2.8262,-2.7832,-2.793,-2.8242,-2.7832,-2.7402,-2.7012,-2.7012,-2.6445,-2.5693,-2.5693,-2.5693,-2.5693,-2.5693,-2.5693,-2.5693,-2.5693,-2.5693,-2.5693,-2.5693,-2.5693,-2.5693,-2.5693,-2.5693,-2.5693,-2.5693,-2.5693,-2.5693,-2.5693,-2.5693,-2.5693,-2.5693,-2.5693,-2.5693,-2.5693,-2.5352,-2.5125,-2.5106,-2.4687,-2.4258,-2.3848,-2.3789,-2.3613,-2.314,-2.3101,-2.3101,-2.3101,-2.3101,-2.3101,-2.3101,-2.3101,-2.3101,-2.3101,-2.3101,-2.3101,-2.3101,-2.3101,-2.3101,-2.3101,-2.3101,-2.3101,-2.5716,-2.5537,-2.6116,-2.6211,-2.7388,-2.875,-2.9473,-2.9629,-2.9883,-3.0723,-3.0684,-3.043,-3.0234,-3.0351,-3.043,-3.0234,-3.0586,-3.0898,0.0,0.0,0.0,0.0,0.0,0.0,0.0,0.0,0.0,0.0,0.0,0.0,0.0,0.0,0.0,0.0,0.0,0.0,-2.8672,-2.8555,-2.8476,-2.8476,-2.8359,-2.8301,-2.8301,-2.8301,-2.8301,-2.8301,-2.8301,-2.8301,-2.8301,-2.8301,-2.8301,-2.8281,-2.8164,-2.8184,-2.8281,-2.8144,-2.7637,-2.7012,-2.7012,-2.6445,-2.5693,-2.5693,-2.5693,-2.5693,-2.5693,-2.5693,-2.5693,-2.5693,-2.5693,-2.5693,-2.5693,-2.5693,-2.5693,-2.5693,-2.5693,-2.5693,-2.5693,-2.5693,-2.5693,-2.5693,-2.5693,-2.5693,-2.5693,-2.5693,-2.5693,-2.5693,-2.5577,-2.543,-2.5165,-2.4687,-2.4375,-2.4238,-2.4238,-2.4062,-2.3633,-2.3594,-2.3457,-2.312,-2.3101,-2.3101,-2.3101,-2.3101,-2.3101,-2.3101,-2.3101,-2.3101,-2.3101,-2.3101,-2.3101,-2.3101,-2.3101,-2.3101,-2.6061,-2.6061,-2.6694,-2.7188,-2.8133,-2.9199,-3.0234,-3.0469,-3.0547,-3.084,-3.0742,-3.0586,-3.0488,-3.0547,-3.0586,-3.0488,-3.0703,0.0,0.0,0.0,0.0,0.0,0.0,0.0,0.0,0.0,0.0,0.0,0.0,0.0,0.0,0.0,0.0,0.0,0.0,0.0,-2.8301,-2.8301,-2.8301,-2.8301,-2.8301,-2.8301,-2.8301,-2.8301,-2.8301,-2.8301,-2.8301,-2.8301,-2.8301,-2.8301,-2.8301,-2.8281,-2.8105,-2.8047,-2.8047,-2.8047,-2.7598,-2.7012,-2.7012,-2.6562,-2.5977,-2.5752,-2.5693,-2.5693,-2.5693,-2.5693,-2.5693,-2.5693,-2.5693,-2.5693,-2.5693,-2.5693,-2.5693,-2.5693,-2.5693,-2.5693,-2.5693,-2.5693,-2.5693,-2.5693,-2.5693,-2.5693,-2.5693,-2.5693,-2.5693,-2.5693,-2.5693,-2.5596,-2.5371,-2.5098,-2.4883,-2.4687,-2.4668,-2.4512,-2.4082,-2.3887,-2.3672,-2.3418,-2.3198,-2.3101,-2.3101,-2.3101,-2.3101,-2.3101,-2.3101,-2.3101,-2.3101,-2.3101,-2.3101,-2.3101,-2.3101,-2.3101,-2.6566,-2.6709,-2.7122,-2.8088,-2.8726,-2.9414,-3.0625,-3.0898,-3.0898,-3.0898,-3.0547,-3.0391,-3.082,-3.0547,-3.0391,-3.082,-3.0898,0.0,0.0,0.0,0.0,0.0,0.0,0.0,0.0,0.0,0.0,0.0,0.0,0.0,0.0,0.0,0.0,0.0,0.0,0.0,-2.8301,-2.8301,-2.8301,0.0,-2.8301,-2.8301,-2.8301,-2.8301,-2.8301,-2.8301,-2.8301,-2.8301,-2.8301,-2.8301,-2.8262,-2.8203,-2.7812,-2.7689,-2.7669,-2.7669,-2.7324,-2.6953,-2.6953,-2.668,-2.6269,-2.581,-2.5693,-2.5693,-2.5693,-2.5693,-2.5693,-2.5693,-2.5693,-2.5693,-2.5693,-2.5693,-2.5693,-2.5693,-2.5693,-2.5693,-2.5693,-2.5693,-2.5693,-2.5693,-2.5693,-2.5693,-2.5693,-2.5693,-2.5693,-2.5693,-2.5693,-2.5693,-2.5693,-2.5693,-2.5586,-2.5176,-2.5137,-2.4961,-2.4512,-2.4121,-2.3867,-2.3789,-2.3418,-2.314,-2.3101,-2.3101,-2.3101,-2.3101,-2.3101,-2.3101,-2.3101,-2.3101,-2.3101,-2.3101,-2.3101,-2.312,-2.6845,-2.6993,-2.7652,-2.8209,-2.9415,-3.0547,-3.082,-3.0898,-3.0898,-3.0898,-3.082,-3.0762,-3.0879,-3.082,-3.0781,-3.0879,0.0,0.0,0.0,0.0,0.0,0.0,0.0,0.0,0.0,0.0,0.0,0.0,0.0,0.0,0.0,0.0,0.0,0.0,0.0,-2.8301,-2.8301,-2.8301,-2.8301,0.0,-2.8301,-2.8301,-2.8301,-2.8301,-2.8301,-2.8301,-2.8301,-2.8301,-2.8301,-2.8301,-2.8105,-2.7845,-2.7748,-2.7461,-2.7148,-2.7148,-2.6894,-2.6523,-2.6523,-2.623,-2.581,-2.5713,-2.5693,-2.5693,-2.5693,-2.5693,-2.5693,-2.5693,-2.5693,-2.5693,-2.5693,-2.5693,-2.5693,-2.5693,-2.5693,-2.5693,-2.5693,-2.5693,-2.5693,-2.5693,-2.5693,-2.5693,-2.5693,-2.5693,-2.5693,-2.5693,-2.5693,-2.5693,-2.5693,-2.5693,-2.5654,-2.5605,-2.5586,-2.541,-2.4961,-2.4891,-2.4558,-2.3828,-2.3711,-2.3496,-2.3101,-2.3101,-2.3101,-2.3101,-2.3101,-2.3101,-2.3101,-2.3101,-2.3101,-2.3101,-2.3101,-2.3276,-2.6815,-2.727,-2.8116,-2.896,-3.0027,-3.084,-3.0605,-3.0723,-3.0898,-3.0898,-3.0898,-3.0898,-3.0898,-3.0898,-3.0898,0.0,0.0,0.0,0.0,0.0,0.0,0.0,0.0,0.0,0.0,0.0,0.0,0.0,0.0,0.0,0.0,0.0,0.0,0.0,-2.8398,-2.8301,-2.8301,-2.8301,-2.8301,-2.8301,-2.8301,-2.8301,-2.8301,-2.8301,-2.8301,-2.8301,-2.8301,-2.8301,-2.8301,-2.8301,-2.8164,-2.7949,-2.7806,-2.7402,-2.7012,-2.7012,-2.6758,-2.6387,-2.6387,-2.625,-2.6016,-2.5752,-2.5693,-2.5693,-2.5693,-2.5693,-2.5693,-2.5693,-2.5693,-2.5693,-2.5693,-2.5693,-2.5693,-2.5693,-2.5693,-2.5693,-2.5693,-2.5693,-2.5693,-2.5693,-2.5693,-2.5693,-2.5693,-2.5693,-2.5693,-2.5693,-2.5693,-2.5693,-2.5693,-2.5693,-2.5693,-2.5693,-2.5693,-2.5644,-2.541,-2.5195,-2.493,-2.4434,-2.4199,-2.3984,-2.3705,-2.3555,-2.3315,-2.3101,-2.3101,-2.3101,-2.3101,-2.334,-2.3457,-2.3457,-2.3608,-2.3867,-2.6623,-2.7421,-2.8543,-2.9789,-3.0522,-3.0839,-3.041,-3.0605,-3.0898,-3.0898,-3.0898,-3.0898,-3.0898,-3.0898,-3.0898,0.0,0.0,0.0,0.0,0.0,0.0,0.0,0.0,0.0,0.0,0.0,0.0,0.0,0.0,0.0,0.0,0.0,-2.9219,-2.8418,-2.834,-2.8301,-2.8301,-2.8301,-2.8301,-2.8301,-2.8301,-2.8301,-2.8301,-2.8301,-2.8301,-2.8301,-2.8301,-2.8301,-2.8301,-2.8301,-2.8203,-2.8027,-2.7695,-2.7246,-2.6797,-2.6797,-2.6562,-2.6269,-2.6269,-2.6269,-2.6211,-2.581,-2.5693,-2.5693,-2.5693,-2.5693,-2.5693,-2.5693,-2.5693,-2.5693,-2.5693,-2.5693,-2.5693,-2.5693,-2.5693,-2.5693,-2.5693,-2.5693,-2.5693,-2.5693,-2.5693,-2.5693,-2.5693,-2.5693,-2.5693,-2.5693,-2.5693,-2.5693,-2.5693,-2.5693,-2.5693,-2.5693,-2.5693,-2.5693,-2.5693,-2.5391,-2.5156,-2.5125,-2.4727,-2.4492,-2.4414,-2.4082,-2.373,-2.3315,-2.3179,-2.3101,-2.3101,-2.3574,-2.3789,-2.3809,-2.4219,-2.4453,-2.6332,-2.7262,-2.8553,-3.0111,-3.091,-3.115,-3.0859,-3.084,-3.0898,-3.0898,-3.0898,-3.0898,-3.0898,-3.0898,0.0,0.0,0.0,0.0,0.0,0.0,0.0,0.0,0.0,0.0,0.0,0.0,0.0,0.0,0.0,0.0,0.0,-2.9766,-2.9355,-2.8848,-2.8476,-2.8301,-2.8301,-2.8301,-2.8301,-2.8301,-2.8301,-2.8301,-2.8301,-2.8301,-2.8301,-2.8301,-2.8301,-2.8301,-2.8301,-2.8301,-2.7851,-2.7187,-2.7129,-2.6621,-2.5849,-2.5849,-2.583,-2.5771,-2.5771,-2.5771,-2.5771,-2.5713,-2.5693,-2.5693,-2.5693,-2.5693,-2.5693,-2.5693,-2.5693,-2.5693,-2.5693,-2.5693,-2.5693,-2.5693,-2.5693,-2.5693,-2.5693,-2.5693,-2.5693,-2.5693,-2.5693,-2.5693,-2.5693,-2.5693,-2.5693,-2.5693,-2.5693,-2.5693,-2.5693,-2.5693,-2.5693,-2.5693,-2.5693,-2.5693,-2.5693,-2.5635,-2.5488,-2.5145,-2.5067,-2.4805,-2.4434,-2.4355,-2.4316,-2.4258,-2.3471,-2.3101,-2.3101,-2.3574,-2.3789,-2.3809,-2.4219,-2.4609,-2.6299,-2.7327,-2.8554,-2.9991,-3.0498,-3.0613,-3.0756,-3.0839,-3.0898,-3.0898,-3.0898,-3.0898,-3.0898,-3.0898,0.0,0.0,0.0,0.0,0.0,0.0,0.0,0.0,0.0,0.0,0.0,0.0,0.0,0.0,0.0,0.0,-2.9512,-2.9297,-2.9004,-2.8574,-2.8398,0.0,-2.8301,-2.8301,-2.8301,-2.8301,-2.8301,-2.8301,-2.8301,-2.8301,-2.8301,-2.8301,-2.8301,-2.8301,-2.8301,-2.8301,-2.793,-2.7363,-2.7109,-2.6641,-2.6074,-2.5771,-2.5693,-2.5693,-2.5693,-2.5693,-2.5693,-2.5693,-2.5693,-2.5693,-2.5693,-2.5693,-2.5693,-2.5693,-2.5693,-2.5752,-2.6035,-2.6094,-2.6152,-2.6387,-2.6445,-2.6387,-2.6152,-2.5918,-2.5693,-2.5693,-2.5693,-2.5693,-2.5693,-2.5693,-2.5693,-2.5693,-2.5693,-2.5693,-2.5693,-2.5693,-2.5693,-2.5693,-2.5693,-2.5693,-2.5693,-2.5693,-2.5596,-2.5449,-2.5449,-2.5352,-2.5109,-2.4922,-2.4785,-2.4785,-2.418,-2.3803,-2.3803,-2.4297,-2.4558,-2.4558,-2.4961,-2.5254,-2.5755,-2.6831,-2.7909,-2.9207,-2.985,-3.0282,-3.0509,-3.0776,-3.0995,-3.0898,-3.0898,-3.0898,-3.0898,0.0,0.0,0.0,0.0,0.0,0.0,0.0,0.0,0.0,0.0,0.0,0.0,0.0,0.0,0.0,0.0,0.0,-2.8965,-2.8926,-2.873,-2.8301,-2.8301,-2.8301,-2.8301,-2.8301,-2.8301,-2.8301,-2.8301,-2.8301,-2.8301,-2.8301,-2.8301,-2.8301,-2.8301,-2.8301,-2.8301,-2.8301,-2.8047,-2.7669,-2.7187,-2.6758,-2.6328,-2.5849,-2.5693,-2.5693,-2.5693,-2.5693,-2.5693,-2.5693,-2.5771,-2.5879,-2.5732,-2.5771,-2.583,-2.5713,-2.5771,-2.5977,-2.6309,-2.6465,-2.6621,-2.6934,-2.7012,-2.6894,-2.6484,-2.6055,-2.5693,-2.5693,-2.5693,-2.5693,-2.5693,-2.5693,-2.5693,-2.5693,-2.5693,-2.5693,-2.5693,-2.5693,-2.5693,-2.5693,-2.5693,-2.5693,-2.5693,-2.5693,-2.5693,-2.5693,-2.5693,-2.5693,-2.5693,-2.541,-2.5234,-2.5234,-2.4922,-2.4648,-2.4414,-2.4863,-2.5106,-2.5125,-2.5527,-2.5693,-2.4346,-2.5316,-2.6259,-2.7349,-2.9257,-3.0736,-3.0167,-3.0673,-3.1228,-3.0937,-3.0898,-3.0898,-3.0898,0.0,0.0,0.0,0.0,0.0,0.0,0.0,0.0,0.0,0.0,0.0,0.0,0.0,0.0,0.0,0.0,0.0,-2.8965,-2.8926,-2.873,-2.8301,-2.8301,-2.8301,-2.8301,-2.8301,-2.8301,-2.8301,-2.8301,-2.8301,-2.8301,-2.8301,-2.8301,-2.8301,-2.8301,-2.8301,-2.8301,-2.8301,-2.8047,-2.7669,-2.7187,-2.6758,-2.6328,-2.5849,-2.5693,-2.5693,-2.5693,-2.5693,-2.5693,-2.5693,-2.6016,-2.6269,-2.581,-2.6035,-2.6269,-2.581,-2.6035,-2.6367,-2.6387,-2.668,-2.6992,-2.7012,-2.7012,-2.6894,-2.6484,-2.6055,-2.5693,-2.5693,-2.5693,-2.5693,-2.5693,-2.5693,-2.5693,-2.5693,-2.5693,-2.5693,-2.5693,-2.5693,-2.5693,-2.5693,-2.5693,-2.5693,-2.5693,-2.5693,-2.5693,-2.5693,-2.5693,-2.5693,-2.5693,-2.5674,-2.5654,-2.5654,-2.5635,-2.5206,-2.4414,-2.4863,-2.5106,-2.5125,-2.5527,-2.5693,-2.3841,-2.4343,-2.5313,-2.6584,-2.8041,-2.9359,-2.9964,-3.0906,-3.1556,-3.1228,-3.117,-3.1014,-3.0565,0.0,0.0,0.0,0.0,0.0,0.0,0.0,0.0,0.0,0.0,0.0,0.0,0.0,0.0,0.0,0.0,0.0,-2.8945,-2.8672,-2.8437,-2.8301,-2.8301,-2.8301,-2.8301,-2.8301,-2.8301,-2.8301,-2.8301,-2.8301,-2.8301,-2.8301,-2.8301,-2.8301,-2.8301,-2.8301,-2.8301,-2.8301,-2.8047,-2.7669,-2.7187,-2.6758,-2.6328,-2.5849,-2.5693,-2.5693,-2.5693,-2.5693,-2.5693,-2.5693,-2.6035,-2.6367,-2.6211,-2.6445,-2.6758,-2.6602,-2.668,-2.6855,-2.7129,-2.7324,-2.75,-2.7773,-2.7637,-2.7383,-2.7297,-2.666,-2.6152,-2.6152,-2.5937,-2.5693,-2.5693,-2.5693,-2.5693,-2.5693,-2.5693,-2.5693,-2.5693,-2.5693,-2.5693,-2.5693,-2.5693,-2.5693,-2.5693,-2.5693,-2.5693,-2.5693,-2.5693,-2.5693,-2.5693,-2.5693,-2.5693,-2.5693,-2.5693,-2.5538,-2.5226,-2.541,-2.5508,-2.5508,-2.5615,-2.5693,-2.3106,-2.3515,-2.4571,-2.5627,-2.6789,-2.8041,-2.9399,-3.0553,-3.1261,-3.1219,-3.1164,-3.097,0.0,0.0,0.0,0.0,0.0,0.0,0.0,0.0,0.0,0.0,0.0,0.0,0.0,0.0,0.0,0.0,0.0,0.0,-2.8945,-2.8652,-2.8437,-2.8301,-2.8301,-2.8301,-2.8301,-2.8301,-2.8301,-2.8301,-2.8301,-2.8301,-2.8301,-2.8301,-2.8301,-2.8301,-2.8301,-2.8301,-2.8301,-2.8301,-2.8125,-2.7812,-2.7246,-2.6934,-2.6738,-2.5996,-2.5791,-2.5937,-2.5732,-2.5693,-2.5693,-2.5693,-2.6133,-2.6562,-2.6426,-2.6777,-2.7207,-2.7051,-2.7129,-2.7305,-2.765,-2.7826,-2.7949,-2.8223,-2.8086,-2.7871,-2.7871,-2.7207,-2.6602,-2.6602,-2.6367,-2.6064,-2.5977,-2.5908,-2.5908,-2.5908,-2.5908,-2.5966,-2.6103,-2.6035,-2.5908,-2.5908,-2.5771,-2.5693,-2.5693,-2.5693,-2.5693,-2.5693,-2.5693,-2.5693,-2.5693,-2.5693,-2.5693,-2.5693,-2.5693,-2.5693,-2.5693,-2.5693,-2.5693,-2.5693,-2.5693,-2.5693,0.0,0.0,0.0,-2.4342,-2.5502,-2.6946,-2.839,-2.944,-3.0303,-3.0938,-3.0857,-3.065,0.0,0.0,0.0,0.0,0.0,0.0,0.0,0.0,0.0,0.0,0.0,0.0,0.0,0.0,0.0,0.0,0.0,-2.9824,-2.8984,-2.8906,-2.8711,-2.8301,-2.8301,-2.8301,-2.8301,-2.8301,-2.8301,-2.8301,-2.8301,-2.8301,-2.8301,-2.8301,-2.8301,-2.8301,-2.8301,-2.8301,-2.8301,-2.8301,-2.8301,-2.8203,-2.7363,-2.7285,-2.7552,-2.623,-2.6035,-2.6328,-2.5898,-2.5693,-2.5693,-2.5713,-2.6278,-2.6934,-2.6523,-2.7012,-2.7598,-2.7168,-2.7363,-2.7728,-2.7728,-2.7988,-2.8301,-2.8301,-2.8301,-2.8301,-2.8301,-2.7637,-2.7051,-2.7031,-2.7031,-2.6894,-2.6484,-2.6406,-2.6406,-2.6387,-2.6406,-2.6543,-2.6953,-2.6641,-2.6406,-2.6387,-2.6016,-2.5693,-2.5693,-2.5693,-2.5693,-2.5693,-2.5693,-2.5693,-2.5693,-2.5693,-2.5693,-2.5693,-2.5693,-2.5693,-2.5693,-2.5693,-2.5693,-2.5693,-2.5693,-2.5693,-2.2652,0.0,0.0,0.0,0.0,0.0,0.0,-2.7455,-2.8551,-3.012,-3.0133,-2.9997,0.0,0.0,0.0,0.0,0.0,0.0,0.0,0.0,0.0,0.0,0.0,0.0,0.0,0.0,0.0,0.0,-3.0391,-2.9961,-2.9414,-2.8809,-2.8418,-2.8301,-2.8301,-2.8301,-2.8301,-2.8301,-2.8301,-2.8301,-2.8301,-2.8301,-2.8301,-2.8301,-2.8301,-2.8301,-2.8301,-2.8301,-2.8301,-2.8301,-2.8301,-2.8242,-2.7695,-2.7611,-2.7611,-2.6562,-2.6289,-2.6367,-2.625,-2.5996,-2.5752,-2.6113,-2.6582,-2.6992,-2.6875,-2.7441,-2.8086,-2.7969,-2.8027,-2.8125,-2.8125,-2.8203,-2.8301,-2.8301,-2.8301,-2.8301,-2.8301,-2.8105,-2.7851,-2.7539,-2.7226,-2.6973,-2.6855,-2.6836,-2.6738,-2.6426,-2.6641,-2.6777,-2.6582,-2.6719,-2.6719,-2.6426,-2.6289,-2.6074,-2.5713,-2.5693,-2.5693,-2.5693,-2.5693,-2.5693,-2.5693,-2.5693,-2.5693,-2.5693,-2.5693,-2.5693,-2.5693,-2.5693,-2.5693,-2.5693,-2.5693,-2.5693,-2.3175,-2.3122,-2.3474,-2.3474,0.0,0.0,-2.5834,-2.6625,-2.7614,0.0,-2.9811,-2.9754,0.0,0.0,0.0,0.0,0.0,0.0,0.0,0.0,0.0,0.0,0.0,0.0,0.0,0.0,0.0,0.0,-3.0449,-3.0019,-2.959,-2.8926,-2.8476,-2.8301,-2.8301,-2.8301,-2.8301,-2.8301,-2.8301,-2.8301,-2.8301,-2.8301,-2.8301,-2.8301,-2.8301,-2.8301,-2.8301,-2.8301,-2.8301,-2.8301,-2.8301,-2.8262,-2.7885,-2.7826,-2.7832,-2.6973,-2.6758,-2.6894,-2.6719,-2.6484,-2.6309,-2.6562,-2.6934,-2.7285,-2.7285,-2.7754,-2.8301,-2.8301,-2.8301,-2.8301,-2.8301,-2.8301,-2.8301,-2.8301,-2.8301,-2.8301,-2.8301,-2.8301,-2.8223,-2.7969,-2.7715,-2.75,-2.7324,-2.7285,-2.7207,-2.6953,-2.6973,-2.6992,-2.6934,-2.6816,-2.666,-2.6426,-2.623,-2.6016,-2.5713,-2.5693,-2.5693,-2.5693,-2.5693,-2.5693,-2.5693,-2.5693,-2.5693,-2.5693,-2.5693,-2.5693,-2.5693,-2.5693,-2.5693,-2.5693,-2.5693,-2.5693,-2.3824,-2.3722,-2.4012,-2.3971,-2.3639,0.0,-2.5796,-2.6273,-2.6936,0.0,-2.9363,-2.9341,0.0,0.0,0.0,0.0,0.0,0.0,0.0,0.0,0.0,0.0,0.0,0.0,0.0,0.0,-3.0469,-3.0918,-3.0488,-3.0019,-2.959,-2.916,-2.873,-2.8301,-2.8301,-2.8301,-2.8301,-2.8301,-2.8301,-2.8301,-2.8301,-2.8301,-2.8301,-2.8301,-2.8301,-2.8301,-2.8301,-2.8301,-2.8301,-2.8301,-2.8301,-2.8262,-2.7943,-2.7969,-2.8203,-2.7383,-2.7324,-2.7669,-2.7226,-2.7031,-2.6953,-2.7051,-2.7324,-2.765,-2.7708,-2.7969,-2.8301,-2.8301,-2.8301,-2.8301,-2.8301,-2.8301,-2.8301,-2.8301,-2.8301,-2.8301,-2.8301,-2.8301,-2.8301,-2.8301,-2.8301,-2.8184,-2.7865,-2.7787,-2.7767,-2.7728,-2.7324,-2.7207,-2.7611,-2.6934,-2.6445,-2.6387,-2.6035,-2.5752,-2.5693,-2.5693,-2.5693,-2.5693,-2.5693,-2.5693,-2.5693,-2.5693,-2.5693,-2.5693,-2.5693,-2.5693,-2.5693,-2.5693,-2.5693,-2.5693,-2.5693,-2.5693,-2.4925,-2.4902,-2.4881,-2.4466,-2.4301,0.0,-2.3908,-2.4178,-2.4883,0.0,-2.6682,-2.7016,0.0,0.0,0.0,0.0,0.0,0.0,0.0,0.0,0.0,0.0,0.0,0.0,0.0,0.0,-3.0937,-3.1367,-3.0644,-3.0019,-2.959,-2.916,-2.873,-2.8301,-2.8301,-2.8301,-2.8301,-2.8301,-2.8301,-2.8301,-2.8301,-2.8301,-2.8301,-2.8301,-2.8301,-2.8301,-2.8301,-2.8301,-2.8301,-2.8301,-2.8301,-2.8281,-2.8203,-2.8223,-2.8223,-2.7734,-2.7598,-2.7708,-2.763,-2.709,-2.6621,-2.7324,-2.7363,-2.7207,-2.7611,-2.7969,-2.8301,-2.8301,-2.8301,-2.8301,-2.8301,-2.8301,-2.8301,-2.8301,-2.8301,-2.8301,-2.8301,-2.8301,-2.8301,-2.8301,-2.8301,-2.8262,-2.8184,-2.8164,-2.8047,-2.7767,-2.7598,-2.7441,-2.7168,-2.6992,-2.6758,-2.6426,-2.6309,-2.6113,-2.5713,-2.5693,-2.5693,-2.5693,-2.5693,-2.5693,-2.5693,-2.5693,-2.5693,-2.5693,-2.5693,-2.5693,-2.5693,-2.5693,-2.5693,-2.5693,-2.5693,-2.5693,-2.5689,-2.5564,-2.544,-2.4962,0.0,0.0,0.0,-2.4033,-2.4385,-2.6231,-2.602,-2.6057,-2.7749,0.0,0.0,0.0,0.0,0.0,0.0,0.0,0.0,0.0,0.0,0.0,0.0,0.0,-3.0625,-3.084,-3.0664,-3.0254,-2.9609,-2.9355,-2.8945,-2.832,-2.8301,-2.8301,-2.8301,-2.8301,-2.8301,-2.8301,-2.8301,-2.8301,-2.8301,-2.8301,-2.8301,-2.8301,-2.8301,-2.8301,-2.8301,-2.8301,-2.8301,-2.8301,-2.8301,-2.8301,-2.8262,-2.8047,-2.7988,-2.7988,-2.7988,-2.7559,-2.709,-2.7571,-2.7363,-2.709,-2.7539,-2.7969,-2.8301,-2.8301,-2.8301,-2.8301,-2.8301,-2.8301,-2.8301,-2.8301,-2.8301,-2.8301,-2.8301,-2.8301,-2.8301,-2.8301,-2.8301,-2.8301,-2.8301,-2.8301,-2.8223,-2.8008,-2.7865,-2.75,-2.707,-2.6836,-2.6543,-2.6113,-2.6055,-2.5977,-2.5713,-2.5693,-2.5693,-2.5693,-2.5693,-2.5693,-2.5693,-2.5693,-2.5693,-2.5693,-2.5693,-2.5693,-2.5693,-2.5693,-2.5693,-2.5693,-2.5693,-2.5693,-2.6418,-2.6206,-2.6123,-2.5502,0.0,-2.5003,0.0,0.0,0.0,-2.6314,-2.5813,0.0,0.0,0.0,0.0,0.0,0.0,0.0,0.0,0.0,0.0,0.0,0.0,0.0,0.0,0.0,-3.0117,-3.0195,-3.0391,-3.0234,-2.9609,-2.9626,-2.918,-2.832,-2.8301,-2.8301,-2.8301,-2.8301,-2.8301,-2.8301,-2.8301,-2.8301,-2.8301,-2.8301,-2.8301,-2.8301,-2.8301,-2.8301,-2.8301,-2.8301,-2.8301,-2.8301,-2.8301,-2.8301,-2.8301,-2.8301,-2.8301,-2.8301,-2.8301,-2.7969,-2.7559,-2.7689,-2.7422,-2.7226,-2.7656,-2.8027,-2.8301,-2.8301,-2.8301,-2.8301,-2.8301,-2.8301,-2.8301,-2.8301,-2.8301,-2.8301,-2.8301,-2.8301,-2.8301,-2.8301,-2.8301,-2.8301,-2.8301,-2.8301,-2.8301,-2.8301,-2.793,-2.75,-2.707,-2.6641,-2.623,-2.5732,-2.5693,-2.5693,-2.5693,-2.5693,-2.5693,-2.5693,-2.5693,-2.5693,-2.5693,-2.5693,-2.5693,-2.5693,-2.5693,-2.5693,-2.5693,-2.5693,-2.5693,-2.5693,-2.5693,-2.5693,0.0,0.0,0.0,0.0,-2.6438,0.0,0.0,0.0,-2.4923,-2.4385,0.0,0.0,0.0,0.0,0.0,0.0,0.0,0.0,0.0,0.0,0.0,0.0,0.0,0.0,0.0,0.0,0.0,-3.0176,-2.9531,-2.9277,-2.9551,-2.9626,-2.918,-2.832,-2.8301,-2.8301,-2.8301,-2.8301,-2.8301,-2.8301,-2.8301,-2.8301,-2.8301,-2.8301,-2.8301,-2.8301,-2.8301,-2.8301,-2.8301,-2.8301,-2.8301,-2.8301,-2.8301,-2.8301,-2.8301,-2.8301,-2.8301,-2.8301,-2.8301,-2.7754,-2.7148,-2.7539,-2.7689,-2.7728,-2.8086,-2.8262,-2.8301,-2.8301,-2.8301,-2.8301,-2.8301,-2.8301,-2.8301,-2.8301,-2.8301,-2.8301,-2.8301,-2.8301,-2.8301,-2.8301,-2.8301,-2.8301,-2.8301,-2.8301,-2.8301,-2.8301,-2.793,-2.75,-2.707,-2.6641,-2.623,-2.5732,-2.5693,-2.5693,-2.5693,-2.5693,-2.5693,-2.5693,-2.5693,-2.5693,-2.5693,-2.5693,-2.5693,-2.5693,-2.5693,-2.5693,-2.5693,-2.5693,-2.5693,-2.5693,-2.5693,-2.5693,0.0,0.0,0.0,0.0,0.0,0.0,-2.5006,0.0,-2.4488,0.0,0.0,0.0,0.0,0.0,0.0,0.0,0.0,0.0,0.0,0.0,0.0,0.0,0.0,0.0,0.0,0.0,0.0,0.0,0.0,-2.875,-2.916,-2.9199,-2.8906,-2.832,-2.8301,-2.8301,-2.8301,-2.8301,-2.8301,-2.8301,-2.8301,-2.8301,-2.8301,-2.8301,-2.8301,-2.8301,-2.8301,-2.8301,-2.8301,-2.8301,-2.8301,-2.8301,-2.8301,-2.8301,-2.8301,-2.8301,-2.8301,-2.8301,-2.8301,-2.7734,-2.7012,-2.6953,-2.709,-2.7363,-2.7793,-2.8105,-2.8301,-2.8301,-2.8301,-2.8301,-2.8301,-2.8301,-2.8301,-2.8301,-2.8301,-2.8301,-2.8301,-2.8301,-2.8301,-2.8301,-2.8301,-2.8301,-2.8301,-2.8301,-2.8301,-2.8301,-2.8144,-2.7871,-2.7441,-2.7246,-2.6875,-2.6191,-2.6113,-2.6113,-2.6113,-2.6113,-2.6211,-2.6465,-2.625,-2.6113,-2.6113,-2.583,-2.5693,-2.5693,-2.5693,-2.5693,-2.5693,-2.5693,-2.5693,-2.5693,-2.5693,-2.5693,-2.7593,0.0,0.0,0.0,0.0,0.0,0.0,0.0,0.0,0.0,0.0,0.0,0.0,0.0,0.0,-2.5751,0.0,0.0,0.0,0.0,0.0,0.0,0.0,0.0,0.0,0.0,0.0,0.0,0.0,0.0,-2.8887,-2.8926,-2.873,-2.8301,-2.8301,-2.8301,-2.8301,-2.8301,-2.8301,-2.8301,-2.8301,-2.8301,-2.8301,-2.8301,-2.8301,-2.8301,-2.8301,-2.8301,-2.8301,-2.8301,-2.8301,-2.8301,-2.8301,-2.8301,-2.8301,-2.8301,-2.8301,-2.8301,-2.8301,-2.7734,-2.6992,-2.6797,-2.6875,-2.7129,-2.7676,-2.8047,-2.8301,-2.8301,-2.8301,-2.8301,-2.8301,-2.8301,-2.8301,-2.8301,-2.8301,-2.8301,-2.8301,-2.8301,-2.8301,-2.8301,-2.8301,-2.8301,-2.8301,-2.8301,-2.8301,-2.8301,-2.8301,-2.8144,-2.7767,-2.7728,-2.7395,-2.6484,-2.6484,-2.6523,-2.6406,-2.6504,-2.6699,-2.6992,-2.6738,-2.6504,-2.6387,-2.6094,-2.581,-2.5693,-2.5693,-2.5693,-2.5693,-2.5693,-2.5693,-2.5693,-2.5693,-2.5693,0.0,0.0,0.0,-2.6351,0.0,0.0,0.0,0.0,-2.5813,0.0,0.0,0.0,0.0,0.0,-2.6915,-2.6065,-2.6293,0.0,0.0,0.0,0.0,0.0,0.0,0.0,0.0,0.0,0.0,0.0,0.0,0.0,-2.8828,-2.8926,-2.873,-2.8301,-2.8301,-2.8301,-2.8301,-2.8301,-2.8301,-2.8301,-2.8301,-2.8301,-2.8301,-2.8301,-2.8301,-2.8301,-2.8301,-2.8301,-2.8301,-2.8301,-2.8301,-2.8301,-2.8301,-2.8301,-2.8301,-2.8301,-2.8301,-2.8301,-2.8301,-2.7734,-2.709,-2.75,-2.7344,-2.7168,-2.8008,-2.8281,-2.8301,-2.8301,-2.8301,-2.8301,-2.8301,-2.8301,-2.8301,-2.8301,-2.8301,-2.8301,-2.8301,-2.8301,-2.8301,-2.8301,-2.8301,-2.8301,-2.8301,-2.8301,-2.8301,-2.8301,-2.8301,-2.8144,-2.7767,-2.7728,-2.7395,-2.6484,-2.6758,-2.6836,-2.6426,-2.6758,-2.6992,-2.7012,-2.7012,-2.6816,-2.6406,-2.6387,-2.6172,-2.5693,-2.5693,-2.5693,-2.5693,-2.5693,-2.5693,-2.5693,-2.5693,-2.5693,0.0,0.0,-2.8773,-2.7531,0.0,0.0,0.0,0.0,0.0,0.0,0.0,0.0,0.0,-2.7309,-2.7102,-2.648,-2.6252,-2.5792,0.0,0.0,0.0,0.0,0.0,0.0,0.0,0.0,0.0,0.0,0.0,0.0,0.0,-2.8359,-2.832,-2.7891,-2.8144,-2.8301,-2.8301,-2.8301,-2.8301,-2.8301,-2.8301,-2.8301,-2.8301,-2.8301,-2.8301,-2.8301,-2.8301,-2.8301,-2.8301,-2.8301,-2.8301,-2.8301,-2.8301,-2.8301,-2.8301,-2.8301,-2.8301,-2.8262,-2.7969,-2.7695,-2.748,-2.7669,-2.7559,-2.7559,-2.8125,-2.8301,-2.8301,-2.8301,-2.8301,-2.8301,-2.8301,-2.8301,-2.8301,-2.8301,-2.8301,-2.8301,-2.8301,-2.8301,-2.8301,-2.8301,-2.8301,-2.8301,-2.8301,-2.8301,-2.8301,-2.8301,-2.8301,-2.8242,-2.8105,-2.8086,-2.7871,-2.7337,-2.7363,-2.7383,-2.7246,-2.7617,-2.7871,-2.7871,-2.7598,-2.7383,-2.7297,-2.6953,-2.6738,-2.6582,-2.6582,-2.6582,-2.6582,-2.6309,-2.6172,-2.6172,-2.583,-2.5693,-2.9394,-2.9559,0.0,0.0,-2.8193,0.0,-2.6827,0.0,0.0,0.0,0.0,0.0,0.0,0.0,-2.7779,-2.7158,-2.6537,-2.5751,0.0,-2.4335,0.0,0.0,0.0,0.0,0.0,0.0,-2.6016,-2.7344,0.0,0.0,0.0,0.0,-2.8164,-2.7891,-2.8144,-2.8301,-2.8301,-2.8301,-2.8301,-2.8301,-2.8301,-2.8301,-2.8301,-2.8301,-2.8301,-2.8301,-2.8301,-2.8301,-2.8301,-2.8301,-2.8301,-2.8301,-2.8301,-2.8301,-2.8301,-2.8301,-2.8301,-2.8262,-2.7988,-2.7845,-2.7748,-2.7904,-2.7845,-2.7806,-2.8164,-2.8301,-2.8301,-2.8301,-2.8301,-2.8301,-2.8301,-2.8301,-2.8301,-2.8301,-2.8301,-2.8301,-2.8301,-2.8301,-2.8301,-2.8301,-2.8301,-2.8301,-2.8301,-2.8301,-2.8301,-2.8301,-2.8301,-2.8301,-2.8301,-2.8301,-2.8125,-2.7767,-2.7845,-2.7891,-2.7891,-2.8144,-2.8301,-2.8301,-2.8047,-2.7865,-2.7728,-2.7402,-2.7168,-2.7012,-2.7012,-2.7012,-2.7012,-2.6738,-2.6602,-2.6602,-2.6172,-2.5977]},{"header":{"parameterUnit":"m.s-1","parameterCategory":1,"la1":30.6,"la2":29.2853,"lo1":-89.7004,"lo2":-87.6739,"dy":0.0162,"dx":0.0183,"nx":112,"ny":82,"refTime":"2026-05-15T00:00:00:Z","depth":0,"parameterNumber":3,"parameterNumberName":"V-component_of_WINDS"},"data":[0.0,0.0,0.0,0.0,0.0,0.0,0.0,0.0,0.0,0.0,0.0,0.0,0.0,0.0,0.0,0.0,0.0,0.0,0.0,0.0,0.0,0.0,0.0,0.0,0.0,0.0,0.0,0.0,0.0,0.0,0.0,0.0,0.0,0.0,0.0,0.0,0.0,0.0,0.0,0.0,0.0,0.0,0.0,0.0,0.0,0.0,0.0,0.0,0.0,0.0,0.0,0.0,0.0,0.0,0.0,0.0,0.0,0.0,0.0,0.0,0.0,0.0,0.0,0.0,0.0,0.0,0.0,0.0,0.0,0.0,0.0,0.0,0.0,0.0,0.0,0.0,0.0,0.0,0.0,0.0,0.0,0.0,0.0,0.0,0.0,0.0,0.0,0.0,0.0,0.0,1.9347,1.9915,2.0747,2.1016,2.0472,2.0195,1.9022,1.6409,0.0,0.0,0.0,0.0,0.0,0.0,0.0,0.0,0.0,0.0,0.0,0.0,0.0,0.0,0.0,0.0,0.0,0.0,0.0,0.0,0.0,0.0,0.0,0.0,0.0,0.0,0.0,0.0,0.0,0.0,0.0,0.0,0.0,0.0,0.0,0.0,0.0,0.0,0.0,0.0,0.0,0.0,0.0,0.0,0.0,0.0,0.0,0.0,0.0,0.0,0.0,0.0,0.0,0.0,0.0,0.0,0.0,0.0,0.0,0.0,0.0,0.0,0.0,0.0,0.0,0.0,0.0,0.0,0.0,0.0,0.0,0.0,0.0,0.0,0.0,0.0,0.0,0.0,0.0,0.0,0.0,0.0,0.0,0.0,0.0,0.0,0.0,0.0,0.0,0.0,0.0,0.0,0.0,0.0,0.0,0.0,0.0,0.0,0.0,0.0,0.0,0.0,0.0,0.0,1.9352,2.1783,2.1953,2.1798,2.1741,2.127,1.9978,1.7493,0.0,0.0,0.0,0.0,0.0,0.0,0.0,0.0,0.0,0.0,0.0,0.0,0.0,0.0,0.0,0.0,0.0,0.0,0.0,0.0,0.0,0.0,0.0,0.0,0.0,0.0,0.0,0.0,0.0,0.0,0.0,0.0,0.0,0.0,0.0,0.0,0.0,0.0,0.0,0.0,0.0,0.0,0.0,0.0,0.0,0.0,0.0,0.0,0.0,0.0,0.0,0.0,0.0,0.0,0.0,0.0,0.0,0.0,0.0,0.0,0.0,0.0,0.0,0.0,0.0,0.0,0.0,0.0,0.0,0.0,0.0,0.0,0.0,0.0,0.0,0.0,0.0,0.0,0.0,0.0,0.0,0.0,0.0,0.0,0.0,0.0,0.0,0.0,0.0,0.0,0.0,0.0,0.0,0.0,0.0,0.0,0.0,0.0,0.0,0.0,0.0,0.0,0.0,2.0328,2.1679,2.4014,2.4078,2.3772,2.3314,2.2697,2.1324,1.895,1.7481,0.0,0.0,0.0,0.0,0.0,0.0,0.0,0.0,0.0,0.0,0.0,0.0,0.0,0.0,0.0,0.0,0.0,0.0,0.0,0.0,0.0,0.0,0.0,0.0,0.0,0.0,0.0,0.0,0.0,0.0,0.0,0.0,0.0,0.0,0.0,0.0,0.0,0.0,0.0,0.0,0.0,0.0,0.0,0.0,0.0,0.0,0.0,0.0,0.0,0.0,0.0,0.0,0.0,0.0,0.0,0.0,0.0,0.0,0.0,0.0,0.0,0.0,0.0,0.0,0.0,0.0,0.0,0.0,0.0,0.0,0.0,0.0,0.0,0.0,0.0,0.0,0.0,0.0,0.0,0.0,0.0,0.0,0.0,0.0,0.0,0.0,0.0,0.0,0.0,0.0,0.0,0.0,0.0,0.0,0.0,0.0,0.0,0.0,0.0,0.0,0.0,0.0,2.3133,2.3899,2.5738,2.5916,2.5556,2.4647,2.3715,2.2292,2.0105,1.8355,0.0,0.0,0.0,0.0,0.0,0.0,0.0,0.0,0.0,0.0,0.0,0.0,0.0,0.0,0.0,0.0,0.0,0.0,0.0,0.0,0.0,0.0,0.0,0.0,0.0,0.0,0.0,0.0,0.0,0.0,0.0,0.0,0.0,0.0,0.0,0.0,0.0,0.0,0.0,0.0,0.0,0.0,0.0,0.0,0.0,0.0,0.0,0.0,0.0,0.0,0.0,0.0,0.0,0.0,0.0,0.0,0.0,0.0,0.0,0.0,0.0,0.0,0.0,0.0,0.0,0.0,0.0,0.0,0.0,0.0,0.0,0.0,0.0,0.0,0.0,0.0,0.0,0.0,0.0,0.0,0.0,0.0,0.0,0.0,0.0,0.0,0.0,0.0,0.0,0.0,0.0,0.0,0.0,0.0,0.0,0.0,0.0,0.0,0.0,0.0,0.0,0.0,2.3162,2.4721,2.6354,2.6537,2.6207,2.5368,2.3852,2.2245,2.0583,1.8245,0.0,0.0,0.0,0.0,0.0,0.0,0.0,0.0,0.0,0.0,0.0,0.0,0.0,0.0,0.0,0.0,0.0,0.0,0.0,0.0,0.0,0.0,0.0,0.0,0.0,0.0,0.0,0.0,0.0,0.0,0.0,0.0,0.0,0.0,0.0,0.0,0.0,0.0,0.0,0.0,0.0,0.0,0.0,0.0,0.0,0.0,0.0,0.0,0.0,0.0,0.0,0.0,0.0,0.0,0.0,0.0,0.0,0.0,0.0,0.0,0.0,0.0,0.0,0.0,0.0,0.0,0.0,0.0,0.0,0.0,0.0,0.0,0.0,0.0,0.0,0.0,0.0,0.0,0.0,0.0,0.0,0.0,0.0,0.0,0.0,0.0,0.0,0.0,0.0,0.0,0.0,0.0,0.0,0.0,0.0,0.0,0.0,0.0,0.0,0.0,0.0,0.0,2.2508,2.3973,0.0,2.5706,2.5436,2.5381,2.3877,2.2108,2.0223,0.0,0.0,0.0,0.0,0.0,0.0,0.0,0.0,0.0,0.0,0.0,0.0,0.0,0.0,0.0,0.0,0.0,0.0,0.0,0.0,0.0,0.0,0.0,0.0,0.0,0.0,0.0,0.0,0.0,0.0,0.0,0.0,0.0,0.0,0.0,0.0,0.0,0.0,0.0,0.0,0.0,0.0,0.0,0.0,0.0,0.0,0.0,0.0,0.0,0.0,0.0,0.0,0.0,0.0,0.0,0.0,0.0,0.0,0.0,0.0,0.0,0.0,0.0,0.0,0.0,0.0,0.0,0.0,0.0,0.0,0.0,0.0,0.0,0.0,0.0,0.0,0.0,0.0,0.0,0.0,0.0,0.0,0.0,0.0,0.0,0.0,0.0,0.0,0.0,0.0,0.0,0.0,0.0,0.0,0.0,0.0,0.0,0.0,0.0,0.0,0.0,0.0,2.1358,2.2668,2.4162,0.0,2.566,2.5358,2.5657,2.4239,2.2451,2.0402,0.0,0.0,0.0,0.0,0.0,0.0,0.0,0.0,0.0,0.0,0.0,0.0,0.0,0.0,0.0,0.0,0.0,0.0,0.0,0.0,0.0,0.0,0.0,0.0,0.0,0.0,0.0,0.0,0.0,0.0,0.0,0.0,0.0,0.0,0.0,0.0,0.0,0.0,0.0,0.0,0.0,0.0,0.0,0.0,0.0,0.0,0.0,0.0,0.0,0.0,0.0,0.0,0.0,0.0,0.0,0.0,0.0,0.0,0.0,0.0,0.0,0.0,0.0,0.0,0.0,0.0,0.0,0.0,0.0,0.0,0.0,0.0,0.0,0.0,0.0,0.0,0.0,0.0,0.0,0.0,0.0,0.0,0.0,0.0,0.0,0.0,0.0,0.0,0.0,0.0,0.0,0.0,0.0,0.0,0.0,0.0,0.0,0.0,0.0,0.0,0.0,0.0,2.2352,2.3978,2.566,2.7317,2.671,2.6222,2.6301,2.5062,2.3398,0.0,0.0,0.0,0.0,0.0,0.0,0.0,0.0,0.0,0.0,0.0,0.0,0.0,0.0,0.0,0.0,0.0,0.0,0.0,0.0,0.0,0.0,0.0,0.0,0.0,0.0,0.0,0.0,0.0,0.0,0.0,0.0,0.0,0.0,0.0,0.0,0.0,0.0,0.0,0.0,0.0,0.0,0.0,0.0,0.0,0.0,0.0,0.0,0.0,0.0,0.0,0.0,0.0,0.0,0.0,0.0,0.0,0.0,0.0,0.0,0.0,0.0,0.0,0.0,0.0,0.0,0.0,0.0,0.0,0.0,0.0,0.0,0.0,0.0,0.0,0.0,0.0,0.0,0.0,0.0,0.0,0.0,0.0,0.0,0.0,0.0,0.0,0.0,0.0,0.0,0.0,0.0,0.0,0.0,0.0,0.0,0.0,0.0,0.0,0.0,0.0,0.0,0.0,2.2729,2.4554,2.6053,2.6846,2.6277,2.5975,2.6262,2.5062,2.3329,2.1096,0.0,0.0,0.0,0.0,0.0,0.0,0.0,0.0,0.0,0.0,0.0,0.0,0.0,0.0,0.0,0.0,0.0,0.0,0.0,0.0,0.0,0.0,0.0,0.0,0.0,0.0,0.0,0.0,0.0,0.0,0.0,0.0,0.0,0.0,0.0,0.0,0.0,0.0,0.0,0.0,0.0,0.0,0.0,0.0,0.0,0.0,0.0,0.0,0.0,0.0,0.0,0.0,0.0,0.0,0.0,0.0,0.0,0.0,0.0,0.0,0.0,0.0,0.0,0.0,0.0,0.0,0.0,0.0,0.0,0.0,0.0,0.0,0.0,0.0,0.0,0.0,0.0,0.0,0.0,0.0,0.0,0.0,0.0,0.0,0.0,0.0,0.0,0.0,0.0,0.0,0.0,0.0,0.0,0.0,0.0,0.0,0.0,0.0,0.0,0.0,0.0,0.0,2.3414,2.5281,2.6747,2.7357,2.6749,2.6513,2.7121,2.6069,2.4441,2.2332,0.0,0.0,0.0,0.0,0.0,0.0,0.0,0.0,0.0,0.0,0.0,0.0,0.0,0.0,0.0,0.0,0.0,0.0,0.0,0.0,0.0,0.0,0.0,0.0,0.0,0.0,0.0,0.0,0.0,0.0,0.0,0.0,0.0,0.0,0.0,0.0,0.0,0.0,0.0,0.0,0.0,0.0,0.0,0.0,0.0,0.0,0.0,0.0,0.0,0.0,0.0,0.0,0.0,0.0,0.0,0.0,0.0,0.0,0.0,0.0,0.0,0.0,0.0,0.0,0.0,0.0,0.0,0.0,0.0,0.0,0.0,0.0,0.0,0.0,0.0,0.0,0.0,0.0,0.0,0.0,0.0,0.0,0.0,0.0,0.0,0.0,0.0,0.0,0.0,0.0,0.0,0.0,0.0,0.0,0.0,0.0,0.0,0.0,0.0,0.0,0.0,0.0,2.4376,2.6109,2.7626,2.8459,2.7834,2.7672,2.8419,2.7498,2.6115,2.4352,0.0,0.0,0.0,0.0,0.0,0.0,0.0,0.0,0.0,0.0,0.0,0.0,0.0,0.0,0.0,0.0,0.0,0.0,0.0,0.0,0.0,0.0,0.0,0.0,0.0,0.0,0.0,0.0,0.0,0.0,0.0,0.0,0.0,0.0,0.0,0.0,0.0,0.0,0.0,0.0,0.0,0.0,0.0,0.0,0.0,0.0,0.0,0.0,0.0,0.0,0.0,0.0,0.0,0.0,0.0,0.0,0.0,0.0,0.0,0.0,3.3023,0.0,0.0,0.0,0.0,0.0,0.0,0.0,0.0,0.0,0.0,0.0,0.0,0.0,0.0,0.0,0.0,0.0,0.0,0.0,0.0,0.0,0.0,0.0,0.0,0.0,0.0,0.0,0.0,0.0,0.0,0.0,0.0,0.0,0.0,0.0,0.0,0.0,0.0,0.0,0.0,0.0,2.5226,2.6964,2.8213,2.8688,2.8554,2.8474,2.8522,2.7498,2.6393,2.5122,2.2902,0.0,0.0,0.0,0.0,0.0,0.0,0.0,0.0,0.0,0.0,0.0,0.0,0.0,0.0,0.0,0.0,0.0,0.0,0.0,0.0,0.0,0.0,0.0,0.0,0.0,0.0,0.0,0.0,0.0,0.0,0.0,0.0,0.0,0.0,0.0,0.0,0.0,0.0,0.0,0.0,0.0,0.0,0.0,0.0,0.0,0.0,0.0,0.0,0.0,0.0,0.0,0.0,0.0,0.0,0.0,0.0,0.0,0.0,0.0,0.0,3.5101,0.0,0.0,0.0,0.0,0.0,0.0,0.0,0.0,0.0,0.0,0.0,0.0,0.0,0.0,0.0,0.0,0.0,0.0,0.0,0.0,0.0,0.0,0.0,0.0,0.0,0.0,0.0,0.0,0.0,0.0,0.0,0.0,0.0,0.0,0.0,0.0,0.0,0.0,0.0,0.0,2.561,2.7262,2.8464,2.89,2.869,2.8504,2.8387,2.7416,2.6445,2.5619,2.3612,0.0,0.0,0.0,0.0,0.0,0.0,0.0,0.0,0.0,0.0,0.0,0.0,0.0,0.0,0.0,0.0,0.0,0.0,0.0,0.0,0.0,0.0,0.0,0.0,0.0,0.0,0.0,0.0,0.0,0.0,0.0,0.0,0.0,0.0,0.0,0.0,0.0,0.0,0.0,0.0,0.0,0.0,0.0,0.0,0.0,0.0,0.0,0.0,0.0,0.0,0.0,0.0,0.0,4.2317,4.2583,4.2583,4.2435,4.2406,4.2287,4.0135,3.9173,3.8974,0.0,0.0,0.0,0.0,0.0,0.0,0.0,0.0,0.0,0.0,0.0,0.0,0.0,0.0,0.0,0.0,0.0,0.0,0.0,0.0,0.0,0.0,0.0,0.0,0.0,3.0606,3.0401,0.0,0.0,0.0,0.0,0.0,0.0,0.0,0.0,0.0,0.0,0.0,0.0,2.5847,2.7286,2.8346,2.8948,2.8554,2.8196,2.8134,2.7287,2.6525,2.6082,2.4189,2.2893,0.0,0.0,0.0,0.0,0.0,0.0,0.0,0.0,0.0,0.0,0.0,0.0,0.0,0.0,0.0,0.0,0.0,0.0,0.0,0.0,0.0,0.0,0.0,0.0,0.0,0.0,0.0,0.0,0.0,0.0,0.0,0.0,4.0536,4.1312,0.0,0.0,0.0,0.0,0.0,0.0,0.0,0.0,0.0,0.0,0.0,0.0,0.0,0.0,4.3053,4.4472,4.5238,4.5327,4.5585,4.5729,4.5699,4.5102,4.4833,4.4803,4.4445,0.0,4.0397,3.8413,0.0,0.0,0.0,0.0,0.0,0.0,0.0,0.0,0.0,0.0,0.0,0.0,0.0,0.0,0.0,0.0,0.0,0.0,0.0,0.0,0.0,0.0,3.408,3.3501,3.3472,3.3264,0.0,2.93,2.6779,2.6362,0.0,0.0,0.0,0.0,0.0,0.0,0.0,0.0,2.6611,2.7165,2.7751,2.8561,2.8176,2.7804,2.7631,2.7066,2.6672,2.6599,2.5468,2.4534,2.3993,2.2425,0.0,0.0,0.0,0.0,0.0,0.0,0.0,0.0,0.0,0.0,0.0,0.0,0.0,0.0,0.0,0.0,0.0,0.0,0.0,0.0,0.0,0.0,0.0,0.0,0.0,0.0,0.0,0.0,0.0,4.0524,4.2031,4.2416,4.1893,4.0929,0.0,0.0,0.0,0.0,0.0,0.0,0.0,0.0,0.0,4.2723,4.4072,4.5084,4.5739,4.6778,4.7268,4.7298,4.7744,4.7788,4.7429,4.713,4.677,4.6411,4.6052,4.4923,4.318,4.113,3.9076,3.7119,0.0,0.0,0.0,0.0,0.0,3.5267,3.6077,0.0,0.0,0.0,0.0,0.0,0.0,0.0,0.0,0.0,0.0,0.0,0.0,0.0,0.0,3.5129,3.4952,3.4564,3.4171,3.2431,3.0399,0.0,2.7594,2.6133,2.3552,0.0,0.0,0.0,0.0,2.6039,2.7148,2.7954,2.8682,2.9412,2.864,2.82,2.849,2.7661,2.7319,2.7668,2.7013,2.6472,2.6211,2.451,2.3206,0.0,0.0,0.0,0.0,0.0,0.0,0.0,0.0,0.0,0.0,0.0,0.0,0.0,0.0,0.0,0.0,0.0,0.0,0.0,0.0,0.0,0.0,0.0,0.0,0.0,0.0,0.0,0.0,4.2288,4.3612,4.3596,4.3653,4.292,0.0,0.0,0.0,0.0,0.0,0.0,4.1893,4.3359,4.4553,4.5304,4.6621,4.7535,4.8057,4.8716,4.9045,4.9045,4.9374,4.9164,4.8536,4.8356,4.7938,4.7279,4.68,4.6202,4.5394,4.3289,4.1075,3.893,3.8133,3.7084,3.62,3.667,3.6966,3.7267,3.818,3.8484,3.8335,3.7322,0.0,3.5505,3.3771,0.0,0.0,0.0,0.0,3.3622,3.5323,0.0,3.5026,3.6038,3.577,3.5261,3.5067,3.4531,3.3341,0.0,3.0242,2.8963,2.5849,0.0,0.0,0.0,0.0,2.7313,2.7914,2.8618,2.9321,2.9909,2.8985,2.8538,2.9044,2.8272,2.7966,2.846,2.8148,2.7903,2.7903,2.643,2.529,2.4558,0.0,0.0,0.0,0.0,0.0,0.0,0.0,0.0,0.0,0.0,0.0,0.0,0.0,0.0,0.0,0.0,0.0,0.0,0.0,0.0,0.0,0.0,0.0,0.0,0.0,0.0,0.0,0.0,0.0,4.5274,4.5741,0.0,0.0,0.0,0.0,4.305,4.3678,4.4635,4.592,4.6711,4.7399,4.8057,4.9374,5.0016,5.0046,5.0704,5.1079,5.1079,5.0435,4.9853,4.9239,4.8566,4.7938,4.7309,4.7279,4.689,4.607,4.4067,4.2423,4.1175,4.0516,3.9792,3.9194,3.9224,3.9642,4.0091,3.9523,3.9343,3.9313,3.9254,3.8357,3.7195,3.6507,3.5818,0.0,0.0,3.6297,3.6447,3.7101,3.6836,3.6387,3.6477,3.5998,3.5457,3.5457,3.479,3.4095,0.0,3.3254,3.2185,3.021,0.0,2.9231,2.7879,2.7639,2.8035,2.9071,2.8839,2.8731,2.9294,2.8833,2.8514,2.8546,2.8487,2.846,2.8492,2.8465,2.8438,2.8438,2.7876,2.7009,2.5836,2.4069,0.0,0.0,0.0,0.0,0.0,0.0,0.0,0.0,0.0,0.0,0.0,0.0,0.0,0.0,0.0,0.0,0.0,0.0,0.0,0.0,0.0,0.0,0.0,0.0,0.0,0.0,0.0,0.0,4.5992,4.7309,0.0,4.6255,4.6007,4.6232,4.692,4.6913,4.734,4.8358,4.8876,4.9269,4.9553,5.0391,5.0823,5.0823,5.1109,5.1229,5.1229,5.0943,5.0301,4.9299,4.906,4.8327,4.7309,4.7309,4.692,4.619,4.5065,4.3808,4.2581,4.1923,4.1265,4.0696,4.0696,4.0816,4.0935,4.0277,4.0038,3.9918,3.905,3.8422,3.7913,3.7285,3.6926,3.6776,3.7015,3.7075,3.7225,3.7883,3.7554,3.7075,3.7075,3.6596,3.6028,3.5579,3.5245,3.5034,3.4969,3.3917,3.2454,3.0651,3.0828,3.0528,2.841,2.9124,2.9854,2.9785,3.0014,3.0262,3.0461,2.9862,2.9687,3.0146,2.9656,2.9364,2.9423,2.8906,2.8677,2.8766,2.7769,2.7255,2.7309,2.5899,2.441,0.0,0.0,0.0,0.0,0.0,0.0,0.0,0.0,0.0,0.0,0.0,0.0,0.0,0.0,0.0,0.0,0.0,0.0,0.0,0.0,0.0,0.0,0.0,0.0,0.0,0.0,4.7607,4.8198,4.9556,5.0096,4.9293,4.9231,4.9572,5.0295,5.008,5.023,5.1056,5.1348,5.1469,5.1469,5.1895,5.2109,5.2109,5.1819,5.1635,5.1635,5.1635,5.0833,4.9299,4.9583,4.8991,4.7709,4.7409,4.7382,4.7341,4.5883,4.4929,4.4297,4.3148,4.2595,4.2395,4.2158,4.2043,4.1953,4.1294,4.0756,4.0247,3.9349,3.8931,3.8661,3.8212,3.8093,3.8093,3.8093,3.8093,3.8182,3.8631,3.8242,3.7674,3.7464,3.6926,3.6297,3.5639,3.5519,3.5519,3.5519,3.4612,3.3351,3.1716,3.2015,3.1717,2.9567,3.0307,3.0925,3.0448,3.0807,3.1102,3.1102,3.0657,3.0569,3.1043,3.0161,2.9666,2.9957,2.8819,2.8382,2.8931,2.7935,2.7607,2.8098,2.6651,2.5329,2.417,0.0,0.0,0.0,0.0,0.0,0.0,0.0,0.0,0.0,0.0,0.0,0.0,0.0,0.0,0.0,0.0,0.0,0.0,0.0,0.0,0.0,0.0,0.0,4.7809,4.8872,5.0246,5.1941,5.2578,5.2673,5.2277,5.2794,5.3164,5.3091,5.3049,5.3323,5.3988,5.4019,5.3976,5.3976,5.3976,5.3976,5.3976,5.3108,5.2651,5.2651,5.262,5.1497,4.9434,5.024,4.9889,4.8615,4.7752,4.8282,4.9592,4.661,4.589,4.6458,4.4197,4.3771,4.4396,4.3615,4.3369,4.3249,4.2659,4.158,4.0434,4.0397,3.9948,3.9373,3.9373,3.9373,3.9373,3.9373,3.9373,3.9373,3.9373,3.8931,3.8242,3.7554,3.6956,3.6327,3.5639,3.5519,3.5519,3.5519,3.5519,3.507,3.3724,3.3391,3.2853,3.1515,3.119,0.0,3.1102,3.1102,3.1102,3.1102,3.1102,3.1102,3.1102,2.9922,2.9392,3.0011,2.8189,2.7659,2.895,2.8363,2.8039,2.8039,2.6233,2.5012,2.4332,0.0,0.0,0.0,0.0,0.0,0.0,0.0,0.0,0.0,0.0,0.0,0.0,0.0,0.0,0.0,0.0,0.0,0.0,0.0,0.0,0.0,4.9231,5.0294,5.0105,5.1275,5.245,5.3429,5.4585,5.5233,5.5201,5.4794,5.4899,5.564,5.4448,5.4084,5.4911,5.4359,5.3976,5.3976,5.3976,5.3976,5.3976,5.3891,5.3816,5.3816,5.3439,5.2671,5.1621,5.119,5.0506,4.9686,4.9287,4.9367,4.9671,4.7786,4.7529,4.7962,4.46,4.3771,4.4472,4.4243,4.424,4.4184,4.3475,4.234,4.1168,4.0581,3.9948,3.9373,3.9373,3.9373,3.9373,3.9373,3.9373,3.9373,3.9373,3.9254,3.8841,3.7674,3.7285,3.6866,3.5759,3.5519,3.5519,3.5519,3.5519,3.507,3.3724,3.3484,3.3005,3.1632,0.0,0.0,3.1395,3.1395,3.1395,3.1395,3.1395,3.1395,3.1395,3.0535,2.9648,2.8907,2.7794,2.7148,2.7162,2.651,2.6411,2.6986,2.5931,2.5337,0.0,0.0,0.0,0.0,0.0,0.0,0.0,0.0,0.0,0.0,0.0,0.0,0.0,0.0,0.0,0.0,0.0,0.0,0.0,0.0,0.0,0.0,5.2458,5.3727,5.4066,5.3802,5.4241,5.6048,5.6541,5.6948,5.7519,5.7033,5.6694,5.6669,5.5789,5.5434,5.5868,5.5555,5.5353,5.5271,5.5353,5.5393,5.5393,5.5117,5.4832,5.4502,5.4205,5.3343,5.2029,5.1841,5.1379,0.0,5.0242,5.0467,5.094,4.8743,4.8317,0.0,0.0,0.0,0.0,0.0,4.5044,4.5061,4.4591,4.3541,4.2354,4.1889,4.1102,4.027,4.027,4.0091,3.9844,3.9844,3.9661,3.9373,3.9373,3.9373,3.908,3.7734,3.7404,3.7075,3.5789,3.5519,3.5519,3.5519,0.0,0.0,3.4083,3.3694,3.3155,3.2079,3.169,3.1511,0.0,3.1511,3.1511,3.1511,3.1511,3.1511,3.1511,3.0321,0.0,0.0,0.0,2.6406,2.6069,2.5944,0.0,0.0,0.0,0.0,0.0,0.0,0.0,0.0,2.4097,2.3948,0.0,0.0,0.0,0.0,0.0,0.0,0.0,0.0,0.0,0.0,0.0,0.0,0.0,0.0,0.0,0.0,5.5762,5.7368,5.8256,5.6303,5.585,5.8734,5.824,5.8035,5.9006,5.8927,5.8243,5.6857,5.6949,5.6949,5.6757,0.0,0.0,0.0,0.0,5.7289,5.7289,5.6503,5.5719,5.499,5.493,5.3791,5.1804,5.2464,5.2404,5.1743,5.1005,5.1553,5.2665,4.9592,4.8659,4.8966,4.6713,4.6234,4.6759,4.6198,4.5985,0.0,0.0,0.0,0.0,4.368,4.2726,4.162,4.1524,4.1093,4.0615,4.0615,4.013,3.9625,3.9553,3.9517,3.9187,3.7734,3.7404,3.7075,3.5789,3.5519,3.5519,3.5519,3.5519,3.531,3.4743,3.4053,3.3365,3.2617,3.1989,0.0,3.1511,3.1511,3.1511,3.1511,0.0,0.0,3.1391,2.9744,2.8906,2.9352,2.7081,2.5704,2.5704,2.6273,2.6602,2.6602,2.6602,2.6926,2.7585,2.7525,2.7225,2.6686,2.4807,2.4837,0.0,0.0,0.0,0.0,0.0,0.0,0.0,0.0,0.0,0.0,0.0,0.0,0.0,0.0,0.0,5.5345,5.6583,5.752,5.8294,5.7935,5.7781,5.8253,5.8621,5.8714,5.8352,5.828,5.7953,5.7243,5.7214,5.7214,5.7176,5.7252,0.0,5.7252,5.7289,5.7289,5.7289,5.7256,5.6888,5.6185,0.0,0.0,5.3976,5.3373,5.3038,5.287,5.2555,5.259,5.2768,5.0923,4.9593,4.8529,4.7131,4.6793,4.7067,4.7404,4.7605,4.7638,4.7033,4.6279,4.5435,4.4184,4.3149,4.2254,4.1683,4.1393,0.0,4.1294,4.1194,4.0959,4.0443,4.027,3.9795,3.7841,3.7404,3.7075,3.5789,3.5519,3.5519,3.5519,3.5519,3.5459,3.534,3.4741,3.3873,3.2706,3.2378,3.2108,3.157,3.1511,3.1511,3.1511,3.1511,3.1271,3.0761,2.9894,2.9022,2.8034,2.7016,2.6393,2.6393,2.6512,2.6602,2.6602,2.6602,2.6926,2.7585,2.7076,2.7016,2.7375,2.6452,2.5944,0.0,0.0,0.0,0.0,0.0,0.0,0.0,0.0,0.0,0.0,0.0,5.1128,5.2167,0.0,5.5288,5.7208,5.8451,5.9156,5.9237,5.9237,5.9026,5.85,5.8652,5.868,5.8428,5.8318,5.7979,5.7356,5.7402,5.7402,5.7327,5.7476,5.7551,5.7439,5.7551,5.7588,5.7588,5.7698,5.7195,5.6115,5.5815,5.5141,5.4025,5.3551,5.3348,5.3348,5.3246,5.3212,5.3078,5.1497,4.9986,4.8578,4.7934,4.7704,4.7836,4.813,4.8292,4.8292,4.7934,4.7109,4.6085,4.5308,4.4298,4.3289,4.2899,4.252,4.2237,4.2173,4.1885,4.1494,4.1093,4.0789,4.0173,3.8385,3.7745,3.7177,3.5789,3.5519,3.5519,3.5519,3.5519,3.5519,3.5519,3.522,3.4532,3.3215,3.2706,3.2258,3.16,3.1511,3.1511,3.1511,3.1511,3.1241,3.0552,2.9624,2.8693,2.7675,2.7285,2.6956,2.6602,2.6602,2.6602,2.6602,2.6602,2.695,2.7715,2.731,2.7335,2.779,2.7305,2.6926,0.0,0.0,0.0,0.0,0.0,0.0,0.0,5.0259,5.0995,5.2538,5.3076,5.3647,5.4753,5.6096,5.7547,5.9043,6.0256,6.0835,6.0178,6.0114,5.97,5.8673,5.8383,5.8308,5.8459,5.8346,5.8001,5.7435,5.7551,5.7588,5.7439,5.7735,5.7808,5.7662,5.7808,5.7881,5.7881,5.7746,5.7036,5.5681,5.5581,5.4803,5.3518,5.3518,5.3518,5.3484,5.3348,5.3179,5.2942,5.1459,5.0045,4.8832,4.8642,4.861,4.8578,4.8515,4.8515,4.8547,4.8547,4.7776,4.6736,4.6435,4.5533,4.4465,4.4198,4.368,4.3196,4.3078,4.2614,4.2109,4.1852,4.1461,4.0749,3.8984,3.8279,3.7546,3.5952,3.5587,3.5587,3.5554,3.5554,3.5587,3.5554,3.5554,3.5105,3.3694,3.3066,3.2437,3.1658,3.1597,3.1597,3.1597,3.1568,3.1239,3.043,2.9199,2.8235,2.772,2.769,2.7425,2.6861,2.6855,2.6855,2.6831,2.6855,2.7174,2.784,2.774,2.779,2.7995,2.779,2.7665,4.8199,4.7998,4.8791,5.096,5.1028,5.1497,0.0,5.5269,5.4996,5.6016,5.7268,5.8248,5.8417,5.9092,5.9975,6.0854,6.1158,6.0989,6.0216,6.0114,5.9573,5.8149,5.7833,5.7722,5.7722,5.7722,5.7726,5.7808,5.7845,5.7845,5.7845,5.7881,5.7881,5.7881,5.7881,5.7881,5.7881,5.7239,5.6528,5.5716,5.504,5.4296,5.3518,5.3518,5.3518,5.345,5.2739,5.2063,5.1388,5.0574,4.9697,4.8987,4.8956,4.8923,4.8925,4.861,4.861,4.8769,4.8769,4.8668,4.8298,4.6922,4.6294,4.5805,4.4499,4.4039,4.3948,4.3981,4.3889,4.3684,4.3015,4.2798,4.2101,3.9565,3.89,3.8303,3.6342,3.5941,3.5878,3.5688,3.5814,3.5878,3.5688,3.5846,3.5392,3.3756,3.3547,3.3126,3.1921,3.1855,3.194,3.194,3.1826,3.1259,2.9994,2.8772,2.8061,2.797,2.797,2.786,2.767,2.7799,2.7799,2.767,2.7799,2.7879,2.7995,2.797,2.797,2.7995,2.797,2.789,5.0722,5.0894,5.1397,5.2336,5.331,5.4387,5.5709,5.601,5.6448,5.7811,5.822,5.849,5.893,5.9607,6.0216,6.0554,6.1366,6.1501,6.0283,6.0114,5.9539,5.8051,5.7808,5.7772,5.7772,5.7772,5.7808,5.7881,5.7881,5.7881,5.7881,5.7881,5.7881,5.7881,5.7881,5.7881,5.7881,5.7171,5.6427,5.5716,5.4938,5.4194,5.3518,5.3518,5.3518,5.3484,5.3145,5.2334,5.1183,5.0879,5.0067,4.9018,4.9018,4.9018,4.8987,4.8829,4.8829,4.8925,4.8925,4.8655,4.8115,4.7035,4.6334,4.5736,4.4721,4.4384,4.4355,4.427,4.4241,4.4121,4.3739,4.341,4.2752,4.1134,3.9943,3.8811,3.7467,3.6565,3.5973,3.591,3.5941,3.5973,3.591,3.5608,3.5032,3.394,3.3819,3.3395,3.2093,3.1968,3.1996,3.1996,3.1243,3.0549,2.9947,2.8728,2.7995,2.7995,2.7995,2.797,2.7915,2.797,2.797,2.7915,2.797,2.8044,2.8113,2.8044,2.8094,2.8241,2.8069,2.7989,5.2191,5.277,5.3313,5.3848,5.5432,5.6785,5.6448,5.6819,5.753,5.8758,5.8592,5.8423,5.9167,5.9911,6.0419,6.0419,6.1535,6.1839,6.0317,6.0114,5.9539,5.8051,5.7881,5.7881,5.7881,5.7881,5.7881,5.7881,5.7881,5.7881,5.7881,5.7881,5.7881,5.7881,5.7881,5.7881,5.7881,5.7171,5.6427,5.5716,5.4938,5.4194,5.3518,5.3518,5.3518,5.3484,5.3281,5.2435,5.1151,5.098,5.0168,4.9018,4.9018,4.9018,4.9018,4.9018,4.9018,4.9018,4.9018,4.8646,4.8071,4.709,4.6447,4.5838,4.4886,4.4615,4.4587,4.4412,4.4384,4.4384,4.427,4.3948,4.3359,4.2133,4.0832,3.9495,3.8119,3.7095,3.6321,3.61,3.61,3.6132,3.6068,3.5704,3.5125,3.4272,3.415,3.3632,3.2233,3.2109,3.2109,3.2081,3.0864,3.0099,3.0046,2.8855,2.8118,2.8118,2.8118,2.8094,2.8069,2.8094,2.8094,2.8069,2.8094,2.8168,2.8235,2.8168,2.8217,2.8411,2.8217,2.8137,5.173,5.2504,5.3786,5.6085,5.7273,5.8051,5.8761,5.8893,5.8927,5.8998,5.8998,5.9201,5.9945,6.0723,6.1264,6.1264,6.1907,6.1839,6.0317,6.0114,5.9539,5.8051,5.7881,5.7881,0.0,5.7881,5.7881,5.7881,5.7881,5.7881,5.7881,5.7881,5.7881,5.7881,5.7881,5.7881,5.7881,5.7171,5.6427,5.5716,5.4938,5.4194,5.3518,5.3518,5.3518,5.345,5.2672,5.1894,5.115,5.0439,4.9695,4.9018,4.9018,4.9018,4.9018,4.9018,4.9018,4.9018,4.9018,4.8984,4.8748,4.7259,4.6786,4.6481,4.5055,4.4615,4.4615,4.4615,4.4615,4.4615,4.4587,4.4587,4.4041,4.1943,4.1375,4.0639,3.8,3.7387,3.7118,3.6352,3.6352,3.6414,3.6258,3.6321,3.6014,3.466,3.4475,3.3925,3.2402,3.233,3.2358,3.2219,3.1106,3.0334,3.0204,2.9081,2.8387,2.8387,2.8387,2.8339,2.821,2.8308,2.8339,2.8186,2.8308,2.8387,2.8387,2.8387,2.8387,2.8411,2.8387,2.8387,5.297,5.4053,5.5173,5.6459,5.734,5.7949,5.822,5.8254,5.8423,5.893,5.822,5.778,5.849,5.8863,5.9201,5.9708,6.0858,6.1501,6.096,6.0892,6.0317,5.8829,5.8626,5.8457,0.0,0.0,0.0,5.7881,5.7881,5.7881,5.7881,5.7881,5.7881,5.7881,5.7881,5.7881,5.7881,5.6697,5.5953,5.5716,5.4465,5.3754,5.3518,5.3518,5.3518,5.3484,5.3213,5.2367,5.1151,5.0947,5.0101,4.9018,4.9018,4.9018,4.9018,4.9018,4.9018,4.9018,4.9018,4.9018,4.8849,4.7868,4.7192,4.6616,4.5635,4.4993,4.4615,4.4615,4.4615,4.4615,4.4615,4.4615,4.4423,4.3687,4.2445,4.1158,4.0234,3.8672,3.7328,3.7058,3.6754,3.6476,3.6414,3.6076,3.5368,3.3983,3.3367,3.2936,3.2419,3.2355,3.2228,3.1712,3.0909,3.0202,2.972,2.891,2.8411,2.8411,2.8411,2.8387,2.8339,2.8387,2.8387,2.8339,2.8387,2.8411,2.8411,2.8411,2.8411,2.8411,2.8411,2.8411,5.4416,5.5267,5.6021,5.7273,5.7949,5.8287,5.8287,5.8287,5.8287,5.822,5.7273,5.6562,5.7036,5.69,5.7205,5.8761,5.9844,6.0689,6.1231,6.1061,6.0419,5.9167,5.8795,5.8423,5.7949,5.7645,0.0,5.7881,5.7881,5.7881,5.7881,5.7881,5.7881,5.7881,5.7881,5.7746,5.7509,5.6562,5.5852,5.531,5.4093,5.3518,5.3518,5.3518,5.3518,5.3518,5.3518,5.2773,5.1589,5.1319,5.0507,4.9357,4.912,4.9018,4.9018,4.9018,4.9018,4.9018,4.9018,4.9018,4.8849,4.7834,4.7192,4.6616,4.5602,4.4959,4.4615,4.4615,4.4615,4.4615,4.4615,4.4615,4.4547,4.4215,4.2925,4.1588,4.1128,3.9434,3.7911,3.7506,3.7268,3.6997,3.6569,3.5922,3.5121,3.3952,3.3183,3.2659,3.2413,3.2382,3.2136,3.1459,3.0812,3.0109,2.9464,2.8812,2.8411,2.8411,2.8411,2.8411,2.8411,2.8411,2.8411,2.8411,2.8411,2.8411,2.8411,2.8411,2.8411,2.8411,2.8411,2.8411,5.5869,5.6147,5.629,5.8386,5.8927,5.8927,5.8859,5.8859,5.849,5.6966,5.6053,5.5478,5.5513,5.4972,5.548,5.8389,5.8964,5.9607,6.1129,6.0689,5.9945,5.9167,5.8457,5.7983,5.7881,5.7273,0.0,5.7848,0.0,5.7848,5.7881,5.7881,5.7881,5.7881,5.7848,5.7509,5.6799,5.6731,5.5953,5.4532,5.3822,5.3518,5.3518,5.3518,5.3518,5.3518,5.3518,5.301,5.2198,5.1488,5.0744,4.9965,4.9255,4.9018,4.9018,4.9018,4.9018,4.9018,4.9018,4.9018,4.8748,4.7327,4.6819,4.6515,4.5089,4.4649,4.4615,4.4615,4.4615,4.4615,4.4615,4.4615,4.4412,4.3639,4.2895,4.1984,4.0673,3.9779,3.8898,3.774,3.794,3.7969,3.6816,3.6044,3.5365,3.4656,3.3917,3.318,3.2475,3.2382,3.2136,3.1459,3.0812,3.0109,2.9464,2.8812,2.8411,2.8411,2.8411,2.8411,2.8411,2.8411,2.8411,2.8411,2.8411,2.8411,2.8411,2.8411,2.8411,2.8411,2.8411,2.8411,5.5822,5.6816,5.7439,5.7833,5.8076,5.7944,5.711,5.7156,5.6898,5.527,5.399,5.301,5.2469,5.3145,5.4397,5.6258,5.8389,6.0351,6.1907,6.1941,6.1298,5.9979,5.9641,5.9099,5.7983,5.7712,5.7679,0.0,5.7374,5.7306,5.7848,5.7881,5.7881,5.7881,5.7374,5.7002,5.6799,5.5716,5.4702,5.3788,5.3585,5.3518,5.3518,5.3518,5.3518,5.3518,5.3518,5.2739,5.1488,5.1285,5.0439,4.9255,4.9086,4.9018,4.9018,4.9018,4.9018,4.9018,4.9018,4.9018,4.8849,4.7936,4.7259,4.6616,4.5703,4.5026,4.4615,4.4615,4.4615,4.4615,4.4615,4.4615,4.4547,4.4316,4.3707,4.2875,4.1991,4.0842,3.9764,3.8909,3.8474,3.8193,3.7879,3.7274,3.6462,3.5345,3.4565,3.3678,3.253,3.2382,3.2136,3.1459,3.0812,3.0109,2.9464,2.8812,2.8411,2.8411,2.8411,2.8411,2.8411,2.8411,2.8411,2.8411,2.8411,2.8411,2.8411,2.8411,2.8411,2.8411,2.8411,2.8411,5.6854,5.7682,5.8241,5.813,5.7735,5.7065,5.577,5.5677,5.5174,5.2876,5.1829,5.0982,4.9871,5.0712,5.2232,5.4397,5.6934,5.9404,6.1603,6.1907,6.1467,6.025,5.981,5.9167,5.8017,5.7611,5.7543,0.0,5.7509,5.7442,5.7881,5.7881,5.7881,5.7881,5.7171,5.6494,5.5852,5.4702,5.3923,5.3518,5.3518,5.3518,5.3518,5.3518,5.3518,5.3518,0.0,5.2807,5.1657,5.1352,5.0541,4.9458,4.912,4.9018,4.9018,4.9018,4.9018,4.9018,4.9018,4.9018,4.8883,4.8142,4.7394,4.665,4.594,4.5162,4.4615,4.4615,4.4615,4.4615,4.4615,4.4615,4.4615,4.4615,4.3978,4.32,4.2455,4.1439,4.0488,3.9726,3.8887,3.8362,3.8673,3.7926,3.6993,3.5985,3.5201,3.4368,3.3318,3.2921,3.2404,3.1512,3.1269,3.0825,2.992,2.9494,2.915,2.8873,2.8842,2.8719,2.8411,2.8411,2.8535,2.8818,2.8565,2.8565,2.8842,2.8535,2.8411,2.8411,2.8411,2.8411,5.8289,5.861,5.8661,5.8661,5.7698,5.6357,5.4734,5.4329,5.3416,5.0215,4.9634,4.919,4.7686,4.8284,4.9965,5.2875,5.5277,5.7848,6.0892,6.1298,6.0994,6.0216,5.9539,5.8829,5.7983,5.7306,5.7205,5.7848,5.7881,5.7881,5.7881,5.7881,5.7814,5.7611,5.69,5.5852,5.4465,5.3822,5.3518,5.3518,5.3518,5.3518,5.3518,5.3518,5.3518,5.3518,0.0,0.0,5.2097,5.1488,5.071,4.9898,4.9255,4.9018,4.9018,4.9018,4.9018,4.9018,4.9018,4.9018,4.8849,4.8037,4.7327,4.6616,4.5805,4.5094,4.4615,4.4615,4.4615,4.4615,4.4615,4.4615,4.4615,4.4615,4.4079,4.3335,4.2489,4.1644,4.0865,4.0214,3.9269,3.8695,3.9216,3.8451,3.7514,3.6756,3.6027,3.524,3.4428,3.3731,3.2883,3.1738,3.206,3.1797,3.0623,3.0572,3.0289,2.9458,2.9446,2.9163,2.8442,2.8546,2.8885,2.9371,2.9009,2.9039,2.9525,2.8965,2.8688,2.8688,2.8688,2.8627,5.8691,5.8747,5.8433,5.8433,5.7476,5.5972,5.3713,5.2943,5.1762,4.8509,4.7588,4.706,4.6005,4.7545,4.9763,5.2131,5.4938,5.7848,6.0892,6.1298,6.0994,6.0216,5.9979,5.937,5.8017,5.778,5.7746,0.0,5.7881,5.7881,5.7881,5.7881,5.734,5.6122,5.5378,5.4566,5.3687,5.3551,5.3518,5.3518,5.3518,5.3518,5.3518,5.3518,5.3518,5.3518,0.0,0.0,5.1386,5.1219,5.0405,4.9187,4.9052,4.9018,4.9018,4.9018,4.9018,4.9018,4.9018,4.9018,4.8781,4.7428,4.6887,4.6549,4.5224,4.4716,4.4615,4.4615,4.4615,4.4615,4.4615,4.4615,4.4615,4.4615,4.4513,4.4012,4.2591,4.1238,4.0248,4.0113,3.9927,3.9825,3.9927,3.9773,3.9246,3.8071,3.7268,3.6364,3.5176,3.4362,3.3617,3.2946,3.2876,3.2417,3.1319,3.1526,3.107,2.9508,2.981,2.9546,2.8466,2.9366,2.971,2.9427,3.0248,3.0529,3.0233,3.0109,3.0048,3.0048,3.0048,2.974,5.886,5.8952,5.8842,5.8842,5.7289,5.5053,5.2367,5.1093,4.9407,4.5745,4.498,4.4547,4.3233,4.5298,4.7642,4.9187,5.1961,5.5074,5.849,5.9302,5.9674,6.0047,6.0114,5.9674,5.8592,5.8118,5.7881,5.7881,5.7881,5.7881,5.7881,5.7543,5.6833,5.5715,5.4972,5.4262,5.3518,5.3518,5.3518,5.3518,5.3518,5.3518,5.3518,5.3518,5.3518,5.3518,0.0,0.0,5.1185,5.1185,5.0338,4.9018,4.9018,4.9018,4.9018,4.9018,4.9018,4.9018,4.9018,4.9018,4.8748,4.7259,4.6786,4.6583,4.55,4.4919,4.4615,4.4615,4.4615,4.4615,4.4615,4.4615,4.4615,4.4615,4.4005,4.3227,4.2455,4.1162,4.0113,4.0113,4.0113,4.0113,4.0113,3.9825,3.9432,3.8804,3.8089,3.7257,3.6277,3.5754,3.498,3.3764,3.3811,3.3616,3.2812,3.2923,3.2416,3.0961,3.0777,3.0176,2.8965,2.972,3.0234,3.0317,3.0903,3.125,3.1321,3.0727,3.0386,3.0386,3.0695,3.0509,5.8899,5.902,5.9039,5.8819,5.6867,5.4205,5.1162,4.9385,4.7371,4.3556,4.2858,4.2555,4.1278,4.32,4.539,4.6587,4.9018,5.2097,5.6021,5.7205,5.8186,5.9708,5.9877,5.9573,5.8863,5.8254,5.7881,5.7881,5.7881,0.0,5.7679,5.6968,5.6224,5.5513,5.4735,5.4093,5.3518,5.3518,5.3518,5.3518,5.3518,5.3518,5.3518,5.3518,5.3518,5.3518,0.0,0.0,0.0,5.1185,5.0338,4.9018,4.9018,4.9018,4.9018,4.9018,4.9018,4.9018,4.9018,4.9018,4.8748,4.7259,4.6786,4.6616,4.5737,4.506,4.4615,4.4615,4.4615,4.4615,4.4615,4.4615,4.4615,4.4615,4.343,4.2286,4.2286,4.1162,4.0113,4.0113,4.0113,4.0113,4.0113,3.9722,3.9375,3.9375,3.8776,3.8043,3.7286,3.688,3.6038,3.4497,3.4721,3.4697,3.4061,3.421,3.3761,3.2437,3.1897,3.1016,2.9844,3.0423,3.0982,3.1406,3.1688,3.1981,3.2424,3.1353,3.0817,3.0843,3.1381,3.1312,5.8899,5.8899,5.8648,5.7481,5.5988,5.3928,5.0493,4.855,4.6611,4.3456,4.2373,4.1948,4.182,4.2696,4.4176,4.6447,4.8139,5.0744,5.5209,5.6461,5.7442,5.893,5.9133,5.8829,5.8051,5.7915,5.7881,5.7881,0.0,0.0,5.6934,5.6224,5.548,5.4702,5.3991,5.3585,5.3518,5.3518,5.3518,5.3518,5.3518,5.3518,5.3518,5.3518,5.3518,5.3518,0.0,0.0,0.0,5.1185,5.0338,4.9018,4.9018,4.9018,4.9018,4.9018,4.9018,4.9018,4.9018,4.9018,4.8748,4.7259,4.6786,4.6515,4.5156,4.4649,4.4615,4.4615,4.4615,4.4615,4.4615,4.4615,4.4615,4.4615,4.343,4.2286,4.2286,4.1162,4.0113,4.0113,4.0113,4.0113,4.0113,4.0028,4.0037,4.0037,3.9395,3.8661,3.7918,3.6807,3.5919,3.5508,3.5509,3.5131,3.4086,3.4887,3.4728,3.3056,3.2854,3.228,3.1072,3.2135,3.2537,3.2108,3.3194,3.3546,3.3087,3.2528,3.2228,3.2225,3.2761,3.2651,5.8005,5.8237,5.8011,5.7061,5.5368,5.3111,5.0025,4.7528,4.519,4.2665,4.1303,4.0574,4.0608,4.1285,4.2469,4.4339,4.5206,4.7056,5.1116,5.2706,5.4329,5.6731,5.7814,5.8389,5.8558,5.8152,5.7881,5.7881,0.0,0.0,5.6224,5.5886,5.5378,5.46,5.389,5.3518,5.3518,5.3518,5.3518,5.3518,5.3518,5.3518,5.3518,5.3518,5.3518,5.3518,0.0,0.0,0.0,5.1185,5.0338,4.9018,4.9018,4.9018,4.9018,4.9018,4.9018,4.9018,4.9018,4.9018,4.8748,4.7259,4.6786,4.6515,4.5055,4.4615,4.4615,4.4615,4.4615,4.4615,4.4615,4.4615,4.4615,4.4615,4.343,4.2286,4.2286,4.1162,4.0113,4.0113,4.0113,4.0113,4.0113,4.0113,4.0113,4.0113,3.9842,3.9377,3.8667,3.772,3.6932,3.6377,3.5585,3.5085,3.4958,3.5339,3.5193,3.4158,3.3707,3.3125,3.2337,3.2765,3.304,3.316,3.3729,3.391,3.3675,3.3161,3.2738,3.241,3.3293,3.3367,5.647,5.6978,5.6978,5.6216,5.456,5.234,4.9458,4.6905,4.4574,4.247,4.1082,4.0254,4.0124,4.074,4.1661,4.276,4.3415,4.4993,4.8511,5.0101,5.1928,5.4735,5.6156,5.7205,5.7949,5.7949,5.7881,5.7881,0.0,0.0,0.0,5.5513,5.504,5.4296,5.3788,5.3518,5.3518,5.3518,5.3518,5.3518,5.3518,5.3518,5.3518,5.3518,5.3518,5.3484,0.0,0.0,0.0,5.098,5.0135,4.9018,4.9018,4.9018,4.9018,4.9018,4.9018,4.9018,4.9018,4.9018,4.8748,4.7259,4.6786,4.6515,4.5055,4.4615,4.4615,4.4615,4.4615,4.4615,4.4615,4.4615,4.4615,4.4615,4.3572,4.2557,4.2354,4.1331,4.0383,4.0146,4.0113,4.0113,4.0113,4.0113,4.0113,4.0113,4.0113,3.9842,3.9073,3.8409,3.7687,3.6874,3.5823,3.5271,3.5554,3.56,3.543,3.5062,3.4446,3.3914,3.3558,3.3389,3.3558,3.4078,3.4023,3.4086,3.4235,3.3547,3.3029,3.2625,3.3423,3.3656,5.4303,5.5052,5.545,5.4688,5.3467,5.1612,4.8696,4.6841,4.5213,4.3202,4.2194,4.1543,4.1069,4.1567,4.2159,4.2293,4.3599,4.563,4.8578,4.9627,5.0947,5.3247,5.416,5.4905,5.5683,5.7036,5.7881,0.0,0.0,0.0,0.0,5.5006,5.4262,5.3551,5.3518,5.3518,5.3518,5.3518,5.3518,5.3518,5.3518,5.3518,5.3518,5.3518,5.3518,0.0,0.0,0.0,0.0,5.0405,4.9661,4.9018,4.9018,4.9018,4.9018,4.9018,4.9018,4.9018,4.9018,4.9018,4.8748,4.7259,4.6786,4.6515,4.5055,4.4615,4.4615,4.4615,4.4615,4.4615,4.4615,4.4615,4.4615,4.4615,4.3978,4.3172,4.2455,4.1711,4.0967,4.0248,4.0113,4.0113,4.0113,4.0113,4.0113,4.0113,4.0113,3.9842,3.9073,3.8514,3.7845,3.6918,3.6315,3.5861,3.5622,3.56,3.56,3.56,3.5108,3.4793,3.4793,3.4252,3.4227,3.4793,3.4284,3.426,3.4769,3.3726,3.3182,3.3182,3.3182,3.3469,5.1186,5.2441,5.3102,5.1877,5.1247,5.0253,4.7802,4.6113,4.4646,4.3213,4.2367,4.1686,4.1103,4.1276,4.197,4.3434,4.4193,4.5432,4.7902,5.0202,5.186,5.2604,5.5141,5.6934,5.7171,0.0,5.7679,0.0,0.0,0.0,0.0,5.4735,5.4262,5.3518,5.3518,5.3518,5.3518,5.3518,5.3518,5.3518,5.3518,5.3518,5.3518,5.3518,0.0,0.0,0.0,0.0,0.0,5.0202,4.9661,4.9018,4.9018,4.9018,4.9018,4.9018,4.9018,4.9018,4.9018,4.9018,4.8748,4.7259,4.6786,4.6515,4.5055,4.4615,4.4615,4.4615,4.4615,4.4615,4.4615,4.4615,4.4615,4.4615,4.3978,4.3341,4.3098,4.2083,4.1136,4.0899,4.0426,4.0113,4.0113,4.0113,4.0113,4.0113,4.0113,4.0011,3.9774,3.9151,3.863,3.8362,3.7263,3.6272,3.5667,3.56,3.56,3.56,3.543,3.5339,3.5339,3.4816,3.4793,3.5316,3.4816,3.4625,3.4793,3.4078,3.3547,3.3209,3.3572,3.4003,4.8709,5.0389,5.1413,5.0783,4.9988,4.8961,4.7272,4.5779,4.4507,4.3605,4.3082,4.2561,4.1647,4.1794,4.2334,4.3394,4.4125,4.5365,4.7597,4.9729,5.1488,5.2638,5.531,5.7171,0.0,5.7712,0.0,0.0,0.0,0.0,0.0,5.4329,5.3957,5.3518,5.3518,5.3518,5.3518,5.3518,5.3518,5.3518,5.3518,5.3348,5.3044,5.3044,0.0,0.0,0.0,0.0,0.0,4.9796,4.9424,4.9018,4.9018,4.9018,4.9018,4.9018,4.9018,4.9018,4.9018,4.8815,4.8409,4.7192,4.6413,4.5771,4.4886,4.4615,4.4615,4.4615,4.4615,4.4615,4.4615,4.4615,4.4615,4.4615,4.4215,4.3775,4.3443,4.2692,4.188,4.1305,4.0832,4.0451,4.0146,4.0113,4.0113,4.0113,4.0113,4.0113,4.0113,3.9706,3.9309,3.9039,3.7922,3.6907,3.6129,3.5769,3.56,3.56,3.56,3.56,3.56,3.5085,3.5062,3.56,3.5085,3.4887,3.5108,3.4358,3.37,3.3209,3.3726,3.4185,0.0,4.8749,5.0055,5.0685,4.9326,4.7636,4.6908,4.5806,0.0,4.4135,4.4145,4.3912,4.2598,4.2963,4.3234,4.2692,4.3836,4.5534,4.7767,4.8849,5.0473,5.3382,5.5006,5.6156,5.6799,5.7476,0.0,0.0,0.0,0.0,0.0,5.3856,5.3518,5.3518,5.3518,5.3518,5.3518,5.3518,5.3518,5.3518,5.3518,5.3078,5.23,5.23,0.0,0.0,0.0,0.0,0.0,4.9289,4.9018,4.9018,4.9018,4.9018,4.9018,4.9018,4.9018,4.8984,4.8951,4.8477,4.777,4.6989,4.5737,4.4615,4.4615,4.4615,4.4615,4.4615,4.4615,4.4615,4.4615,4.4615,4.4615,4.4615,4.4615,4.4412,4.3673,4.3443,4.297,4.1576,4.1238,4.0967,4.0248,4.0113,4.0113,4.0113,4.0113,4.0113,4.0113,4.0113,3.9842,3.914,3.843,3.7686,3.7032,3.6129,3.56,3.56,3.56,3.56,3.56,3.5131,3.5142,3.5667,3.5198,3.5142,3.5554,3.4504,3.37,3.3209,3.3726,3.4011,4.4332,0.0,4.6742,4.6344,4.6278,4.6113,0.0,4.5075,4.4593,4.3499,4.3809,4.4052,4.3308,4.3274,4.391,4.55,4.6041,4.7056,4.9255,5.1725,5.3957,5.5818,5.6833,5.7442,5.7611,5.778,0.0,0.0,0.0,0.0,0.0,5.3585,5.3518,5.3518,5.3518,5.3518,5.3518,5.3518,5.3518,5.3518,5.3518,5.3078,5.23,5.23,0.0,0.0,0.0,0.0,0.0,4.9086,4.9018,4.9018,4.9018,4.9018,4.9018,4.9018,4.9018,4.8917,4.8376,4.8041,4.7669,4.638,4.5331,4.4615,4.4615,4.4615,4.4615,4.4615,4.4615,4.4615,4.4615,4.4615,4.4615,4.4615,4.4615,4.4547,4.435,4.3842,4.3132,4.2219,4.1576,4.0967,4.0248,4.0113,4.0113,4.0113,4.0113,4.0113,4.0113,4.0113,4.0045,3.9876,3.9174,3.8667,3.8497,3.6705,3.56,3.56,3.56,3.56,3.56,3.5487,3.5756,3.6502,3.6409,3.5897,3.5015,3.4333,3.37,3.3209,3.3726,3.4011,4.2589,4.4456,4.6212,4.5814,4.5748,4.5614,4.4945,4.4401,4.3743,4.2808,4.3283,4.3664,4.3003,4.347,4.435,4.5568,4.665,4.8206,5.0744,5.3416,5.5412,5.6224,5.7239,5.7881,0.0,0.0,0.0,0.0,0.0,0.0,0.0,0.0,5.3518,5.3518,5.3518,5.3518,5.3518,5.3518,5.3518,5.3518,5.3145,5.2536,5.1792,5.1454,0.0,0.0,0.0,0.0,4.9018,4.9018,4.9018,4.9018,4.9018,4.9018,4.9018,4.9018,4.9018,4.8883,4.8173,4.7432,4.6718,4.5568,4.4925,4.4615,4.4615,4.4615,4.4615,4.4615,4.4615,4.4615,4.4615,4.4615,4.4615,4.4615,4.4615,4.4615,4.4615,4.4248,4.3707,4.2963,4.2489,4.1982,4.1238,4.1128,4.0993,4.0663,4.0595,4.0485,4.0146,4.0113,4.0113,4.0113,3.9436,3.9005,3.9005,3.755,3.6535,3.6163,3.6163,3.5994,3.5633,3.596,3.6502,3.728,3.728,3.6791,3.5736,3.5201,3.446,3.3604,3.4486,3.4806,4.1746,4.4222,4.6674,4.6343,4.5978,4.5512,4.49,4.3943,4.3009,4.2415,4.2955,4.3436,4.2895,4.3978,4.5021,4.5258,4.7022,4.9323,5.1928,5.4262,5.5681,5.5681,5.7002,0.0,0.0,0.0,0.0,0.0,0.0,0.0,0.0,0.0,0.0,5.3518,5.3518,5.3518,5.3518,5.3518,5.345,5.3315,5.2638,5.186,5.1014,5.0371,0.0,0.0,0.0,0.0,4.9018,4.9018,4.9018,4.9018,4.9018,4.9018,4.9018,4.9018,4.9018,4.8883,4.8037,4.6786,4.5432,4.4818,4.4615,4.4615,4.4615,4.4615,4.4615,4.4615,4.4615,4.4615,4.4615,4.4615,4.4615,4.4615,4.4615,4.4615,4.4615,4.4615,4.435,4.3572,4.3375,4.3166,4.2422,4.2286,4.2049,4.1305,4.1204,4.0933,4.018,4.0113,4.0113,4.0113,3.9512,3.9174,3.9174,3.8599,3.7922,3.7202,3.7032,3.6637,3.5971,3.6705,3.7381,3.7889,3.8024,3.7686,3.6965,3.6334,3.5482,3.4518,3.5539,3.5811,4.2785,4.4718,4.5765,4.3901,4.4238,4.4867,4.4344,4.415,4.3895,4.3188,4.3765,4.4553,4.5094,4.5872,4.6853,4.8105,4.9661,5.1082,5.2164,5.4262,5.5681,5.5681,0.0,0.0,0.0,0.0,0.0,0.0,0.0,0.0,0.0,0.0,0.0,5.3518,5.3518,5.3518,5.3518,5.3518,5.3179,5.2469,5.2367,5.1589,5.027,5.0135,4.9695,0.0,0.0,0.0,4.9018,4.9018,4.9018,4.9018,4.9018,4.9018,4.9018,4.9018,4.9018,4.8815,4.7428,4.6007,4.475,4.4649,4.4615,4.4615,4.4615,4.4615,4.4615,4.4615,4.4615,4.4615,4.4615,4.4615,4.4615,4.4615,4.4615,4.4615,4.4615,4.4615,4.435,4.3572,4.3375,4.3166,4.2422,4.2286,4.2049,4.1305,4.1204,4.0933,4.018,4.0113,4.0113,4.0113,4.0011,3.9943,3.9943,3.9842,3.9469,3.87,3.8091,3.7686,3.755,3.8261,3.843,3.7922,3.8497,3.8464,3.7719,3.6567,3.6208,3.6629,3.6174,3.6307,4.1493,4.3348,4.4693,4.3714,4.5481,4.7082,4.5693,4.5446,4.5197,4.417,4.4598,4.5297,4.5635,4.6955,4.8612,5.0473,5.1352,5.2063,5.2841,5.4532,5.5681,0.0,0.0,0.0,0.0,0.0,0.0,0.0,0.0,0.0,0.0,0.0,0.0,0.0,5.3518,5.3518,5.3518,5.3078,5.2672,5.23,5.1894,5.115,5.0067,4.9695,4.9323,0.0,0.0,4.9018,4.9018,4.9018,4.9018,4.9018,4.9018,4.9018,4.9018,4.9018,4.8511,4.7699,4.7022,4.5805,4.4615,4.4615,4.4615,4.4615,4.4615,4.4615,4.4615,4.4615,4.4615,4.4615,4.4615,4.4615,4.4615,4.4615,4.4615,4.4615,4.4615,4.4615,4.4513,4.4113,4.4045,4.3944,4.3599,4.3565,4.3132,4.1982,4.1779,4.1373,4.0248,4.0113,4.0113,4.0113,4.0113,4.0113,4.0113,4.0113,3.9808,3.9039,3.8294,3.8091,3.8497,3.8802,3.9039,3.9073,3.9436,3.9208,3.8497,3.7907,3.746,3.7119,3.746,3.7661,4.0663,4.2409,4.3981,4.4093,4.6264,4.814,4.7285,4.6675,4.6165,4.5708,4.6075,4.6481,4.6481,4.8139,5.0135,5.1995,5.2469,5.2807,5.3416,5.4634,5.5446,5.5446,0.0,0.0,0.0,0.0,0.0,0.0,0.0,0.0,0.0,0.0,0.0,0.0,5.3518,5.3518,5.3518,5.2706,5.2198,5.2029,5.1319,5.0574,4.983,4.9255,4.9018,4.9018,4.9018,4.9018,4.9018,4.9018,4.9018,4.9018,4.9018,4.9018,4.9018,4.9018,4.8071,4.6786,4.6786,4.5805,4.4615,4.4615,4.4615,4.4615,4.4615,4.4615,4.4615,4.4615,4.4615,4.4615,4.4615,4.4615,4.4615,4.4615,4.4615,4.4615,4.4615,4.4615,4.4615,4.4615,4.4615,4.4615,4.4615,4.4615,4.4141,4.276,4.2388,4.1839,4.0553,4.0214,4.0113,4.0113,4.0113,4.0113,4.0113,4.0113,3.9876,3.9276,3.8565,3.8497,3.9233,3.9242,3.9512,4.0079,4.0113,3.9842,3.9242,3.9073,3.8571,3.782,3.863,3.8874,4.1964,4.328,4.4121,4.4236,4.4466,4.5399,4.8179,4.7229,4.6283,4.8274,4.8748,4.8748,4.8748,5.0033,5.1319,5.2164,5.2942,5.345,5.3484,0.0,5.4668,0.0,0.0,0.0,0.0,0.0,0.0,0.0,0.0,0.0,0.0,0.0,0.0,0.0,0.0,5.3518,5.3518,5.2706,5.1961,5.1252,5.0541,4.9796,4.9086,4.9018,4.9018,4.9018,4.9018,4.9018,4.9018,4.9018,4.9018,4.9018,4.9018,4.9018,4.9018,4.9018,4.8071,4.6786,4.6786,4.5805,4.4615,4.4615,4.4615,4.4615,4.4615,4.4615,4.4615,4.4615,4.4615,4.4615,4.4615,4.4615,4.4615,4.4615,4.4615,4.4615,4.4615,4.4615,4.4615,4.4615,4.4615,4.4615,4.4615,4.4615,4.431,4.3443,4.2726,4.2016,4.1238,4.0493,4.0113,4.0113,4.0113,4.0113,4.0113,4.0113,4.0079,4.0011,3.9309,3.9242,4.0011,4.0011,4.0045,4.0113,4.0113,4.0079,4.0011,3.9309,3.9309,3.9859,3.9276,3.9343,4.0908,4.2378,4.3685,4.4798,4.512,4.5718,4.7838,4.8717,4.939,5.0202,5.0371,5.0371,5.0371,5.1217,5.1995,5.2266,5.2976,5.3518,5.3518,5.4126,0.0,0.0,0.0,0.0,0.0,0.0,0.0,0.0,0.0,0.0,0.0,0.0,0.0,0.0,0.0,5.2097,5.2097,5.1319,5.0777,5.0507,5.0236,4.9695,4.9018,4.9018,4.9018,4.9018,4.9018,4.9018,4.9018,4.9018,4.9018,4.9018,4.9018,4.9018,4.9018,4.9018,4.8071,4.6786,4.6786,4.5805,4.4615,4.4615,4.4615,4.4615,4.4615,4.4615,4.4615,4.4615,4.4615,4.4615,4.4615,4.4615,4.4615,4.4615,4.4615,4.4615,4.4615,4.4615,4.4615,4.4615,4.4615,4.4615,4.4615,4.4615,4.4344,4.3511,4.3139,4.2557,4.1373,4.0967,4.0595,4.0146,4.0113,4.0113,4.0113,4.0113,4.0113,4.0113,3.9842,3.9808,4.0079,4.0113,4.0113,4.0113,4.0113,4.0113,4.0113,3.9842,3.9842,4.0079,3.9808,3.9842,4.0718,4.2027,4.3339,4.4552,4.5616,4.6718,4.797,4.9424,5.0777,5.1758,5.1555,5.1252,5.1522,5.1792,5.2029,5.2266,5.2976,5.3518,5.3518,0.0,0.0,0.0,0.0,0.0,0.0,0.0,0.0,0.0,0.0,0.0,0.0,0.0,0.0,0.0,0.0,0.0,5.1185,5.0473,5.0101,5.0101,4.9864,4.9492,4.9018,4.9018,4.9018,4.9018,4.9018,4.9018,4.9018,4.9018,4.9018,4.8984,4.8748,4.8815,4.8984,4.8748,4.7868,4.6786,4.6786,4.5805,4.4615,4.4615,4.4615,4.4615,4.4615,4.4615,4.4615,4.4615,4.4615,4.4615,4.4615,4.4615,4.4615,4.4615,4.4615,4.4615,4.4615,4.4615,4.4615,4.4615,4.4615,4.4615,4.4615,4.4615,4.4384,4.3876,4.3572,4.3064,4.2049,4.1711,4.1271,4.0553,4.0451,4.035,4.0113,4.0113,4.0113,4.0113,4.0113,4.0113,4.0113,4.0113,4.0113,4.0113,4.0113,4.0113,4.0113,4.0113,4.0113,4.0113,4.0113,4.0113,4.1833,4.2534,4.3238,4.3382,4.5674,4.8108,4.8883,4.9052,4.9898,5.2875,5.23,5.1454,5.2164,5.1725,5.1488,5.2198,5.2976,5.3518,5.3518,0.0,0.0,0.0,0.0,0.0,0.0,0.0,0.0,0.0,0.0,0.0,0.0,0.0,0.0,0.0,0.0,0.0,5.1151,5.0439,5.0067,5.0067,4.9357,4.9018,4.9018,4.9018,4.9018,4.9018,4.9018,4.9018,4.9018,4.9018,4.9018,4.8951,4.8206,4.8376,4.8917,4.8206,4.7462,4.6786,4.6786,4.5805,4.4615,4.4615,4.4615,4.4615,4.4615,4.4615,4.4615,4.4615,4.4615,4.4615,4.4615,4.4615,4.4615,4.4615,4.4615,4.4615,4.4615,4.4615,4.4615,4.4615,4.4615,4.4615,4.4615,4.4615,4.4615,4.4615,4.391,4.3409,4.3375,4.276,4.2016,4.1305,4.1204,4.0899,4.018,4.0113,4.0113,4.0113,4.0113,4.0113,4.0113,4.0113,4.0113,4.0113,4.0113,4.0113,4.0113,4.0113,4.0113,4.0113,4.0113,4.0113,4.0955,4.2395,4.4006,4.4721,4.72,4.9796,5.1048,5.1319,5.1758,5.3213,5.3145,5.2706,5.2367,5.257,5.2706,5.2367,5.2976,5.3518,0.0,0.0,0.0,0.0,0.0,0.0,0.0,0.0,0.0,0.0,0.0,0.0,0.0,0.0,0.0,0.0,0.0,0.0,4.9661,4.9458,4.9323,4.9323,4.912,4.9018,4.9018,4.9018,4.9018,4.9018,4.9018,4.9018,4.9018,4.9018,4.9018,4.8984,4.8781,4.8815,4.8984,4.8748,4.7868,4.6786,4.6786,4.5805,4.4615,4.4615,4.4615,4.4615,4.4615,4.4615,4.4615,4.4615,4.4615,4.4615,4.4615,4.4615,4.4615,4.4615,4.4615,4.4615,4.4615,4.4615,4.4615,4.4615,4.4615,4.4615,4.4615,4.4615,4.4615,4.4615,4.4412,4.4045,4.3477,4.276,4.2219,4.1982,4.1982,4.1677,4.0933,4.0865,4.0629,4.0146,4.0113,4.0113,4.0113,4.0113,4.0113,4.0113,4.0113,4.0113,4.0113,4.0113,4.0113,4.0113,4.0113,4.0113,4.1707,4.3265,4.498,4.6503,4.8483,5.0574,5.2367,5.2773,5.2909,5.3416,5.3247,5.2976,5.2807,5.2909,5.2976,5.2807,5.3179,0.0,0.0,0.0,0.0,0.0,0.0,0.0,0.0,0.0,0.0,0.0,0.0,0.0,0.0,0.0,0.0,0.0,0.0,0.0,4.9018,4.9018,4.9018,4.9018,4.9018,4.9018,4.9018,4.9018,4.9018,4.9018,4.9018,4.9018,4.9018,4.9018,4.9018,4.8984,4.868,4.8578,4.8578,4.8578,4.78,4.6786,4.6786,4.6007,4.4993,4.4716,4.4615,4.4615,4.4615,4.4615,4.4615,4.4615,4.4615,4.4615,4.4615,4.4615,4.4615,4.4615,4.4615,4.4615,4.4615,4.4615,4.4615,4.4615,4.4615,4.4615,4.4615,4.4615,4.4615,4.4615,4.4615,4.4445,4.3944,4.347,4.3098,4.276,4.2726,4.2455,4.1711,4.1373,4.1001,4.0561,4.0282,4.0113,4.0113,4.0113,4.0113,4.0113,4.0113,4.0113,4.0113,4.0113,4.0113,4.0113,4.0113,4.0113,4.314,4.4562,4.6043,4.8284,4.963,5.0947,5.3044,5.3518,5.3518,5.3518,5.2909,5.2638,5.3382,5.2909,5.2638,5.3382,5.3518,0.0,0.0,0.0,0.0,0.0,0.0,0.0,0.0,0.0,0.0,0.0,0.0,0.0,0.0,0.0,0.0,0.0,0.0,0.0,4.9018,4.9018,4.9018,0.0,4.9018,4.9018,4.9018,4.9018,4.9018,4.9018,4.9018,4.9018,4.9018,4.9018,4.8951,4.8849,4.8173,4.7838,4.7804,4.7804,4.7327,4.6684,4.6684,4.621,4.55,4.4818,4.4615,4.4615,4.4615,4.4615,4.4615,4.4615,4.4615,4.4615,4.4615,4.4615,4.4615,4.4615,4.4615,4.4615,4.4615,4.4615,4.4615,4.4615,4.4615,4.4615,4.4615,4.4615,4.4615,4.4615,4.4615,4.4615,4.4615,4.4615,4.4316,4.3606,4.3538,4.3234,4.2455,4.1779,4.1339,4.1204,4.0561,4.018,4.0113,4.0113,4.0113,4.0113,4.0113,4.0113,4.0113,4.0113,4.0113,4.0113,4.0113,4.0146,4.0271,4.3197,4.6364,4.7533,5.0313,5.2909,5.3382,5.3518,5.3518,5.3518,5.3382,5.3281,5.3484,5.3382,5.3315,5.3484,0.0,0.0,0.0,0.0,0.0,0.0,0.0,0.0,0.0,0.0,0.0,0.0,0.0,0.0,0.0,0.0,0.0,0.0,0.0,4.9018,4.9018,4.9018,4.9018,0.0,4.9018,4.9018,4.9018,4.9018,4.9018,4.9018,4.9018,4.9018,4.9018,4.9018,4.868,4.8108,4.7939,4.7564,4.7022,4.7022,4.6583,4.594,4.594,4.5432,4.4818,4.4649,4.4615,4.4615,4.4615,4.4615,4.4615,4.4615,4.4615,4.4615,4.4615,4.4615,4.4615,4.4615,4.4615,4.4615,4.4615,4.4615,4.4615,4.4615,4.4615,4.4615,4.4615,4.4615,4.4615,4.4615,4.4615,4.4615,4.4615,4.4615,4.4547,4.435,4.4316,4.4012,4.3234,4.3003,4.2429,4.1271,4.1068,4.0696,4.0113,4.0113,4.0113,4.0113,4.0113,4.0113,4.0113,4.0113,4.0113,4.0113,4.0113,4.0417,4.09,4.3853,4.6678,4.8677,5.1359,5.3416,5.301,5.3213,5.3518,5.3518,5.3518,5.3518,5.3518,5.3518,5.3518,0.0,0.0,0.0,0.0,0.0,0.0,0.0,0.0,0.0,0.0,0.0,0.0,0.0,0.0,0.0,0.0,0.0,0.0,0.0,4.9187,4.9018,4.9018,4.9018,4.9018,4.9018,4.9018,4.9018,4.9018,4.9018,4.9018,4.9018,4.9018,4.9018,4.9018,4.9018,4.8781,4.8409,4.8041,4.7462,4.6786,4.6786,4.6346,4.5703,4.5703,4.5466,4.506,4.4716,4.4615,4.4615,4.4615,4.4615,4.4615,4.4615,4.4615,4.4615,4.4615,4.4615,4.4615,4.4615,4.4615,4.4615,4.4615,4.4615,4.4615,4.4615,4.4615,4.4615,4.4615,4.4615,4.4615,4.4615,4.4615,4.4615,4.4615,4.4615,4.4615,4.4615,4.4615,4.4418,4.4012,4.3639,4.3071,4.232,4.1914,4.1542,4.1162,4.0798,4.0485,4.0113,4.0113,4.0113,4.0113,4.0426,4.0629,4.0629,4.0993,4.1339,4.149,4.4311,4.6922,5.032,5.2336,5.3281,5.2672,5.301,5.3518,5.3518,5.3518,5.3518,5.3518,5.3518,5.3518,0.0,0.0,0.0,0.0,0.0,0.0,0.0,0.0,0.0,0.0,0.0,0.0,0.0,0.0,0.0,0.0,0.0,5.0608,4.9221,4.9086,4.9018,4.9018,4.9018,4.9018,4.9018,4.9018,4.9018,4.9018,4.9018,4.9018,4.9018,4.9018,4.9018,4.9018,4.9018,4.8849,4.8545,4.797,4.7192,4.6413,4.6413,4.6007,4.55,4.55,4.55,4.5399,4.4818,4.4615,4.4615,4.4615,4.4615,4.4615,4.4615,4.4615,4.4615,4.4615,4.4615,4.4615,4.4615,4.4615,4.4615,4.4615,4.4615,4.4615,4.4615,4.4615,4.4615,4.4615,4.4615,4.4615,4.4615,4.4615,4.4615,4.4615,4.4615,4.4615,4.4615,4.4615,4.4615,4.4615,4.3978,4.3572,4.3409,4.2828,4.2422,4.2286,4.1711,4.1102,4.0485,4.0248,4.0113,4.0113,4.0832,4.1204,4.1238,4.1948,4.2354,3.7259,4.1681,4.7053,5.0992,5.2606,5.3281,5.3315,5.3416,5.3518,5.3518,5.3518,5.3518,5.3518,5.3518,0.0,0.0,0.0,0.0,0.0,0.0,0.0,0.0,0.0,0.0,0.0,0.0,0.0,0.0,0.0,0.0,0.0,5.1555,5.0845,4.9965,4.9323,4.9018,4.9018,4.9018,4.9018,4.9018,4.9018,4.9018,4.9018,4.9018,4.9018,4.9018,4.9018,4.9018,4.9018,4.9018,4.824,4.709,4.6989,4.6109,4.4886,4.4886,4.4852,4.475,4.475,4.475,4.475,4.4649,4.4615,4.4615,4.4615,4.4615,4.4615,4.4615,4.4615,4.4615,4.4615,4.4615,4.4615,4.4615,4.4615,4.4615,4.4615,4.4615,4.4615,4.4615,4.4615,4.4615,4.4615,4.4615,4.4615,4.4615,4.4615,4.4615,4.4615,4.4615,4.4615,4.4615,4.4615,4.4615,4.4615,4.4513,4.4147,4.3443,4.3308,4.2963,4.232,4.2185,4.2117,4.2016,4.0756,4.0113,4.0113,4.0832,4.1204,4.1238,4.1948,4.2625,3.8991,4.2894,4.6824,4.979,5.1262,5.2101,5.2606,5.3146,5.3518,5.3518,5.3518,5.3518,5.3518,5.3518,0.0,0.0,0.0,0.0,0.0,0.0,0.0,0.0,0.0,0.0,0.0,0.0,0.0,0.0,0.0,0.0,5.1116,5.0744,5.0236,4.9492,4.9187,0.0,4.9018,4.9018,4.9018,4.9018,4.9018,4.9018,4.9018,4.9018,4.9018,4.9018,4.9018,4.9018,4.9018,4.9018,4.8376,4.7394,4.6955,4.6143,4.5162,4.475,4.4615,4.4615,4.4615,4.4615,4.4615,4.4615,4.4615,4.4615,4.4615,4.4615,4.4615,4.4615,4.4615,4.4716,4.5094,4.5196,4.5297,4.5703,4.5805,4.5703,4.5297,4.4891,4.4615,4.4615,4.4615,4.4615,4.4615,4.4615,4.4615,4.4615,4.4615,4.4615,4.4615,4.4615,4.4615,4.4615,4.4615,4.4615,4.4615,4.4615,4.4445,4.4079,4.4079,4.391,4.3599,4.3166,4.2929,4.2929,4.188,4.1331,4.1331,4.2083,4.2429,4.2429,4.3234,4.3741,4.0329,4.3252,4.5433,4.7661,4.9556,5.1027,5.1664,5.264,5.3416,5.3518,5.3518,5.3518,5.3518,0.0,0.0,0.0,0.0,0.0,0.0,0.0,0.0,0.0,0.0,0.0,0.0,0.0,0.0,0.0,0.0,0.0,5.0168,5.0101,4.9763,4.9018,4.9018,4.9018,4.9018,4.9018,4.9018,4.9018,4.9018,4.9018,4.9018,4.9018,4.9018,4.9018,4.9018,4.9018,4.9018,4.9018,4.8578,4.7804,4.709,4.6346,4.5602,4.4886,4.4615,4.4615,4.4615,4.4615,4.4615,4.4615,4.475,4.4823,4.4682,4.475,4.4852,4.4649,4.475,4.4993,4.5568,4.5838,4.6109,4.665,4.6786,4.6583,4.5872,4.5128,4.4615,4.4615,4.4615,4.4615,4.4615,4.4615,4.4615,4.4615,4.4615,4.4615,4.4615,4.4615,4.4615,4.4615,4.4615,4.4615,4.4615,4.4615,4.4615,4.4615,4.4615,4.4615,4.4615,4.4012,4.3707,4.3707,4.3166,4.2692,4.2286,4.3064,4.3375,4.3409,4.4215,4.4615,3.8494,4.0514,4.2228,4.463,4.786,5.0526,5.0959,5.2202,5.328,5.345,5.3518,5.3518,5.3518,0.0,0.0,0.0,0.0,0.0,0.0,0.0,0.0,0.0,0.0,0.0,0.0,0.0,0.0,0.0,0.0,0.0,5.0168,5.0101,4.9763,4.9018,4.9018,4.9018,4.9018,4.9018,4.9018,4.9018,4.9018,4.9018,4.9018,4.9018,4.9018,4.9018,4.9018,4.9018,4.9018,4.9018,4.8578,4.7804,4.709,4.6346,4.5602,4.4886,4.4615,4.4615,4.4615,4.4615,4.4615,4.4615,4.506,4.55,4.4818,4.5094,4.55,4.4818,4.5094,4.5669,4.5703,4.621,4.6752,4.6786,4.6786,4.6583,4.5872,4.5128,4.4615,4.4615,4.4615,4.4615,4.4615,4.4615,4.4615,4.4615,4.4615,4.4615,4.4615,4.4615,4.4615,4.4615,4.4615,4.4615,4.4615,4.4615,4.4615,4.4615,4.4615,4.4615,4.4615,4.4581,4.4547,4.4547,4.4513,4.3768,4.2286,4.3064,4.3375,4.3409,4.4215,4.4615,3.7334,3.8957,4.0608,4.2854,4.5535,4.8026,4.9624,5.1564,5.3041,5.328,5.3314,5.318,5.2808,0.0,0.0,0.0,0.0,0.0,0.0,0.0,0.0,0.0,0.0,0.0,0.0,0.0,0.0,0.0,0.0,0.0,5.0135,4.9661,4.9255,4.9018,4.9018,4.9018,4.9018,4.9018,4.9018,4.9018,4.9018,4.9018,4.9018,4.9018,4.9018,4.9018,4.9018,4.9018,4.9018,4.9018,4.8578,4.7804,4.709,4.6346,4.5602,4.4886,4.4615,4.4615,4.4615,4.4615,4.4615,4.4615,4.5094,4.5669,4.5399,4.5805,4.6346,4.6075,4.621,4.6515,4.6989,4.7327,4.7631,4.8105,4.7868,4.7428,4.7162,4.6177,4.5297,4.5297,4.4925,4.4615,4.4615,4.4615,4.4615,4.4615,4.4615,4.4615,4.4615,4.4615,4.4615,4.4615,4.4615,4.4615,4.4615,4.4615,4.4615,4.4615,4.4615,4.4615,4.4615,4.4615,4.4615,4.4615,4.4615,4.4344,4.3802,4.4012,4.4181,4.4181,4.4479,4.4615,3.6181,3.7632,3.9322,4.1011,4.3186,4.5535,4.8093,5.0226,5.1898,5.2605,5.2774,5.2708,0.0,0.0,0.0,0.0,0.0,0.0,0.0,0.0,0.0,0.0,0.0,0.0,0.0,0.0,0.0,0.0,0.0,0.0,5.0135,4.9627,4.9255,4.9018,4.9018,4.9018,4.9018,4.9018,4.9018,4.9018,4.9018,4.9018,4.9018,4.9018,4.9018,4.9018,4.9018,4.9018,4.9018,4.9018,4.8714,4.8173,4.7192,4.665,4.6312,4.5026,4.4784,4.4925,4.4682,4.4615,4.4615,4.4615,4.5263,4.6007,4.5771,4.638,4.7124,4.6853,4.6989,4.7293,4.777,4.8075,4.8409,4.8883,4.8646,4.8274,4.8274,4.7124,4.6075,4.6075,4.5669,4.5258,4.4993,4.4987,4.4987,4.4987,4.4987,4.5089,4.5326,4.5094,4.4987,4.4987,4.475,4.4615,4.4615,4.4615,4.4615,4.4615,4.4615,4.4615,4.4615,4.4615,4.4615,4.4615,4.4615,4.4615,4.4615,4.4615,4.4615,4.4615,4.4615,4.4615,0.0,0.0,0.0,3.905,4.0812,4.3227,4.6329,4.816,4.9692,5.1363,5.1866,5.2034,0.0,0.0,0.0,0.0,0.0,0.0,0.0,0.0,0.0,0.0,0.0,0.0,0.0,0.0,0.0,0.0,0.0,5.1657,5.0202,5.0067,4.9729,4.9018,4.9018,4.9018,4.9018,4.9018,4.9018,4.9018,4.9018,4.9018,4.9018,4.9018,4.9018,4.9018,4.9018,4.9018,4.9018,4.9018,4.9018,4.8849,4.7394,4.7259,4.7601,4.5432,4.5094,4.5602,4.4857,4.4615,4.4615,4.4649,4.563,4.665,4.594,4.6786,4.78,4.7056,4.7394,4.7906,4.7906,4.8477,4.9018,4.9018,4.9018,4.9018,4.9018,4.7868,4.6853,4.6819,4.6819,4.6583,4.5872,4.5737,4.5737,4.5703,4.5737,4.5974,4.6684,4.6143,4.5737,4.5703,4.506,4.4615,4.4615,4.4615,4.4615,4.4615,4.4615,4.4615,4.4615,4.4615,4.4615,4.4615,4.4615,4.4615,4.4615,4.4615,4.4615,4.4615,4.4615,4.4615,3.5729,0.0,0.0,0.0,0.0,0.0,0.0,4.4152,4.6138,4.9392,4.9658,4.9923,0.0,0.0,0.0,0.0,0.0,0.0,0.0,0.0,0.0,0.0,0.0,0.0,0.0,0.0,0.0,0.0,5.2638,5.1894,5.0947,4.9898,4.9221,4.9018,4.9018,4.9018,4.9018,4.9018,4.9018,4.9018,4.9018,4.9018,4.9018,4.9018,4.9018,4.9018,4.9018,4.9018,4.9018,4.9018,4.9018,4.8917,4.797,4.7703,4.7703,4.6007,4.5534,4.5669,4.5466,4.5026,4.4716,4.5229,4.6041,4.6752,4.6549,4.753,4.8646,4.8443,4.8545,4.8714,4.8714,4.8849,4.9018,4.9018,4.9018,4.9018,4.9018,4.868,4.824,4.7699,4.7158,4.6718,4.6515,4.6481,4.6312,4.5771,4.6143,4.638,4.6041,4.6278,4.6278,4.5771,4.5534,4.5162,4.4649,4.4615,4.4615,4.4615,4.4615,4.4615,4.4615,4.4615,4.4615,4.4615,4.4615,4.4615,4.4615,4.4615,4.4615,4.4615,4.4615,4.4615,3.6554,3.7003,3.7566,3.7566,0.0,0.0,4.1342,4.2506,4.4191,0.0,4.8528,4.8792,0.0,0.0,0.0,0.0,0.0,0.0,0.0,0.0,0.0,0.0,0.0,0.0,0.0,0.0,0.0,0.0,5.2739,5.1995,5.1251,5.0101,4.9323,4.9018,4.9018,4.9018,4.9018,4.9018,4.9018,4.9018,4.9018,4.9018,4.9018,4.9018,4.9018,4.9018,4.9018,4.9018,4.9018,4.9018,4.9018,4.8951,4.8176,4.8075,4.8206,4.6718,4.6346,4.6583,4.6278,4.5872,4.5568,4.6007,4.665,4.7259,4.7259,4.8071,4.9018,4.9018,4.9018,4.9018,4.9018,4.9018,4.9018,4.9018,4.9018,4.9018,4.9018,4.9018,4.8883,4.8443,4.8003,4.7631,4.7327,4.7259,4.7124,4.6684,4.6718,4.6752,4.665,4.6447,4.6177,4.5771,4.5432,4.506,4.4649,4.4615,4.4615,4.4615,4.4615,4.4615,4.4615,4.4615,4.4615,4.4615,4.4615,4.4615,4.4615,4.4615,4.4615,4.4615,4.4615,4.4615,3.7668,3.7963,3.8427,3.8361,3.7831,0.0,4.1182,4.1943,4.3002,0.0,4.7335,4.7762,0.0,0.0,0.0,0.0,0.0,0.0,0.0,0.0,0.0,0.0,0.0,0.0,0.0,0.0,5.2773,5.3551,5.2807,5.1995,5.1251,5.0507,4.9763,4.9018,4.9018,4.9018,4.9018,4.9018,4.9018,4.9018,4.9018,4.9018,4.9018,4.9018,4.9018,4.9018,4.9018,4.9018,4.9018,4.9018,4.9018,4.8951,4.8277,4.8443,4.8849,4.7428,4.7327,4.7804,4.7158,4.6819,4.6684,4.6853,4.7327,4.777,4.7872,4.8443,4.9018,4.9018,4.9018,4.9018,4.9018,4.9018,4.9018,4.9018,4.9018,4.9018,4.9018,4.9018,4.9018,4.9018,4.9018,4.8815,4.8142,4.8007,4.7973,4.7906,4.7327,4.7124,4.7703,4.665,4.5805,4.5703,4.5094,4.4716,4.4615,4.4615,4.4615,4.4615,4.4615,4.4615,4.4615,4.4615,4.4615,4.4615,4.4615,4.4615,4.4615,4.4615,4.4615,4.4615,4.4615,4.4615,3.9791,3.9852,3.9818,3.9249,3.8984,0.0,3.8261,3.8599,3.9725,0.0,4.27,4.3551,0.0,0.0,0.0,0.0,0.0,0.0,0.0,0.0,0.0,0.0,0.0,0.0,0.0,0.0,5.3585,5.4329,5.3078,5.1995,5.1251,5.0507,4.9763,4.9018,4.9018,4.9018,4.9018,4.9018,4.9018,4.9018,4.9018,4.9018,4.9018,4.9018,4.9018,4.9018,4.9018,4.9018,4.9018,4.9018,4.9018,4.8984,4.8849,4.8883,4.8883,4.8037,4.78,4.7872,4.7736,4.6921,4.6109,4.7327,4.7394,4.7124,4.7703,4.8443,4.9018,4.9018,4.9018,4.9018,4.9018,4.9018,4.9018,4.9018,4.9018,4.9018,4.9018,4.9018,4.9018,4.9018,4.9018,4.8951,4.8815,4.8781,4.8578,4.7973,4.78,4.753,4.7056,4.6752,4.6346,4.5771,4.5568,4.5229,4.4649,4.4615,4.4615,4.4615,4.4615,4.4615,4.4615,4.4615,4.4615,4.4615,4.4615,4.4615,4.4615,4.4615,4.4615,4.4615,4.4615,4.4615,4.111,4.0912,4.0713,4.0044,0.0,0.0,0.0,3.846,3.9023,4.1877,4.164,4.1801,4.4843,0.0,0.0,0.0,0.0,0.0,0.0,0.0,0.0,0.0,0.0,0.0,0.0,0.0,5.3044,5.3416,5.3112,5.2401,5.1285,5.0845,5.0135,4.9052,4.9018,4.9018,4.9018,4.9018,4.9018,4.9018,4.9018,4.9018,4.9018,4.9018,4.9018,4.9018,4.9018,4.9018,4.9018,4.9018,4.9018,4.9018,4.9018,4.9018,4.8951,4.8578,4.8477,4.8477,4.8477,4.7733,4.6921,4.7635,4.7394,4.6921,4.7699,4.8443,4.9018,4.9018,4.9018,4.9018,4.9018,4.9018,4.9018,4.9018,4.9018,4.9018,4.9018,4.9018,4.9018,4.9018,4.9018,4.9018,4.9018,4.9018,4.8883,4.8511,4.8142,4.7631,4.6887,4.6481,4.5974,4.5229,4.5128,4.4993,4.4649,4.4615,4.4615,4.4615,4.4615,4.4615,4.4615,4.4615,4.4615,4.4615,4.4615,4.4615,4.4615,4.4615,4.4615,4.4615,4.4615,4.4615,4.2175,4.1939,4.1806,4.0812,0.0,4.0111,0.0,0.0,0.0,4.2009,4.1309,0.0,0.0,0.0,0.0,0.0,0.0,0.0,0.0,0.0,0.0,0.0,0.0,0.0,0.0,0.0,5.2164,5.23,5.2638,5.2367,5.1285,5.1185,5.0541,4.9052,4.9018,4.9018,4.9018,4.9018,4.9018,4.9018,4.9018,4.9018,4.9018,4.9018,4.9018,4.9018,4.9018,4.9018,4.9018,4.9018,4.9018,4.9018,4.9018,4.9018,4.9018,4.9018,4.9018,4.9018,4.9018,4.8443,4.7733,4.7838,4.7496,4.7158,4.7902,4.8545,4.9018,4.9018,4.9018,4.9018,4.9018,4.9018,4.9018,4.9018,4.9018,4.9018,4.9018,4.9018,4.9018,4.9018,4.9018,4.9018,4.9018,4.9018,4.9018,4.9018,4.8376,4.7631,4.6887,4.6143,4.5432,4.4682,4.4615,4.4615,4.4615,4.4615,4.4615,4.4615,4.4615,4.4615,4.4615,4.4615,4.4615,4.4615,4.4615,4.4615,4.4615,4.4615,4.4615,4.4615,4.4615,4.4615,0.0,0.0,0.0,0.0,4.2208,0.0,0.0,0.0,3.9885,3.9023,0.0,0.0,0.0,0.0,0.0,0.0,0.0,0.0,0.0,0.0,0.0,0.0,0.0,0.0,0.0,0.0,0.0,5.2266,5.115,5.071,5.1183,5.1185,5.0541,4.9052,4.9018,4.9018,4.9018,4.9018,4.9018,4.9018,4.9018,4.9018,4.9018,4.9018,4.9018,4.9018,4.9018,4.9018,4.9018,4.9018,4.9018,4.9018,4.9018,4.9018,4.9018,4.9018,4.9018,4.9018,4.9018,4.8071,4.7022,4.7699,4.7838,4.7906,4.8646,4.8951,4.9018,4.9018,4.9018,4.9018,4.9018,4.9018,4.9018,4.9018,4.9018,4.9018,4.9018,4.9018,4.9018,4.9018,4.9018,4.9018,4.9018,4.9018,4.9018,4.9018,4.8376,4.7631,4.6887,4.6143,4.5432,4.4682,4.4615,4.4615,4.4615,4.4615,4.4615,4.4615,4.4615,4.4615,4.4615,4.4615,4.4615,4.4615,4.4615,4.4615,4.4615,4.4615,4.4615,4.4615,4.4615,4.4615,0.0,0.0,0.0,0.0,0.0,0.0,4.0017,0.0,3.9189,0.0,0.0,0.0,0.0,0.0,0.0,0.0,0.0,0.0,0.0,0.0,0.0,0.0,0.0,0.0,0.0,0.0,0.0,0.0,0.0,4.9796,5.0507,5.0574,5.0067,4.9052,4.9018,4.9018,4.9018,4.9018,4.9018,4.9018,4.9018,4.9018,4.9018,4.9018,4.9018,4.9018,4.9018,4.9018,4.9018,4.9018,4.9018,4.9018,4.9018,4.9018,4.9018,4.9018,4.9018,4.9018,4.9018,4.8037,4.6786,4.6684,4.6921,4.7394,4.8139,4.868,4.9018,4.9018,4.9018,4.9018,4.9018,4.9018,4.9018,4.9018,4.9018,4.9018,4.9018,4.9018,4.9018,4.9018,4.9018,4.9018,4.9018,4.9018,4.9018,4.9018,4.8748,4.8274,4.753,4.7192,4.6549,4.5365,4.5229,4.5229,4.5229,4.5229,4.5399,4.5838,4.5466,4.5229,4.5229,4.4852,4.4615,4.4615,4.4615,4.4615,4.4615,4.4615,4.4615,4.4615,4.4615,4.4615,4.4158,0.0,0.0,0.0,0.0,0.0,0.0,0.0,0.0,0.0,0.0,0.0,0.0,0.0,0.0,4.121,0.0,0.0,0.0,0.0,0.0,0.0,0.0,0.0,0.0,0.0,0.0,0.0,0.0,0.0,5.0033,5.0101,4.9763,4.9018,4.9018,4.9018,4.9018,4.9018,4.9018,4.9018,4.9018,4.9018,4.9018,4.9018,4.9018,4.9018,4.9018,4.9018,4.9018,4.9018,4.9018,4.9018,4.9018,4.9018,4.9018,4.9018,4.9018,4.9018,4.9018,4.8037,4.6752,4.6413,4.6549,4.6989,4.7936,4.8578,4.9018,4.9018,4.9018,4.9018,4.9018,4.9018,4.9018,4.9018,4.9018,4.9018,4.9018,4.9018,4.9018,4.9018,4.9018,4.9018,4.9018,4.9018,4.9018,4.9018,4.9018,4.8748,4.7973,4.7906,4.7331,4.5872,4.5872,4.594,4.5737,4.5906,4.6244,4.6752,4.6312,4.5906,4.5703,4.5196,4.4818,4.4615,4.4615,4.4615,4.4615,4.4615,4.4615,4.4615,4.4615,4.4615,0.0,0.0,0.0,4.217,0.0,0.0,0.0,0.0,4.1309,0.0,0.0,0.0,0.0,0.0,4.2969,4.1612,4.1976,0.0,0.0,0.0,0.0,0.0,0.0,0.0,0.0,0.0,0.0,0.0,0.0,0.0,4.9932,5.0101,4.9763,4.9018,4.9018,4.9018,4.9018,4.9018,4.9018,4.9018,4.9018,4.9018,4.9018,4.9018,4.9018,4.9018,4.9018,4.9018,4.9018,4.9018,4.9018,4.9018,4.9018,4.9018,4.9018,4.9018,4.9018,4.9018,4.9018,4.8037,4.6921,4.7631,4.7361,4.7056,4.8511,4.8984,4.9018,4.9018,4.9018,4.9018,4.9018,4.9018,4.9018,4.9018,4.9018,4.9018,4.9018,4.9018,4.9018,4.9018,4.9018,4.9018,4.9018,4.9018,4.9018,4.9018,4.9018,4.8748,4.7973,4.7906,4.7331,4.5872,4.6346,4.6481,4.5771,4.6346,4.6752,4.6786,4.6786,4.6447,4.5737,4.5703,4.5331,4.4615,4.4615,4.4615,4.4615,4.4615,4.4615,4.4615,4.4615,4.4615,0.0,0.0,4.6046,4.4059,0.0,0.0,0.0,0.0,0.0,0.0,0.0,0.0,0.0,4.3598,4.3267,4.2274,4.191,4.1276,0.0,0.0,0.0,0.0,0.0,0.0,0.0,0.0,0.0,0.0,0.0,0.0,0.0,4.912,4.9052,4.8308,4.8748,4.9018,4.9018,4.9018,4.9018,4.9018,4.9018,4.9018,4.9018,4.9018,4.9018,4.9018,4.9018,4.9018,4.9018,4.9018,4.9018,4.9018,4.9018,4.9018,4.9018,4.9018,4.9018,4.8951,4.8443,4.797,4.7597,4.7804,4.7733,4.7733,4.8714,4.9018,4.9018,4.9018,4.9018,4.9018,4.9018,4.9018,4.9018,4.9018,4.9018,4.9018,4.9018,4.9018,4.9018,4.9018,4.9018,4.9018,4.9018,4.9018,4.9018,4.9018,4.9018,4.8917,4.868,4.8646,4.8274,4.7229,4.7394,4.7428,4.7192,4.7834,4.8274,4.8274,4.78,4.7428,4.7162,4.6684,4.6312,4.6041,4.6041,4.6041,4.6041,4.5568,4.5331,4.5331,4.4852,4.4615,4.704,4.7305,0.0,0.0,4.5119,0.0,4.2932,0.0,0.0,0.0,0.0,0.0,0.0,0.0,4.4456,4.3462,4.2469,4.121,0.0,3.9422,0.0,0.0,0.0,0.0,0.0,0.0,4.506,4.7361,0.0,0.0,0.0,0.0,4.8781,4.8308,4.8748,4.9018,4.9018,4.9018,4.9018,4.9018,4.9018,4.9018,4.9018,4.9018,4.9018,4.9018,4.9018,4.9018,4.9018,4.9018,4.9018,4.9018,4.9018,4.9018,4.9018,4.9018,4.9018,4.8951,4.8477,4.8108,4.7939,4.821,4.8108,4.8041,4.8781,4.9018,4.9018,4.9018,4.9018,4.9018,4.9018,4.9018,4.9018,4.9018,4.9018,4.9018,4.9018,4.9018,4.9018,4.9018,4.9018,4.9018,4.9018,4.9018,4.9018,4.9018,4.9018,4.9018,4.9018,4.9018,4.8714,4.7973,4.8108,4.8308,4.8308,4.8748,4.9018,4.9018,4.8578,4.8142,4.7906,4.7462,4.7056,4.6786,4.6786,4.6786,4.6786,4.6312,4.6075,4.6075,4.5331,4.4993]}]]